[[{"header":{"parameterUnit":"m.s-1","parameterCategory":1,"la1":30.6,"la2":28.766,"lo1":-90.7593,"lo2":-88.6598,"dy":0.0162,"dx":0.0183,"nx":116,"ny":114,"refTime":"2023-11-14T06:00:00:Z","depth":0,"parameterNumber":2,"parameterNumberName":"U-component_of_WINDS"},"data":[0.0,0.0,0.0,0.0,0.0,0.0,0.0,0.0,0.0,0.0,0.0,0.0,0.0,0.0,0.0,0.0,0.0,0.0,0.0,0.0,0.0,0.0,0.0,0.0,0.0,0.0,0.0,0.0,0.0,0.0,0.0,0.0,0.0,0.0,0.0,0.0,0.0,0.0,0.0,0.0,0.0,0.0,0.0,0.0,0.0,0.0,0.0,0.0,0.0,0.0,0.0,0.0,0.0,0.0,0.0,0.0,0.0,0.0,0.0,0.0,0.0,0.0,0.0,0.0,0.0,0.0,0.0,0.0,0.0,0.0,0.0,0.0,0.0,0.0,0.0,0.0,0.0,0.0,0.0,0.0,0.0,0.0,0.0,0.0,0.0,0.0,0.0,0.0,0.0,0.0,0.0,0.0,0.0,0.0,0.0,0.0,0.0,0.0,0.0,0.0,0.0,0.0,0.0,0.0,0.0,0.0,0.0,0.0,0.0,0.0,0.0,0.0,0.0,0.0,0.0,0.0,0.0,0.0,0.0,0.0,0.0,0.0,0.0,0.0,0.0,0.0,0.0,0.0,0.0,0.0,0.0,0.0,0.0,0.0,0.0,0.0,0.0,0.0,0.0,0.0,0.0,0.0,0.0,0.0,0.0,0.0,0.0,0.0,0.0,0.0,0.0,0.0,0.0,0.0,0.0,0.0,0.0,0.0,0.0,0.0,0.0,0.0,0.0,0.0,0.0,0.0,0.0,0.0,0.0,0.0,0.0,0.0,0.0,0.0,0.0,0.0,0.0,0.0,0.0,0.0,0.0,0.0,0.0,0.0,0.0,0.0,0.0,0.0,0.0,0.0,0.0,0.0,0.0,0.0,0.0,0.0,0.0,0.0,0.0,0.0,0.0,0.0,0.0,0.0,0.0,0.0,0.0,0.0,0.0,0.0,0.0,0.0,0.0,0.0,0.0,0.0,0.0,0.0,0.0,0.0,0.0,0.0,0.0,0.0,0.0,0.0,0.0,0.0,0.0,0.0,0.0,0.0,0.0,0.0,0.0,0.0,0.0,0.0,0.0,0.0,0.0,0.0,0.0,0.0,0.0,0.0,0.0,0.0,0.0,0.0,0.0,0.0,0.0,0.0,0.0,0.0,0.0,0.0,0.0,0.0,0.0,0.0,0.0,0.0,0.0,0.0,0.0,0.0,0.0,0.0,0.0,0.0,0.0,0.0,0.0,0.0,0.0,0.0,0.0,0.0,0.0,0.0,0.0,0.0,0.0,0.0,0.0,0.0,0.0,0.0,0.0,0.0,0.0,0.0,0.0,0.0,0.0,0.0,0.0,0.0,0.0,0.0,0.0,0.0,0.0,0.0,0.0,0.0,0.0,0.0,0.0,0.0,0.0,0.0,0.0,0.0,0.0,0.0,0.0,0.0,0.0,0.0,0.0,0.0,0.0,0.0,0.0,0.0,0.0,0.0,0.0,0.0,0.0,0.0,0.0,0.0,0.0,0.0,0.0,0.0,0.0,0.0,0.0,0.0,0.0,0.0,0.0,0.0,0.0,0.0,0.0,0.0,0.0,0.0,0.0,0.0,0.0,0.0,0.0,0.0,0.0,0.0,0.0,0.0,0.0,0.0,0.0,0.0,0.0,0.0,0.0,0.0,0.0,0.0,0.0,0.0,0.0,0.0,0.0,0.0,0.0,0.0,0.0,0.0,0.0,0.0,0.0,0.0,0.0,0.0,0.0,0.0,0.0,0.0,0.0,0.0,0.0,0.0,0.0,0.0,0.0,0.0,0.0,0.0,0.0,0.0,0.0,0.0,0.0,0.0,0.0,0.0,0.0,0.0,0.0,0.0,0.0,0.0,0.0,0.0,0.0,0.0,0.0,0.0,0.0,0.0,0.0,0.0,0.0,0.0,0.0,0.0,0.0,0.0,0.0,0.0,0.0,0.0,0.0,0.0,0.0,0.0,0.0,0.0,0.0,0.0,0.0,0.0,0.0,0.0,0.0,0.0,0.0,0.0,0.0,0.0,0.0,0.0,0.0,0.0,0.0,0.0,0.0,0.0,0.0,0.0,0.0,0.0,0.0,0.0,0.0,0.0,0.0,0.0,0.0,0.0,0.0,0.0,0.0,0.0,0.0,0.0,0.0,0.0,0.0,0.0,0.0,0.0,0.0,0.0,0.0,0.0,0.0,0.0,0.0,0.0,0.0,0.0,0.0,0.0,0.0,0.0,0.0,0.0,0.0,0.0,0.0,0.0,0.0,0.0,0.0,0.0,0.0,0.0,0.0,0.0,0.0,0.0,0.0,0.0,0.0,0.0,0.0,0.0,0.0,0.0,0.0,0.0,0.0,0.0,0.0,0.0,0.0,0.0,0.0,0.0,0.0,0.0,0.0,0.0,0.0,0.0,0.0,0.0,0.0,0.0,0.0,0.0,0.0,0.0,0.0,0.0,0.0,0.0,0.0,0.0,0.0,0.0,0.0,0.0,0.0,0.0,0.0,0.0,0.0,0.0,0.0,0.0,0.0,0.0,0.0,0.0,0.0,0.0,0.0,0.0,0.0,0.0,0.0,0.0,0.0,0.0,0.0,0.0,0.0,0.0,0.0,0.0,0.0,0.0,0.0,0.0,0.0,0.0,0.0,0.0,0.0,0.0,0.0,0.0,0.0,0.0,0.0,0.0,0.0,0.0,0.0,0.0,0.0,0.0,0.0,0.0,0.0,0.0,0.0,0.0,0.0,0.0,0.0,0.0,0.0,0.0,0.0,0.0,0.0,0.0,0.0,0.0,0.0,0.0,0.0,0.0,0.0,0.0,0.0,0.0,0.0,0.0,0.0,0.0,0.0,0.0,0.0,0.0,0.0,0.0,0.0,0.0,0.0,0.0,0.0,0.0,0.0,0.0,0.0,0.0,0.0,0.0,0.0,0.0,0.0,0.0,0.0,0.0,0.0,0.0,0.0,0.0,0.0,0.0,0.0,0.0,0.0,0.0,0.0,0.0,0.0,0.0,0.0,0.0,0.0,0.0,0.0,0.0,0.0,0.0,0.0,0.0,0.0,0.0,0.0,0.0,0.0,0.0,0.0,0.0,0.0,0.0,0.0,0.0,0.0,0.0,0.0,0.0,0.0,0.0,0.0,0.0,0.0,0.0,0.0,0.0,0.0,0.0,0.0,0.0,0.0,0.0,0.0,0.0,0.0,0.0,0.0,0.0,0.0,0.0,0.0,0.0,0.0,0.0,0.0,0.0,0.0,0.0,0.0,0.0,0.0,0.0,0.0,0.0,0.0,0.0,0.0,0.0,0.0,0.0,0.0,0.0,0.0,0.0,0.0,0.0,0.0,0.0,0.0,0.0,0.0,0.0,0.0,0.0,0.0,0.0,0.0,0.0,0.0,0.0,0.0,0.0,0.0,0.0,0.0,0.0,0.0,0.0,0.0,0.0,0.0,0.0,0.0,0.0,0.0,0.0,0.0,0.0,0.0,0.0,0.0,0.0,0.0,0.0,0.0,0.0,0.0,0.0,0.0,0.0,0.0,0.0,0.0,0.0,0.0,0.0,0.0,0.0,0.0,0.0,0.0,0.0,0.0,0.0,0.0,0.0,0.0,0.0,0.0,0.0,0.0,0.0,0.0,0.0,0.0,0.0,0.0,0.0,0.0,0.0,0.0,0.0,0.0,0.0,0.0,0.0,0.0,0.0,0.0,0.0,0.0,0.0,0.0,0.0,0.0,0.0,0.0,0.0,0.0,0.0,0.0,0.0,0.0,0.0,0.0,0.0,0.0,0.0,0.0,0.0,0.0,0.0,0.0,0.0,0.0,0.0,0.0,0.0,0.0,0.0,0.0,0.0,0.0,0.0,0.0,0.0,0.0,0.0,0.0,0.0,0.0,0.0,0.0,0.0,0.0,0.0,0.0,0.0,0.0,0.0,0.0,0.0,0.0,0.0,0.0,0.0,0.0,0.0,0.0,0.0,0.0,0.0,0.0,0.0,0.0,0.0,0.0,0.0,0.0,0.0,0.0,0.0,0.0,0.0,0.0,0.0,0.0,0.0,0.0,0.0,0.0,0.0,0.0,0.0,0.0,0.0,0.0,0.0,0.0,0.0,0.0,0.0,0.0,0.0,0.0,0.0,0.0,0.0,0.0,0.0,0.0,0.0,0.0,0.0,0.0,0.0,0.0,0.0,0.0,0.0,0.0,0.0,0.0,0.0,0.0,0.0,0.0,0.0,0.0,0.0,0.0,0.0,0.0,0.0,0.0,0.0,0.0,0.0,0.0,0.0,0.0,0.0,0.0,0.0,0.0,0.0,0.0,0.0,0.0,0.0,0.0,0.0,0.0,0.0,0.0,0.0,0.0,0.0,0.0,0.0,0.0,0.0,0.0,0.0,0.0,0.0,0.0,0.0,0.0,0.0,0.0,0.0,0.0,0.0,0.0,0.0,0.0,0.0,0.0,0.0,0.0,0.0,0.0,0.0,0.0,0.0,0.0,0.0,0.0,0.0,0.0,0.0,0.0,0.0,0.0,0.0,0.0,0.0,0.0,0.0,0.0,0.0,0.0,0.0,0.0,0.0,0.0,0.0,0.0,0.0,0.0,0.0,0.0,0.0,0.0,0.0,0.0,0.0,0.0,0.0,0.0,0.0,0.0,0.0,0.0,0.0,0.0,0.0,0.0,0.0,0.0,0.0,0.0,0.0,0.0,0.0,0.0,0.0,0.0,0.0,0.0,0.0,0.0,0.0,0.0,0.0,0.0,0.0,0.0,0.0,0.0,0.0,0.0,0.0,0.0,0.0,0.0,0.0,0.0,0.0,0.0,0.0,0.0,0.0,0.0,0.0,0.0,0.0,0.0,0.0,0.0,0.0,0.0,0.0,0.0,0.0,0.0,0.0,0.0,0.0,0.0,0.0,0.0,0.0,0.0,0.0,0.0,0.0,0.0,0.0,0.0,0.0,0.0,0.0,0.0,0.0,0.0,0.0,0.0,0.0,0.0,0.0,0.0,0.0,0.0,0.0,0.0,0.0,0.0,0.0,0.0,0.0,0.0,0.0,0.0,0.0,0.0,0.0,0.0,0.0,0.0,0.0,0.0,0.0,0.0,0.0,0.0,0.0,0.0,0.0,0.0,0.0,0.0,0.0,0.0,0.0,0.0,0.0,0.0,0.0,0.0,0.0,0.0,0.0,0.0,0.0,0.0,0.0,0.0,0.0,0.0,0.0,0.0,0.0,0.0,0.0,0.0,0.0,0.0,0.0,0.0,0.0,0.0,0.0,0.0,0.0,0.0,0.0,0.0,0.0,0.0,0.0,0.0,0.0,0.0,0.0,0.0,0.0,0.0,0.0,0.0,0.0,0.0,0.0,0.0,0.0,0.0,0.0,0.0,0.0,0.0,0.0,0.0,0.0,0.0,0.0,0.0,0.0,0.0,0.0,0.0,0.0,0.0,0.0,0.0,0.0,0.0,0.0,0.0,0.0,0.0,0.0,0.0,0.0,0.0,0.0,0.0,0.0,0.0,0.0,0.0,0.0,0.0,0.0,0.0,0.0,0.0,0.0,0.0,0.0,0.0,0.0,0.0,0.0,0.0,0.0,0.0,0.0,0.0,0.0,0.0,0.0,0.0,0.0,0.0,0.0,0.0,0.0,0.0,0.0,0.0,0.0,0.0,0.0,0.0,0.0,0.0,0.0,0.0,0.0,0.0,0.0,0.0,0.0,0.0,0.0,0.0,0.0,0.0,0.0,0.0,0.0,0.0,0.0,0.0,0.0,0.0,0.0,0.0,0.0,0.0,0.0,0.0,0.0,0.0,0.0,0.0,0.0,0.0,0.0,0.0,0.0,0.0,0.0,0.0,0.0,0.0,0.0,0.0,0.0,0.0,0.0,0.0,0.0,0.0,0.0,0.0,0.0,0.0,0.0,0.0,0.0,0.0,0.0,0.0,0.0,0.0,0.0,0.0,0.0,0.0,0.0,0.0,0.0,0.0,0.0,0.0,0.0,0.0,0.0,0.0,0.0,0.0,0.0,0.0,0.0,0.0,0.0,0.0,0.0,0.0,0.0,0.0,0.0,0.0,0.0,0.0,0.0,0.0,0.0,0.0,0.0,0.0,0.0,4.512,4.1736,0.0,0.0,0.0,0.0,0.0,0.0,0.0,0.0,0.0,0.0,0.0,0.0,0.0,0.0,0.0,0.0,0.0,0.0,0.0,0.0,0.0,0.0,0.0,0.0,0.0,0.0,0.0,0.0,0.0,0.0,0.0,0.0,0.0,0.0,0.0,0.0,0.0,3.8329,3.9982,4.2626,4.6083,4.4561,4.1767,3.8017,0.0,0.0,0.0,0.0,0.0,0.0,0.0,0.0,0.0,0.0,0.0,0.0,0.0,0.0,0.0,0.0,0.0,0.0,0.0,0.0,0.0,0.0,0.0,0.0,0.0,0.0,0.0,0.0,0.0,0.0,0.0,0.0,0.0,0.0,0.0,0.0,0.0,0.0,0.0,0.0,0.0,0.0,0.0,0.0,0.0,0.0,0.0,0.0,0.0,0.0,0.0,0.0,0.0,0.0,0.0,0.0,0.0,0.0,0.0,0.0,0.0,0.0,0.0,0.0,0.0,0.0,0.0,0.0,0.0,0.0,4.9626,4.6696,0.0,0.0,0.0,0.0,0.0,0.0,0.0,0.0,0.0,0.0,0.0,0.0,0.0,0.0,0.0,0.0,0.0,0.0,0.0,0.0,0.0,0.0,0.0,3.586,3.6381,3.6526,3.7058,3.7426,0.0,0.0,0.0,0.0,0.0,0.0,3.8966,3.9518,3.9757,3.961,4.3968,4.7805,5.1267,5.2166,4.9619,4.4062,4.2126,0.0,0.0,0.0,0.0,0.0,0.0,0.0,0.0,0.0,0.0,0.0,0.0,0.0,0.0,0.0,0.0,0.0,0.0,0.0,0.0,0.0,0.0,0.0,0.0,0.0,0.0,0.0,0.0,0.0,0.0,0.0,0.0,0.0,0.0,0.0,0.0,0.0,0.0,0.0,0.0,0.0,0.0,0.0,0.0,0.0,0.0,0.0,0.0,0.0,0.0,0.0,0.0,0.0,0.0,0.0,0.0,0.0,0.0,0.0,0.0,0.0,0.0,0.0,5.7678,5.8061,5.8956,5.827,5.8907,6.0298,5.4975,5.274,5.267,4.8239,0.0,0.0,0.0,0.0,0.0,0.0,0.0,0.0,0.0,0.0,0.0,0.0,0.0,0.0,0.0,0.0,0.0,0.0,0.0,0.0,0.0,3.7507,3.8238,3.8896,3.9517,3.995,4.0022,0.0,0.0,0.0,0.0,0.0,3.9669,4.0294,4.1917,4.4582,5.1509,5.5314,5.6166,5.7586,5.7285,5.5304,5.0023,4.6508,4.4368,0.0,0.0,0.0,0.0,0.0,0.0,0.0,0.0,0.0,0.0,0.0,0.0,0.0,0.0,0.0,0.0,0.0,0.0,0.0,0.0,0.0,0.0,0.0,0.0,0.0,0.0,0.0,0.0,0.0,0.0,0.0,0.0,0.0,0.0,0.0,0.0,0.0,0.0,0.0,0.0,0.0,5.1162,4.86,0.0,0.0,0.0,0.0,0.0,0.0,0.0,0.0,0.0,0.0,0.0,0.0,0.0,5.9994,6.309,6.4783,6.5517,6.5095,6.6345,6.6718,6.625,6.5972,6.6118,6.6561,6.4177,0.0,5.5222,5.3223,0.0,0.0,0.0,0.0,0.0,0.0,0.0,0.0,0.0,0.0,0.0,0.0,0.0,0.0,0.0,0.0,0.0,0.0,0.0,0.0,0.0,4.0156,4.1832,4.2087,4.4838,4.5337,4.2549,4.3156,0.0,0.0,0.0,4.0709,4.0967,4.2847,4.6794,5.293,5.8158,6.1485,6.3066,6.4178,6.3958,6.2655,5.9477,5.4566,4.8617,4.6152,0.0,0.0,0.0,0.0,0.0,0.0,0.0,0.0,0.0,0.0,0.0,0.0,0.0,0.0,0.0,0.0,0.0,0.0,0.0,0.0,0.0,0.0,0.0,0.0,0.0,0.0,0.0,0.0,0.0,0.0,0.0,0.0,0.0,0.0,0.0,0.0,0.0,0.0,0.0,4.9676,5.1759,4.9182,4.9625,4.8245,0.0,0.0,0.0,0.0,0.0,0.0,0.0,0.0,0.0,6.2303,6.3924,6.5862,6.8347,6.9305,6.9869,6.9612,6.9742,6.962,6.9394,6.8955,6.8327,6.7831,6.6984,6.4277,6.0354,5.6928,5.3605,5.0232,0.0,0.0,0.0,0.0,4.3345,4.3433,0.0,0.0,0.0,0.0,0.0,0.0,0.0,0.0,0.0,0.0,0.0,0.0,3.975,4.3506,4.6015,4.6335,4.9691,5.0037,4.5683,4.611,4.5192,4.2109,4.1665,4.1782,4.2344,4.6604,5.2607,6.0294,6.4069,6.6847,6.8809,6.9497,6.9298,6.8154,6.6953,6.1927,5.4126,5.1428,4.8001,4.4139,0.0,0.0,0.0,0.0,0.0,0.0,0.0,0.0,0.0,0.0,0.0,0.0,0.0,0.0,0.0,0.0,0.0,0.0,0.0,0.0,0.0,0.0,0.0,0.0,0.0,0.0,0.0,0.0,0.0,0.0,0.0,0.0,0.0,0.0,0.0,0.0,0.0,5.1777,5.3836,5.1853,5.3481,5.2683,0.0,0.0,0.0,0.0,0.0,0.0,6.056,6.2979,6.5482,6.8183,7.0028,7.1508,7.2726,7.3103,7.3245,7.3064,7.2344,7.1926,7.1757,7.1198,7.0363,6.9092,6.8616,6.7507,6.5528,6.0892,5.7332,5.4518,5.1632,4.9023,4.6846,4.6716,4.6704,4.7037,0.0,0.0,0.0,0.0,0.0,0.0,0.0,0.0,0.0,0.0,0.0,4.157,4.3759,4.7575,5.0548,5.1937,5.2893,5.2387,4.9945,4.8066,4.6257,4.45,4.3279,4.2928,4.3593,5.1836,5.8967,6.4697,6.9063,7.1462,7.1976,7.2498,7.268,7.2326,7.0595,6.7236,6.2584,5.8547,5.5107,5.1794,4.583,0.0,0.0,0.0,0.0,0.0,0.0,0.0,0.0,0.0,0.0,0.0,0.0,0.0,0.0,0.0,0.0,0.0,0.0,0.0,0.0,0.0,0.0,0.0,0.0,0.0,0.0,0.0,0.0,0.0,0.0,0.0,0.0,0.0,0.0,0.0,0.0,0.0,0.0,5.9725,6.1173,0.0,0.0,0.0,0.0,5.9758,6.1668,6.5032,7.0116,7.1103,7.2734,7.5316,7.7013,7.7422,7.6414,7.747,7.7181,7.56,7.5774,7.547,7.4716,7.4536,7.3813,7.2774,7.1024,6.9952,6.9161,6.5154,6.0967,5.7074,5.6004,5.3276,5.0237,5.2212,5.2063,5.1357,0.0,0.0,0.0,0.0,0.0,0.0,0.0,0.0,3.5284,3.6069,3.9882,4.3506,4.6186,5.2,5.6138,5.7385,6.0287,6.0341,5.6212,5.3261,5.0498,4.7921,4.4707,4.567,5.144,5.895,6.5193,7.0085,7.3744,7.5439,7.5144,7.5338,7.4945,7.4085,7.331,7.1508,6.8625,6.3971,5.9432,5.5147,5.1921,4.7335,0.0,0.0,0.0,0.0,0.0,0.0,0.0,0.0,0.0,0.0,0.0,0.0,0.0,0.0,0.0,0.0,0.0,0.0,0.0,0.0,0.0,0.0,0.0,0.0,0.0,0.0,0.0,0.0,0.0,0.0,0.0,0.0,0.0,0.0,0.0,0.0,0.0,6.2063,6.4799,0.0,6.1877,6.2592,6.3991,6.5606,6.9568,7.2911,7.5451,7.7216,7.847,7.9294,8.0086,8.0105,7.9185,7.8938,7.8445,7.7702,7.7149,7.6638,7.6224,7.5655,7.4404,7.2995,7.1926,7.0984,6.9834,6.7756,6.4571,6.085,5.9203,5.718,5.5225,5.5669,5.5603,5.5337,0.0,0.0,0.0,0.0,0.0,0.0,0.0,0.0,3.5422,3.7624,4.2004,4.6497,5.0504,5.6659,6.1208,6.2961,6.5262,6.4469,5.9454,5.6044,5.2487,4.8627,4.7156,5.0312,5.8658,6.4626,6.9985,7.4632,7.7368,7.8525,7.8101,7.8015,7.7476,7.6553,7.6134,7.4953,7.3283,6.951,6.4653,5.9431,5.723,5.3141,4.78,0.0,0.0,0.0,0.0,0.0,0.0,0.0,0.0,0.0,0.0,0.0,0.0,0.0,0.0,0.0,0.0,0.0,0.0,0.0,0.0,0.0,0.0,0.0,0.0,0.0,0.0,0.0,0.0,0.0,0.0,0.0,0.0,0.0,0.0,6.297,6.7272,6.5567,6.9403,7.0965,6.7887,6.9659,7.1572,7.2901,7.6588,7.9239,8.0242,8.1756,8.2428,8.2168,8.238,8.213,8.1389,8.058,7.9949,7.937,7.8536,7.7919,7.7316,7.6695,7.558,7.4015,7.3317,7.2245,7.075,6.9496,6.7132,6.416,6.2248,6.0472,5.9038,5.8701,5.8229,5.7445,0.0,0.0,0.0,0.0,0.0,0.0,3.1286,3.2816,3.5605,4.0492,4.5297,5.0575,5.6744,6.1643,6.5574,6.8462,6.7348,6.4411,5.9501,5.6027,5.1841,4.6604,5.078,5.6869,6.4601,6.8746,7.33,7.8195,8.0042,8.091,8.0649,8.0314,8.0136,7.9831,7.8866,7.7709,7.6392,7.4957,7.0866,6.506,6.1604,5.895,5.6245,0.0,0.0,0.0,0.0,0.0,0.0,0.0,0.0,0.0,0.0,0.0,0.0,0.0,0.0,0.0,0.0,0.0,0.0,0.0,0.0,0.0,0.0,0.0,0.0,0.0,0.0,0.0,0.0,0.0,0.0,0.0,0.0,0.0,6.1692,6.657,7.0546,7.082,7.538,7.8307,7.7559,7.8879,8.0365,8.1742,8.2651,8.3611,8.4665,8.4864,8.4578,8.3846,8.4038,8.3707,8.2882,8.2372,8.1724,8.0906,7.9911,7.91,7.8306,7.7847,7.724,7.6226,7.5329,7.4146,7.2446,7.0403,6.8737,6.7121,6.5029,6.3003,6.116,6.112,6.0031,5.8053,0.0,0.0,0.0,0.0,0.0,0.0,3.1847,3.3858,3.6869,4.117,4.7328,5.3396,5.8969,6.477,6.8938,7.065,7.0267,6.8147,6.393,5.8436,5.3937,5.0629,5.7376,6.3612,6.8607,7.4057,7.8246,8.1246,8.2067,8.2488,8.2222,8.1103,8.0368,8.0101,7.9476,7.8374,7.6975,7.6234,7.3923,7.0351,6.6742,6.303,5.9221,0.0,0.0,0.0,0.0,0.0,0.0,0.0,0.0,0.0,0.0,0.0,0.0,0.0,0.0,0.0,0.0,0.0,0.0,0.0,0.0,0.0,0.0,0.0,0.0,0.0,0.0,0.0,0.0,0.0,0.0,0.0,6.5792,6.9251,6.8986,7.35,7.7577,7.9688,8.1549,8.3003,8.3863,8.4201,8.4733,8.5033,8.5634,8.6223,8.6335,8.6822,8.6717,8.6121,8.6615,8.6011,8.4257,8.3381,8.2296,8.1035,8.0645,7.9889,7.9128,7.9163,7.8163,7.6529,7.5936,7.4775,7.3236,7.1143,6.9719,6.8853,6.6345,6.446,6.3279,6.2993,6.1423,5.9471,0.0,0.0,0.0,0.0,0.0,0.0,3.2192,3.3756,3.7067,4.3251,4.8865,5.5,6.214,6.7249,7.0678,7.2013,7.0145,6.7261,6.3605,5.8567,5.62,5.7324,6.366,6.9139,7.3361,7.8125,8.1458,8.3383,8.3894,8.4067,8.3977,8.3011,8.2286,8.1921,8.1585,8.0347,7.8622,7.8374,7.659,7.3797,7.1277,6.8001,6.4285,6.0628,5.8564,5.72,5.4669,5.4091,5.4188,5.139,0.0,0.0,0.0,0.0,0.0,0.0,0.0,0.0,0.0,0.0,0.0,0.0,0.0,0.0,0.0,0.0,0.0,0.0,0.0,0.0,0.0,0.0,0.0,0.0,7.1287,7.5233,7.7082,7.9137,8.1555,8.4446,8.4988,8.5687,8.7278,8.7392,8.7638,8.8032,8.8058,8.8339,8.8869,8.8491,8.8146,8.7833,8.7787,8.6998,8.5603,8.4547,8.3334,8.2313,8.1473,8.0754,7.9886,7.9725,7.8884,7.7245,7.6497,7.5314,7.3502,7.1883,7.0459,6.9301,0.0,0.0,0.0,0.0,6.1295,5.9711,0.0,0.0,0.0,0.0,0.0,0.0,3.2474,3.332,3.693,4.5842,5.0073,5.5841,6.5238,6.8837,7.1115,7.2584,6.8247,6.4002,6.0662,5.7991,5.9131,6.4987,6.9457,7.3911,7.82,8.1338,8.3578,8.5057,8.5546,8.5807,8.5877,8.5391,8.5007,8.4508,8.415,8.2835,8.0811,8.0644,7.8748,7.5879,7.4911,7.2852,6.9925,6.5087,6.3666,6.3814,5.9763,5.8447,5.8212,5.6061,0.0,0.0,0.0,0.0,0.0,0.0,0.0,0.0,0.0,0.0,0.0,0.0,0.0,0.0,0.0,0.0,0.0,0.0,0.0,0.0,0.0,0.0,0.0,0.0,7.6843,8.1523,8.4724,8.3869,8.4005,8.6563,8.6917,8.7636,8.9234,8.945,8.9703,9.0446,9.0098,9.0458,9.1552,8.9882,0.0,0.0,0.0,8.7166,8.6635,8.5478,8.4445,8.3867,8.257,8.1579,8.0517,8.0134,7.925,7.8328,7.72,7.5531,7.35,7.2502,7.0933,6.9178,6.6837,6.5165,6.3986,6.1587,6.0155,5.9011,0.0,0.0,0.0,0.0,0.0,0.0,3.3598,3.493,3.8546,4.6509,5.1142,5.6635,6.4507,6.7855,7.0339,7.219,6.8211,6.4095,6.0564,6.2357,6.5058,6.8397,7.4405,7.8903,8.1479,8.4582,8.6536,8.7303,8.7351,8.7738,8.8264,8.6161,8.5321,8.5559,8.4259,8.3075,8.1987,8.0714,7.9359,7.7658,7.6048,7.4086,7.1718,6.9309,6.8654,6.8897,6.6758,6.6711,6.693,6.2816,6.159,6.1185,5.7357,5.496,0.0,0.0,0.0,0.0,0.0,0.0,0.0,0.0,0.0,0.0,0.0,0.0,0.0,0.0,0.0,0.0,0.0,0.0,0.0,7.4865,8.0166,8.4601,8.7371,8.8409,8.9154,8.9704,9.026,9.0947,9.1728,9.2467,9.2712,9.1887,9.1906,9.2163,9.2468,9.1074,9.0216,9.0028,8.9238,8.8142,8.6455,8.6254,8.5175,8.3428,8.389,0.0,8.123,8.0766,7.9861,7.8308,7.6747,7.5161,7.3461,7.245,7.0633,6.8626,6.6783,6.5194,6.3509,6.1303,6.0291,5.9515,0.0,0.0,0.0,0.0,0.0,0.0,3.4128,3.518,3.8186,4.4818,4.8882,5.3611,5.9982,6.2949,6.4863,6.5774,6.3654,6.1863,6.0704,6.5724,7.0437,7.4075,7.9587,8.3258,8.4723,8.6833,8.8323,8.9037,8.9037,8.9117,8.9372,8.8156,8.7082,8.6424,8.568,8.4453,8.2955,8.2207,8.1089,7.9698,7.848,7.7063,7.5473,7.2742,7.1819,7.1864,7.0799,7.0924,7.1097,6.8164,6.7374,6.7014,6.4014,6.1361,5.8626,0.0,0.0,0.0,0.0,0.0,0.0,0.0,0.0,0.0,0.0,0.0,0.0,0.0,0.0,6.233,6.6146,0.0,7.562,8.0067,8.4282,8.7753,8.9868,9.1615,9.2619,9.2263,9.2307,9.2493,9.3119,9.3928,9.3963,9.3026,9.3373,9.403,9.453,9.2982,9.2065,9.2062,9.0943,8.9725,8.8537,8.7626,8.6525,8.5256,8.4482,8.3494,8.1973,8.1203,8.0036,7.8855,7.7158,7.5426,7.382,7.2218,7.0011,6.7841,6.6733,6.5326,6.3822,6.1653,6.0257,5.916,0.0,0.0,0.0,0.0,0.0,0.0,0.0,3.507,3.7327,4.2709,4.606,4.9817,5.4758,5.7192,5.8284,5.7789,5.9029,6.0288,6.1418,6.8678,7.4964,7.9446,8.3912,8.6662,8.717,8.8674,8.9739,9.0406,9.0406,9.038,9.036,8.9948,8.8936,8.7607,8.7367,8.6027,8.414,8.39,8.3053,8.1732,8.0851,8.004,7.916,7.594,7.4585,7.4255,7.3525,7.339,7.3318,7.2159,7.1729,7.1415,7.0325,6.7713,6.4373,6.0566,5.8515,0.0,0.0,0.0,0.0,0.0,0.0,0.0,0.0,6.0028,6.1322,6.2818,6.4941,6.7959,7.2477,7.6461,8.0542,8.4981,8.8262,9.0685,9.2171,9.4044,9.5037,9.4573,9.4186,9.4016,9.43,9.5023,9.5045,9.4137,9.4802,9.5649,9.6045,9.4618,9.3854,9.3895,9.2391,9.1132,9.059,8.8923,8.7882,8.7269,8.5587,8.4086,8.3092,8.1682,8.0394,7.9398,7.7154,7.5261,7.3741,7.1398,6.9446,6.767,6.6463,6.5273,6.3714,6.15,5.9695,5.8004,0.0,0.0,0.0,0.0,0.0,0.0,0.0,0.0,3.7344,4.1864,4.4839,4.7823,5.1369,5.3101,5.3303,5.1654,5.8317,6.282,6.3436,7.1396,7.7974,8.205,8.5905,8.791,8.7831,8.9914,9.1073,9.1178,9.1178,9.1529,9.2196,9.0339,8.9592,8.9673,8.8536,8.733,8.6196,8.5338,8.4452,8.343,8.214,8.1326,8.0851,7.9423,7.8239,7.7299,7.5845,7.5119,7.4718,7.4103,7.3117,7.2244,7.2276,7.1248,6.9149,6.5342,6.3165,6.1779,6.091,6.0047,5.9595,6.0597,5.9831,5.9377,0.0,6.4739,6.8068,6.9946,7.3536,7.7237,8.0327,8.274,8.5046,8.7667,9.0555,9.2982,9.4335,9.5825,9.6754,9.6848,9.7008,9.6712,9.5579,9.6952,9.6984,9.4837,9.6165,9.6616,9.5882,9.5021,9.4458,9.4222,9.2952,9.1708,9.0374,9.0092,8.944,8.8001,8.789,8.6934,8.5516,8.2857,8.1182,7.9912,7.5601,7.3181,7.192,7.0016,6.9186,6.8649,6.5722,6.3854,6.2503,5.9898,5.7799,5.6239,0.0,0.0,0.0,0.0,0.0,0.0,0.0,0.0,3.6564,4.0023,4.2051,4.3915,4.5852,4.6981,4.7387,4.6898,5.4365,6.0373,6.3573,7.2589,7.9857,8.449,8.7755,8.9518,8.9844,9.1248,9.1986,9.1986,9.1986,9.1964,9.198,9.1116,9.0328,8.964,8.9225,8.8362,8.7223,8.702,8.6608,8.5988,8.4828,8.4385,8.4215,8.2513,8.0851,7.8952,7.5195,7.3186,0.0,7.2273,7.1713,7.1316,7.2827,7.1443,6.8749,6.6746,6.5054,6.4127,6.5129,6.5516,6.5812,6.6711,6.7032,6.7772,6.9996,7.2344,7.4768,7.664,7.9695,8.2486,8.4457,8.6722,8.8884,9.0979,9.2672,9.445,9.644,9.7173,9.7551,9.7452,9.7811,9.7433,9.6182,9.7015,9.7062,9.609,9.713,9.7637,9.6952,9.6357,9.5792,9.5282,9.4093,9.3009,9.1905,9.104,9.0209,8.9769,8.7728,8.6504,8.5787,8.3343,8.0952,7.852,7.5399,7.308,7.1581,6.9804,6.8361,6.725,6.4741,6.2753,6.1053,5.9015,5.7183,5.5612,0.0,0.0,0.0,0.0,0.0,0.0,0.0,0.0,0.0,0.0,3.9329,4.0426,4.1557,4.2298,4.3068,4.3922,5.0724,5.7394,6.308,7.212,7.9831,8.5499,8.8592,9.0652,9.16,9.2196,9.2583,9.2793,9.2583,9.228,9.1778,9.1676,9.1056,8.9914,9.0089,8.9467,8.822,8.8776,8.874,8.8354,8.739,8.7083,8.6949,8.4283,8.1528,7.8599,7.4213,7.1626,7.0036,6.9509,6.8974,6.8842,7.0691,6.9394,6.7083,6.6773,6.6359,6.6282,6.7856,6.9467,7.084,7.1825,7.3375,7.506,7.6742,7.8585,8.0342,8.2156,8.4456,8.6608,8.8085,9.0176,9.2057,9.3458,9.4691,9.6073,9.777,9.8084,9.7941,9.7184,9.7131,9.6723,9.5763,9.6395,9.6821,9.6533,9.7312,9.788,9.7655,9.7418,9.7057,9.669,9.5696,9.4651,9.3619,9.1988,9.1051,9.115,8.8276,8.6671,8.6428,8.342,8.0404,7.7193,7.5047,7.3151,7.1201,6.927,6.7561,6.5764,6.3184,6.1181,5.9386,5.7634,5.6276,5.5058,0.0,0.0,0.0,0.0,0.0,0.0,0.0,0.0,0.0,0.0,0.0,0.0,0.0,4.0397,4.1464,4.3078,4.8499,5.485,6.2003,6.9801,7.7298,8.4441,8.8217,9.0897,9.2442,9.2477,9.2863,9.3601,9.2863,9.2379,9.208,9.1778,9.1574,9.1265,9.1265,9.0607,8.9709,9.0398,9.0603,9.0285,8.9495,8.9114,8.8422,8.4177,7.959,7.5344,7.3966,7.1638,6.8982,6.6302,6.5069,6.4607,6.4869,6.491,6.4945,6.5704,6.7463,6.9072,6.8651,7.0755,7.3378,7.4843,7.684,7.8488,7.8774,8.1667,8.4551,8.5816,8.7753,8.9939,9.2126,9.3525,9.4387,9.4776,9.6989,9.8366,9.7935,9.8522,9.8023,9.563,9.4623,9.4157,9.3652,9.5396,9.6447,9.623,9.6638,9.7072,9.7247,9.7803,9.8125,9.8125,9.7172,9.6114,9.4961,9.3317,9.2357,9.1813,9.0143,8.868,8.7407,8.3109,7.9262,7.5905,7.4798,7.2803,7.0377,6.8098,6.6347,6.4527,6.1534,5.9239,5.6876,5.4926,5.4201,5.3969,0.0,0.0,0.0,0.0,0.0,0.0,0.0,0.0,0.0,0.0,0.0,0.0,0.0,0.0,0.0,0.0,4.7222,5.2195,5.7834,6.6491,7.3922,7.9571,8.4964,8.8615,9.0125,9.1178,9.181,9.2056,9.2372,9.228,9.1778,9.1676,9.1471,9.0952,9.1161,9.1023,9.0467,9.1437,9.1677,9.143,9.0426,9.0116,8.9532,8.3565,7.8757,7.4401,0.0,6.4593,6.2787,6.2027,6.1421,6.1218,6.3543,6.2924,6.1744,6.414,6.757,7.1095,7.3583,7.5586,7.7464,7.9499,8.1207,8.2886,8.4398,8.6264,8.827,9.0105,8.9386,8.8712,8.9683,9.0543,9.15,9.2538,9.5177,9.7657,9.9034,9.8593,9.7308,9.537,9.4902,9.4259,9.3112,9.3758,9.4694,9.593,9.6667,9.6946,9.6871,9.7672,9.8023,9.7642,9.7067,9.6401,9.5619,9.402,9.3017,9.2418,8.9299,8.6616,8.4145,8.1274,7.8595,7.638,7.4064,7.2162,7.0377,6.749,6.5483,6.3878,6.0446,5.8159,5.6611,5.3867,5.2954,5.2668,0.0,0.0,0.0,0.0,0.0,0.0,0.0,0.0,0.0,0.0,0.0,0.0,0.0,0.0,0.0,0.0,0.0,4.9366,5.4391,6.1675,6.8229,7.3712,7.8546,8.2103,8.4105,8.4753,8.5385,8.5947,8.7375,8.8034,8.8021,8.9179,8.95,8.9226,8.9811,9.0088,9.0054,9.085,9.0504,8.9433,8.7607,8.6162,8.4437,7.8332,7.348,0.0,6.2673,5.8739,5.6781,5.7227,5.7672,5.8531,6.084,6.1567,6.1806,6.3439,6.8096,7.3391,7.6386,7.8988,8.1425,8.3173,8.5013,8.6646,8.8077,8.9465,9.0999,9.2391,9.0321,8.8358,8.8605,8.8939,8.9443,9.0579,9.3659,9.6493,9.8145,9.7656,9.651,9.4913,9.4652,9.4197,9.3142,9.3025,9.3778,9.5577,9.5998,9.6317,9.6621,9.7683,9.8147,9.7761,9.7372,9.6672,9.608,9.4466,9.2814,9.1544,8.8219,8.519,8.2535,8.0245,7.8109,7.5853,7.371,7.1561,6.975,6.6554,6.4271,6.2698,5.9311,5.696,5.5293,5.2864,5.1722,5.0869,0.0,0.0,0.0,0.0,0.0,0.0,0.0,0.0,0.0,0.0,0.0,0.0,0.0,0.0,0.0,0.0,0.0,0.0,5.1588,5.5657,6.0738,6.7158,6.9631,7.2197,7.4941,7.415,7.4492,7.5965,7.8484,8.0032,8.0901,8.4039,8.5535,8.557,8.6593,8.7254,8.7777,8.8115,8.6869,8.4363,8.1397,7.8017,7.4257,6.9227,6.4615,6.0403,5.7766,5.4533,5.1579,5.2196,5.4258,5.6745,5.7257,6.104,6.5128,6.4042,6.9433,7.5994,7.721,8.0987,8.4925,8.603,8.8112,9.0006,8.9641,9.1264,9.2722,9.2689,9.0519,8.8679,8.8646,8.8243,8.8202,8.8533,9.236,9.5272,9.5524,9.6179,9.6008,9.4439,9.4077,9.3986,9.3802,9.3391,9.3778,9.5105,9.5082,9.5414,9.6623,9.7919,9.8611,9.8442,9.8017,9.7305,9.6112,9.4505,9.2195,8.941,8.715,8.4921,8.2426,8.0071,7.7553,7.4805,7.3451,7.1582,6.8996,6.528,6.2736,6.1057,5.8112,5.5631,5.3152,5.2215,5.0488,4.8611,0.0,0.0,0.0,0.0,0.0,0.0,0.0,0.0,0.0,0.0,0.0,0.0,0.0,0.0,0.0,0.0,0.0,0.0,4.6532,5.1623,5.5977,5.9253,6.3996,6.7481,6.9296,7.0271,7.1131,7.1874,7.2624,7.3253,7.3757,7.4513,7.4994,7.5292,7.5962,7.6622,7.7128,7.7771,7.7667,7.6955,7.5604,7.429,7.2432,6.6484,6.2506,5.9614,5.4831,5.2437,5.1598,5.2428,5.5338,5.9045,6.1727,6.4484,6.7315,7.0565,7.4035,7.7686,8.2067,8.5111,8.7525,8.9365,9.0871,9.2118,9.2556,9.3119,9.3351,9.2788,8.8107,8.3911,8.3151,8.2509,8.2465,8.3703,8.933,9.3997,9.5275,9.659,9.7015,9.6372,0.0,9.5579,9.5067,9.4784,9.5164,9.6461,9.62,9.6037,9.607,9.7723,9.8215,9.7419,9.7219,9.6934,9.6161,9.368,9.1134,8.8796,8.6503,8.4089,8.1246,7.8767,7.659,7.4603,7.2519,7.0705,6.8805,6.5108,6.2503,6.0334,5.7405,5.4982,5.2717,5.1271,4.9784,4.8727,0.0,0.0,0.0,0.0,0.0,0.0,0.0,0.0,0.0,0.0,0.0,0.0,0.0,0.0,0.0,0.0,0.0,0.0,0.0,4.7557,5.0617,5.2509,5.5943,5.8388,5.9667,6.0774,6.1671,6.2286,6.4133,6.5465,6.6176,6.7659,6.8528,6.8807,6.9516,7.0368,7.127,7.1339,7.1075,0.0,0.0,6.6669,6.4663,6.0027,5.7216,5.5274,5.2068,5.1263,5.2232,5.6369,5.9727,6.293,6.7023,7.0118,7.2811,7.6211,7.907,8.197,8.6105,8.866,9.0386,9.1592,9.2841,9.3252,9.1728,9.1629,9.1032,8.8051,8.3482,7.9727,7.8453,7.8415,7.9328,8.1728,8.736,9.2687,9.5924,9.7312,9.7856,9.7923,9.7911,9.7568,9.6862,9.683,9.7139,9.7847,9.7104,9.6451,9.6304,9.7473,9.8017,9.7419,9.7219,9.6414,9.5164,9.2436,9.0363,8.8541,8.6042,8.346,8.0748,7.8404,7.6039,7.3744,7.1955,6.9845,6.7215,6.429,6.1325,5.8844,5.5986,5.3491,5.1588,5.0296,4.8607,4.7008,0.0,0.0,0.0,0.0,0.0,0.0,0.0,0.0,0.0,0.0,0.0,0.0,0.0,0.0,0.0,0.0,0.0,0.0,0.0,0.0,4.5692,4.7231,4.7911,4.8633,4.9424,5.0042,5.0583,5.1076,5.4839,5.7153,5.8219,6.134,6.2983,6.3357,6.4179,6.5309,6.6553,6.5867,6.5076,6.3889,6.0902,5.7912,5.5,0.0,5.1217,5.0038,5.0012,5.0892,5.3414,6.1893,6.5403,6.7112,7.2651,7.6665,7.9615,8.1521,8.4317,8.7219,8.9528,9.1528,9.3128,9.349,9.4303,9.3749,8.931,8.868,8.7408,8.1326,7.823,7.6208,7.4653,7.568,7.7777,8.0999,8.5956,9.1157,9.6079,9.7578,9.8471,9.9291,9.9845,9.9676,9.8958,9.8965,9.9144,9.9144,9.7683,9.6947,9.7044,9.7447,9.779,9.7619,9.7019,9.5805,9.3719,9.1377,8.966,8.8548,8.5516,8.3016,8.0853,7.815,7.5564,7.288,7.1188,6.8578,6.4965,6.2738,6.0032,5.6875,5.4453,5.2121,5.0109,4.9212,4.7317,4.4943,0.0,0.0,0.0,0.0,0.0,0.0,0.0,0.0,0.0,0.0,0.0,0.0,0.0,0.0,0.0,0.0,0.0,0.0,0.0,0.0,0.0,4.5192,4.5841,4.6316,4.6418,4.7165,4.7488,4.741,4.8186,4.899,4.9859,5.0921,5.1756,5.2461,5.3703,5.4651,5.534,5.5327,5.4834,5.4096,5.3983,5.295,5.1473,5.1076,0.0,0.0,5.0875,5.2255,5.5109,6.5069,6.828,6.9425,7.7699,8.1821,8.4113,8.7075,8.8981,9.0404,9.2433,9.3873,9.5023,9.5369,9.5432,9.413,8.931,8.7844,8.5478,7.8518,7.5724,7.4067,7.2413,7.4882,7.7317,7.7855,8.3967,8.9817,9.3365,9.5618,9.8131,10.1678,10.1305,10.0854,10.0642,10.0041,9.9763,9.9763,9.8757,9.8092,9.7465,9.7645,9.7619,9.7219,9.5805,9.4575,9.3719,9.1377,8.966,8.8548,8.5334,8.2844,8.131,7.7438,7.4969,7.3178,6.9908,6.7388,6.4985,6.1266,5.8541,5.6355,5.394,5.1728,4.9704,4.9003,4.7102,4.5237,0.0,0.0,0.0,0.0,0.0,0.0,0.0,0.0,0.0,0.0,0.0,0.0,0.0,0.0,0.0,0.0,0.0,0.0,0.0,0.0,0.0,4.3184,4.381,4.4054,4.3944,4.4541,4.5,4.5287,0.0,4.5882,4.6941,4.6826,4.7261,4.8127,4.8736,4.9492,5.0307,5.0366,5.0657,5.1123,5.1072,5.098,5.0633,5.0376,0.0,0.0,5.1281,5.2746,5.5176,6.4122,6.8108,7.096,8.0577,8.5309,8.7807,8.9593,9.1419,9.3216,9.4948,9.623,9.7007,9.663,9.6126,9.3749,8.6545,8.3965,8.0649,7.2577,7.0885,7.049,6.9334,7.3689,7.743,7.7778,8.3417,8.9355,9.4151,9.5686,9.7934,10.2355,10.2456,10.191,10.1361,10.0813,10.0412,10.0412,9.9581,9.8663,9.8179,9.7845,9.7619,9.7019,9.5805,9.4369,9.3329,9.095,8.9009,8.7671,8.5148,8.2739,8.064,7.7884,7.5006,7.1959,6.9624,6.6371,6.3021,6.0279,5.7792,5.5108,5.2992,5.0734,4.8726,4.8046,4.6129,4.4047,0.0,0.0,0.0,0.0,0.0,0.0,0.0,0.0,0.0,0.0,0.0,0.0,0.0,0.0,0.0,0.0,0.0,0.0,0.0,0.0,0.0,0.0,0.0,0.0,4.2083,0.0,0.0,4.3507,4.3755,0.0,0.0,0.0,0.0,0.0,4.6515,4.7251,4.822,4.8277,4.9041,0.0,0.0,4.9736,5.0047,0.0,0.0,0.0,0.0,5.2722,5.4764,6.2229,6.6789,7.0904,7.9762,8.5274,8.8755,8.9993,9.2097,9.4617,9.6825,9.816,9.8468,9.7723,9.6517,9.315,8.374,8.0142,7.6174,6.7145,6.6523,6.733,6.6812,7.2347,7.7134,7.7719,8.2425,8.8302,9.4526,9.5582,9.7508,10.2691,10.3245,10.2758,10.2052,10.1348,10.1074,10.0883,10.0173,9.9395,9.8808,9.8215,9.7591,9.7019,9.5805,9.4341,9.2673,9.0496,8.847,8.6661,8.4503,8.2257,7.9852,7.7956,7.4901,7.104,6.8869,6.5425,6.1057,5.9216,5.672,5.3821,5.1759,4.9744,4.8086,4.7064,4.5172,4.2871,0.0,0.0,0.0,0.0,0.0,0.0,0.0,0.0,0.0,0.0,0.0,0.0,0.0,4.0256,0.0,0.0,0.0,0.0,0.0,0.0,0.0,0.0,0.0,0.0,0.0,0.0,0.0,4.1664,4.2204,0.0,0.0,0.0,0.0,0.0,0.0,4.7245,4.8043,4.8205,0.0,0.0,0.0,0.0,0.0,0.0,0.0,0.0,0.0,5.2354,5.4322,6.1083,6.4966,6.7879,7.2707,7.8613,8.4558,8.821,9.0601,9.3144,9.7798,9.9043,9.911,9.8586,9.6498,9.2017,8.321,7.8886,7.4321,6.5567,6.5127,6.6204,6.5991,7.1062,7.5364,7.5588,7.9533,8.4904,9.1656,9.3437,9.652,10.3342,10.4034,10.3852,10.3668,10.2398,10.1294,10.0883,10.0336,9.9979,9.9395,9.8779,9.7988,9.6962,9.5397,9.3746,9.204,9.0281,8.8289,8.6077,8.3364,8.1304,7.9757,7.6388,7.3654,7.1514,6.7617,6.4108,6.1039,5.7458,5.5041,5.3294,5.1019,4.913,4.7573,4.6307,4.4754,4.3125,0.0,0.0,0.0,0.0,0.0,0.0,0.0,0.0,0.0,0.0,0.0,0.0,4.3432,4.2145,0.0,0.0,0.0,0.0,0.0,0.0,0.0,0.0,0.0,0.0,0.0,0.0,4.1086,4.0864,4.1302,0.0,0.0,0.0,0.0,0.0,0.0,4.6164,4.7166,4.7266,0.0,0.0,0.0,0.0,0.0,0.0,0.0,0.0,0.0,0.0,5.3998,5.8357,6.1188,6.325,6.5852,6.9756,7.5104,8.3835,8.852,9.2086,9.738,9.9693,10.0136,9.8951,9.6096,9.1363,8.301,7.7681,7.2632,6.6014,6.5193,6.5799,6.6535,7.1392,7.5144,7.4482,7.7901,8.2858,8.9159,8.9888,9.2937,10.177,10.2252,10.2332,10.3424,10.2676,10.1864,10.1294,10.1133,10.0942,10.0307,9.9561,9.8582,9.7591,9.5981,9.4176,9.2105,8.9993,8.7554,8.5031,8.282,8.0565,7.822,7.5724,7.2781,6.959,6.6645,6.3442,6.0213,5.7086,5.4739,5.3023,5.0787,4.8862,4.7068,4.6072,4.4501,4.2896,0.0,0.0,0.0,0.0,0.0,0.0,0.0,0.0,3.9982,4.3091,4.4453,4.4967,4.4491,4.2918,4.0879,3.8206,0.0,0.0,0.0,0.0,0.0,0.0,0.0,0.0,0.0,0.0,3.9939,4.0226,4.0397,4.1117,0.0,0.0,4.2888,4.4384,0.0,0.0,0.0,0.0,0.0,0.0,0.0,0.0,0.0,0.0,0.0,0.0,0.0,0.0,0.0,0.0,0.0,5.9184,6.0873,6.3319,6.7811,7.9084,8.5221,8.9613,9.5676,9.897,10.0447,9.9009,9.5015,8.9581,8.2519,7.6341,7.0599,6.566,6.4906,6.5535,6.6443,7.0601,7.3783,7.3192,7.6791,8.1381,8.6692,8.7381,9.0371,9.8256,9.9193,9.9813,10.1246,10.1991,10.2241,10.2112,10.2082,10.1674,10.0883,9.9968,9.8686,9.7305,9.57,9.3762,9.1482,8.9385,8.6961,8.4014,8.2032,7.9779,7.7001,7.4533,7.1545,6.8317,6.5546,6.2611,5.9301,5.6611,5.4572,5.2655,5.0438,4.8544,4.6749,4.539,4.4074,4.2473,0.0,0.0,0.0,0.0,0.0,0.0,0.0,0.0,3.9958,4.3091,4.3393,4.3687,4.46,4.2265,4.0492,4.0089,0.0,0.0,0.0,0.0,0.0,0.0,0.0,0.0,0.0,0.0,0.0,0.0,0.0,4.0018,4.1209,4.1534,4.2392,4.3632,0.0,0.0,0.0,0.0,0.0,0.0,0.0,0.0,0.0,0.0,0.0,0.0,0.0,0.0,0.0,0.0,0.0,0.0,0.0,6.0598,6.4374,7.4344,8.0408,8.5395,9.2272,9.6608,9.8994,9.8742,9.3029,8.6398,8.1711,7.4865,6.8226,6.3793,6.4012,6.5082,6.5306,6.7948,7.0499,7.1667,7.6027,8.0431,8.3898,8.6889,8.9861,9.2545,9.49,9.6559,9.732,10.0492,10.2616,10.3174,10.2616,10.2052,10.0913,9.9912,9.8215,9.6254,9.445,9.2514,9.0239,8.8539,8.6341,8.3462,8.1075,7.8806,7.6467,7.2741,7.0221,6.8254,6.4091,6.1154,5.8881,5.6193,5.3704,5.1557,4.9835,4.8101,4.6295,4.413,4.3001,4.246,0.0,0.0,0.0,0.0,0.0,0.0,0.0,0.0,3.886,4.1376,4.232,4.3015,4.3721,4.1866,4.0562,4.0668,0.0,0.0,0.0,0.0,0.0,0.0,0.0,0.0,0.0,0.0,0.0,0.0,0.0,0.0,0.0,4.3073,4.3992,4.4907,4.5621,4.6561,0.0,0.0,0.0,0.0,0.0,0.0,0.0,0.0,0.0,0.0,0.0,0.0,0.0,0.0,0.0,0.0,0.0,0.0,0.0,6.8267,7.3775,7.9211,8.4747,8.7795,8.9184,8.8228,8.4715,8.0441,7.6371,7.1606,6.7221,6.4029,6.3672,6.4152,6.5208,6.72,7.0359,7.5079,7.7454,8.054,8.5701,8.7396,8.9431,9.2835,9.7093,10.073,10.2758,10.285,10.3019,10.3205,10.3035,10.2499,10.0942,9.9939,9.8259,9.6254,9.4434,9.2292,8.962,8.7589,8.5205,8.2282,7.9564,7.6867,7.4035,7.1039,6.8063,6.5537,6.2952,6.003,5.727,5.5582,5.3306,5.0641,4.9003,4.7188,4.4884,4.352,4.2171,4.0809,0.0,0.0,0.0,0.0,0.0,0.0,0.0,0.0,3.7411,3.9228,4.0184,4.1162,4.2331,4.0878,4.0078,4.0833,0.0,0.0,0.0,0.0,0.0,0.0,0.0,0.0,0.0,0.0,0.0,0.0,0.0,0.0,0.0,0.0,0.0,4.5976,4.6408,4.7098,0.0,0.0,0.0,0.0,0.0,0.0,4.7674,0.0,0.0,0.0,0.0,0.0,0.0,0.0,0.0,0.0,0.0,0.0,0.0,0.0,6.804,7.2654,7.8876,8.2106,8.3394,8.2233,7.8859,7.5056,7.2371,6.8673,6.531,6.3438,6.4045,6.4872,6.4674,6.7066,7.015,7.3705,7.7115,8.0344,8.3519,8.634,8.9416,9.3216,9.6976,10.0964,10.485,10.4549,10.4156,10.4271,10.4109,10.3146,10.0913,9.9716,9.7804,9.5149,9.3363,9.1348,8.8706,8.6485,8.4041,8.1152,7.8466,7.568,7.2792,6.9418,6.6512,6.3937,6.1484,5.9067,0.0,5.501,5.2827,5.0328,4.8044,4.6214,4.4336,4.2795,4.0902,3.9454,0.0,0.0,0.0,0.0,0.0,0.0,0.0,0.0,0.0,0.0,0.0,3.8472,4.0533,3.9433,3.9177,0.0,0.0,0.0,0.0,0.0,0.0,0.0,0.0,0.0,0.0,0.0,0.0,0.0,4.0882,4.2414,4.5156,0.0,0.0,0.0,0.0,0.0,0.0,0.0,0.0,0.0,0.0,0.0,0.0,0.0,0.0,0.0,0.0,0.0,0.0,0.0,0.0,0.0,0.0,0.0,0.0,0.0,0.0,0.0,0.0,7.8133,8.0137,7.9226,7.4539,7.0164,6.9401,6.6036,0.0,6.2189,6.4918,6.6631,6.3984,6.7304,7.0041,6.9166,7.5598,8.008,7.8828,8.4402,9.0106,9.41,9.5649,9.8621,10.4119,10.519,10.5649,10.5825,10.5279,10.3681,10.1163,9.9337,9.7027,9.3598,9.1703,8.972,8.7604,8.549,8.2827,8.0097,7.7759,7.5114,7.1936,6.8187,6.5347,6.3204,6.0264,5.7994,5.5928,5.4006,5.212,5.0186,4.6841,4.5006,4.4008,4.1449,3.9701,3.8145,0.0,0.0,0.0,0.0,0.0,0.0,0.0,0.0,0.0,0.0,0.0,3.775,3.8052,3.8314,0.0,0.0,0.0,0.0,0.0,0.0,0.0,0.0,0.0,0.0,0.0,0.0,0.0,4.0635,4.125,4.2882,4.5585,4.6662,0.0,0.0,0.0,0.0,0.0,0.0,0.0,0.0,0.0,0.0,0.0,0.0,0.0,0.0,5.1515,5.2484,0.0,0.0,0.0,0.0,0.0,0.0,0.0,0.0,6.2113,6.3886,6.5118,0.0,6.7993,6.6995,6.5609,6.4329,0.0,6.3316,6.234,6.1698,6.4398,6.6377,6.4448,6.7753,7.1621,7.4286,7.8408,8.141,8.1544,8.6398,0.0,9.8565,10.0993,10.2998,10.5146,10.5545,10.5774,10.5856,10.4906,10.3365,10.1163,9.9337,9.7027,9.3598,9.0477,8.8074,8.6388,8.4676,8.2059,7.8923,7.6092,7.3098,6.9792,6.6622,6.3432,6.0454,5.8301,5.5662,5.288,5.1897,4.9905,4.7508,4.5655,4.3885,4.1908,3.9757,3.7832,3.629,0.0,0.0,0.0,0.0,0.0,0.0,0.0,0.0,0.0,0.0,0.0,0.0,0.0,0.0,0.0,0.0,0.0,0.0,0.0,0.0,0.0,0.0,0.0,0.0,0.0,0.0,0.0,0.0,0.0,4.4922,0.0,0.0,0.0,0.0,0.0,0.0,0.0,0.0,0.0,0.0,4.8028,0.0,0.0,0.0,0.0,0.0,5.1322,5.2343,0.0,5.376,5.5273,5.7025,0.0,0.0,0.0,0.0,6.0496,6.1697,6.0762,6.1708,6.2745,6.1766,6.1172,6.0858,6.0858,6.1095,6.1425,6.1815,6.4399,6.6238,6.4707,6.7949,7.139,7.2697,7.7194,8.1853,8.5923,8.8507,9.2373,9.9037,10.1166,10.292,10.5569,10.5314,10.5465,10.625,10.5274,10.3403,10.072,9.9191,9.6883,9.3008,8.9564,8.7147,8.599,8.3876,8.1392,7.8531,7.5092,7.1797,6.8677,6.5001,6.1528,5.8537,5.6733,5.4334,5.1575,5.0249,4.8291,4.6513,4.404,4.2539,4.1185,3.8715,3.6762,3.5237,0.0,0.0,0.0,0.0,0.0,0.0,0.0,0.0,0.0,0.0,0.0,0.0,0.0,0.0,0.0,0.0,0.0,0.0,0.0,0.0,0.0,0.0,0.0,0.0,0.0,0.0,0.0,0.0,0.0,0.0,0.0,0.0,0.0,0.0,0.0,0.0,0.0,0.0,0.0,0.0,4.8187,0.0,0.0,0.0,0.0,0.0,0.0,0.0,0.0,5.3204,5.4559,5.6221,5.6279,0.0,0.0,0.0,0.0,0.0,5.9254,6.0378,6.1367,6.0299,5.9648,5.9235,5.9471,6.008,6.1042,6.2399,6.5114,6.6692,6.5382,6.8601,7.112,7.0066,7.5778,8.3048,9.1204,9.1546,9.3026,9.8748,10.0424,10.2493,10.5632,10.5078,10.515,10.6523,10.5335,10.3289,10.0218,9.8678,9.6236,9.2335,8.8252,8.5862,8.5311,8.2597,8.0088,7.7646,7.3865,7.0579,6.7822,6.3269,5.998,5.7501,5.5746,5.348,5.0938,4.8872,4.733,4.6034,4.2589,4.1426,4.0954,3.7858,3.5835,3.4322,0.0,0.0,0.0,0.0,0.0,0.0,0.0,0.0,0.0,0.0,0.0,0.0,0.0,0.0,0.0,0.0,0.0,0.0,0.0,0.0,0.0,0.0,0.0,0.0,0.0,0.0,0.0,0.0,0.0,0.0,4.9283,5.191,5.2545,0.0,0.0,0.0,0.0,0.0,0.0,0.0,4.7907,0.0,0.0,0.0,0.0,0.0,0.0,0.0,0.0,5.3428,5.4365,5.5258,5.6507,0.0,0.0,0.0,0.0,0.0,5.9665,6.0754,6.1531,6.0275,5.9945,6.0359,6.18,6.2527,6.3188,6.4118,6.7087,6.9289,6.7965,7.0984,7.4204,7.5785,8.1178,8.8344,9.7412,0.0,9.951,10.3629,10.6646,10.8098,10.6724,10.6706,10.6662,10.6038,10.4452,10.2436,10.0159,9.7192,9.4105,9.1242,8.6422,8.3397,8.2389,7.9663,7.6759,7.4312,7.1009,6.8569,6.6707,6.2597,5.9454,5.6862,5.4355,5.1653,4.9148,4.7616,4.6176,4.4796,4.2854,4.1287,3.9936,3.6509,3.4759,3.3732,0.0,0.0,0.0,0.0,0.0,0.0,0.0,0.0,0.0,0.0,0.0,0.0,0.0,0.0,0.0,0.0,0.0,0.0,0.0,0.0,0.0,0.0,0.0,0.0,0.0,0.0,0.0,0.0,0.0,5.0778,5.2826,5.3479,5.299,5.1486,0.0,0.0,0.0,0.0,0.0,0.0,0.0,0.0,0.0,0.0,0.0,0.0,0.0,0.0,0.0,0.0,5.3653,5.4391,5.5375,0.0,0.0,0.0,0.0,0.0,5.8118,5.9183,6.0484,6.1628,6.2158,6.2498,6.329,6.3883,6.4593,6.5716,6.7606,6.8964,6.9003,7.3168,7.8216,8.348,8.7102,9.1464,9.8347,9.9229,10.0425,10.4149,10.5478,10.6245,10.6193,10.5446,10.4765,10.4823,10.3235,10.1285,9.8937,9.6315,9.3368,8.9899,8.5688,8.2058,7.9609,7.6473,7.4717,7.4314,7.0312,6.7389,6.5412,6.0905,5.7657,5.537,5.2934,5.0438,4.8329,4.6369,4.4997,4.4037,4.1686,4.0403,3.9476,3.5791,3.3171,3.1317,0.0,0.0,0.0,0.0,0.0,0.0,0.0,0.0,0.0,0.0,0.0,0.0,0.0,0.0,0.0,0.0,0.0,0.0,0.0,0.0,0.0,0.0,0.0,0.0,0.0,0.0,4.5362,4.8115,5.1629,5.4399,5.645,5.4629,5.299,0.0,0.0,0.0,0.0,0.0,0.0,0.0,0.0,0.0,0.0,0.0,0.0,0.0,0.0,0.0,0.0,0.0,0.0,0.0,0.0,0.0,0.0,5.4667,5.5598,5.6909,5.746,5.8772,6.0664,6.3669,6.4263,6.4401,6.5539,6.5982,6.6622,6.832,6.9064,6.9726,7.0576,7.6007,0.0,8.9277,9.2218,9.5258,9.9368,10.0344,10.185,10.4761,10.4563,10.4649,10.585,10.4281,10.324,10.3427,10.2056,9.9892,9.7229,9.4953,9.1775,8.7827,8.3975,8.0412,7.7334,7.4042,7.2943,7.3762,6.9539,6.6171,6.4132,5.9649,5.6502,5.4248,5.1772,4.9754,4.7622,4.5638,4.4324,4.365,4.1274,3.9797,3.8451,3.4983,3.2168,3.0109,0.0,0.0,0.0,0.0,0.0,0.0,0.0,0.0,0.0,0.0,0.0,0.0,0.0,0.0,0.0,0.0,0.0,0.0,0.0,0.0,0.0,0.0,0.0,0.0,0.0,4.4966,4.7372,4.8743,5.3505,5.6609,5.7995,5.499,5.2898,5.1522,0.0,0.0,0.0,0.0,0.0,0.0,4.8072,0.0,0.0,0.0,0.0,0.0,0.0,0.0,0.0,0.0,0.0,0.0,0.0,0.0,5.4563,5.4529,5.5598,5.7253,5.9392,6.1565,6.3841,6.6152,6.5241,6.4983,6.9305,7.007,7.0398,7.2563,7.3612,7.4093,7.3945,8.0521,8.6979,8.9816,9.5759,10.0995,10.3565,10.5047,10.6295,10.7464,10.8155,10.8129,10.6961,10.5421,10.3881,10.2152,10.0757,9.8249,9.4562,9.186,8.8341,8.4012,8.0189,7.7407,7.6144,7.3244,7.1241,7.0314,6.7186,6.4667,6.281,5.9226,5.6502,5.4248,5.1772,4.9519,4.7211,4.6405,4.535,4.4012,4.2266,3.9327,3.5736,3.3778,3.2356,3.1708,0.0,0.0,0.0,0.0,0.0,0.0,0.0,0.0,0.0,0.0,0.0,0.0,0.0,0.0,0.0,0.0,0.0,0.0,0.0,0.0,0.0,0.0,0.0,4.3564,4.4488,4.7682,5.0753,5.3599,5.7166,5.8678,5.8139,5.5582,0.0,0.0,0.0,0.0,0.0,0.0,0.0,0.0,0.0,0.0,0.0,0.0,0.0,0.0,0.0,0.0,0.0,0.0,5.2693,5.2788,5.515,5.5943,5.6115,5.7047,5.7736,5.853,5.984,6.1841,6.4048,6.5842,6.6519,6.8008,7.2688,7.4571,7.5967,7.8714,7.9361,0.0,0.0,0.0,9.0024,9.3795,9.908,10.3349,10.5099,10.5947,10.661,10.728,10.6917,10.5769,10.3998,10.3363,10.2062,9.9612,9.8102,9.6202,9.3494,9.0188,8.6624,8.2367,8.0028,7.7271,7.4352,7.2646,7.058,6.8086,6.626,6.4067,6.1311,5.8401,5.566,5.32,5.0722,4.9057,4.7548,4.566,4.4896,4.4369,4.1234,3.8049,3.495,3.3516,3.2045,3.0813,0.0,0.0,0.0,0.0,0.0,0.0,0.0,0.0,0.0,0.0,0.0,0.0,0.0,0.0,0.0,0.0,0.0,0.0,0.0,0.0,0.0,0.0,0.0,4.491,4.7313,5.0112,5.3396,5.724,5.9724,6.0016,5.8139,0.0,0.0,0.0,0.0,0.0,0.0,0.0,0.0,0.0,0.0,4.9386,0.0,0.0,0.0,0.0,0.0,0.0,0.0,0.0,5.2727,5.2892,5.5904,5.6805,5.7081,5.8599,5.9288,5.9806,6.0704,6.2292,6.4157,6.6159,6.7971,7.0824,7.6621,7.849,8.0037,8.4242,8.4814,8.4527,8.49,0.0,0.0,0.0,10.0602,10.3782,10.5749,10.6107,10.6254,10.6709,10.56,10.4127,10.2421,10.1427,9.9947,9.7581,9.5679,9.3578,9.0905,8.8184,8.4835,8.0597,7.9005,7.6744,7.34,7.2118,6.9893,6.6982,6.5578,6.3361,6.0396,5.7818,5.5285,5.2487,5.0136,4.8459,4.7415,4.5406,4.4068,4.3461,4.0199,3.735,3.482,3.3725,3.2234,3.0664,0.0,0.0,0.0,0.0,0.0,0.0,0.0,0.0,0.0,0.0,0.0,0.0,0.0,0.0,0.0,0.0,0.0,0.0,0.0,0.0,0.0,0.0,0.0,4.5101,4.9751,5.1985,5.4948,5.881,6.081,6.0521,5.8139,5.5172,0.0,0.0,0.0,0.0,0.0,0.0,0.0,0.0,0.0,5.0693,5.1092,0.0,0.0,0.0,0.0,0.0,0.0,0.0,5.2252,5.277,5.5839,5.684,5.715,5.8668,5.9806,6.0912,6.2368,6.3373,6.4689,6.7704,6.9632,7.3024,8.1316,8.1631,8.2171,8.8903,8.9681,8.8824,8.7778,9.0051,0.0,9.771,9.9968,10.2313,10.543,10.5752,10.5708,10.5708,10.5141,10.4274,10.3043,10.0459,9.798,9.6135,9.3685,9.0435,8.601,8.538,8.2853,7.7915,7.6606,7.5096,7.34,7.168,6.9226,6.626,6.4893,6.2853,6.0168,5.7562,5.5011,5.2399,5.028,4.8221,4.6115,4.5481,4.3413,4.0574,3.9751,3.7507,3.484,3.3884,3.2923,3.2064,0.0,0.0,0.0,0.0,0.0,0.0,0.0,0.0,0.0,0.0,0.0,0.0,0.0,0.0,0.0,0.0,0.0,0.0,0.0,0.0,0.0,0.0,0.0,0.0,0.0,0.0,5.5312,5.8522,5.9582,5.8661,0.0,0.0,0.0,5.1529,0.0,0.0,0.0,0.0,0.0,0.0,0.0,5.102,5.1777,0.0,0.0,0.0,0.0,0.0,0.0,0.0,0.0,0.0,5.7253,5.8737,5.9599,6.1668,6.2845,6.3535,6.3984,6.6608,6.9716,7.1684,7.3463,7.7281,8.6537,8.669,8.6696,9.3148,9.4367,9.3706,9.2101,9.4089,0.0,9.8949,10.1479,10.3595,10.521,10.5174,10.4844,10.4216,10.3674,10.2485,10.041,9.8835,9.6965,9.4607,9.1496,8.8612,8.6597,8.3421,8.0639,7.8247,7.6376,7.4454,7.2726,7.0999,6.8535,6.5578,6.3995,6.1677,5.8714,5.6584,5.4425,5.188,4.9686,4.8255,4.7497,4.5544,4.2675,3.9194,3.8203,3.6236,3.4206,3.309,3.1979,3.0611,0.0,0.0,0.0,0.0,0.0,0.0,0.0,0.0,0.0,0.0,0.0,0.0,0.0,0.0,0.0,0.0,0.0,0.0,0.0,0.0,0.0,0.0,0.0,0.0,0.0,5.1522,5.4337,0.0,0.0,0.0,0.0,0.0,0.0,5.2988,0.0,5.2517,0.0,0.0,0.0,5.2468,5.201,5.2363,5.3123,0.0,0.0,0.0,0.0,0.0,0.0,0.0,0.0,0.0,5.801,6.0255,6.1979,6.4289,6.5538,6.6263,6.6962,6.9589,7.2582,7.4636,7.6759,8.0429,8.8811,0.0,0.0,0.0,9.8368,9.8515,9.6565,9.7113,9.8786,10.1075,10.1848,10.287,10.4857,10.4003,10.3402,10.3779,10.177,10.0021,9.8958,9.6496,9.3933,9.186,8.872,8.6369,8.4507,8.2028,7.9645,7.754,7.5927,7.4239,7.2118,7.0314,6.8086,6.4934,6.3073,6.061,5.782,5.6363,5.4281,5.1994,4.898,4.7497,4.6902,4.5304,4.2429,3.911,3.8463,3.6209,3.3677,3.3088,3.2106,3.0885,0.0,0.0,0.0,0.0,0.0,0.0,0.0,0.0,0.0,0.0,0.0,0.0,0.0,0.0,0.0,0.0,0.0,0.0,0.0,0.0,0.0,0.0,0.0,0.0,0.0,0.0,0.0,0.0,0.0,0.0,0.0,0.0,5.459,5.5176,0.0,5.5212,0.0,5.4956,5.47,5.5167,5.441,5.4407,5.4809,5.4389,0.0,0.0,0.0,0.0,0.0,0.0,0.0,0.0,5.821,6.1119,6.391,6.6152,6.7584,6.87,7.0372,7.2057,7.4187,7.7168,8.0371,0.0,8.959,9.6988,10.2136,10.0231,0.0,10.2827,10.097,9.9995,10.0444,10.3911,10.2186,10.1534,10.4245,10.2774,10.2113,10.4081,9.9911,9.7388,9.8288,9.3809,8.9987,8.8398,8.6217,8.3888,8.1237,8.0901,7.9349,7.6116,7.5357,7.4048,7.1703,6.9871,6.7412,6.4435,6.259,6.0041,5.6997,5.6279,5.4611,5.2105,4.8653,4.6503,4.502,4.4513,4.2411,3.9433,3.9158,3.6711,3.3303,3.3464,3.2872,3.2018,0.0,0.0,0.0,0.0,0.0,0.0,0.0,0.0,0.0,0.0,0.0,0.0,0.0,0.0,0.0,0.0,0.0,0.0,0.0,0.0,0.0,0.0,0.0,0.0,0.0,0.0,0.0,0.0,0.0,0.0,0.0,0.0,0.0,5.5212,0.0,5.5944,5.5651,5.5285,5.4838,5.4301,5.4683,5.5051,5.5317,5.4655,5.4828,0.0,0.0,0.0,0.0,0.0,0.0,0.0,5.6992,5.9943,6.3231,6.4778,6.6566,6.8646,7.0752,7.4239,7.8327,8.2864,9.0263,9.6198,9.5292,9.9619,10.3227,10.1385,10.3494,10.5347,10.4328,10.4424,10.4659,10.5274,10.4564,10.4314,10.4563,10.3703,10.3067,10.3622,10.0136,9.7908,9.8208,9.3692,9.005,8.8406,8.5543,8.3054,8.1026,7.9311,7.7889,7.6597,7.5143,7.364,7.1703,6.9449,6.696,6.4435,6.2145,5.9608,5.6997,5.5283,5.2588,4.9096,4.8264,4.6517,4.4068,4.3747,4.1458,3.8048,3.7322,3.5435,3.3242,3.2949,3.2216,3.1387,0.0,0.0,0.0,0.0,0.0,0.0,0.0,0.0,0.0,0.0,0.0,0.0,0.0,0.0,0.0,0.0,0.0,0.0,0.0,0.0,0.0,0.0,0.0,0.0,0.0,0.0,0.0,0.0,0.0,0.0,0.0,0.0,0.0,5.5285,0.0,5.7058,5.6926,5.6572,5.6124,5.5629,5.5571,5.5848,5.6233,5.5749,5.5685,5.5829,5.6039,0.0,0.0,0.0,0.0,0.0,0.0,0.0,6.3508,6.4957,6.6436,6.8463,7.2602,7.6169,8.0329,8.7393,0.0,9.9413,9.7643,10.0832,10.3901,10.3061,10.4827,10.6061,10.5306,10.582,10.6071,10.5288,10.5237,10.4954,10.4167,10.2837,10.2082,10.1814,9.8057,9.536,9.5056,9.0768,8.7441,8.6051,8.3991,8.1948,7.9969,7.8791,7.7231,7.5763,7.4427,7.2967,7.0823,6.8513,6.6033,6.3515,6.1252,5.8899,5.6039,5.4094,5.1662,4.8711,4.8279,4.6591,4.4208,4.3329,4.0904,3.7686,3.6677,3.5058,3.2929,3.2706,3.209,3.166,0.0,0.0,0.0,0.0,0.0,0.0,0.0,0.0,0.0,0.0,0.0,0.0,0.0,0.0,0.0,0.0,0.0,0.0,0.0,0.0,0.0,0.0,0.0,0.0,0.0,0.0,4.7636,0.0,0.0,0.0,0.0,0.0,0.0,5.5723,0.0,5.8203,5.8601,5.8045,5.7741,5.7569,5.7011,5.7043,5.7366,5.7208,0.0,5.5937,5.7092,5.6588,5.5573,5.6763,0.0,0.0,0.0,0.0,6.3788,6.5313,6.6236,6.8118,7.4257,7.8328,8.295,9.1704,9.6723,0.0,9.8757,10.1438,10.4203,10.4567,10.5588,10.6227,10.5504,10.5968,10.6059,10.5164,10.4854,10.4474,10.3443,10.1958,10.0463,9.9766,9.5535,9.2195,9.1294,8.7402,8.4582,8.3212,8.2159,8.0746,7.8556,7.8345,7.7067,7.431,7.364,7.2073,6.9671,6.7412,6.4893,6.2377,6.0295,5.7676,5.4819,5.2898,5.1205,4.9205,4.811,4.6562,4.4516,4.3137,4.063,3.7565,3.6547,3.4591,3.2625,3.2625,3.2334,3.213,0.0,0.0,0.0,0.0,0.0,0.0,0.0,0.0,0.0,0.0,0.0,0.0,0.0,0.0,0.0,0.0,0.0,0.0,4.1907,0.0,0.0,4.5275,4.5394,4.6084,0.0,0.0,0.0,0.0,0.0,0.0,0.0,0.0,0.0,0.0,0.0,0.0,5.8737,5.8713,5.8542,5.8478,5.8942,5.9023,5.8862,0.0,0.0,0.0,0.0,5.7875,5.7121,5.7952,5.8166,0.0,0.0,0.0,6.237,6.39,6.5174,6.7437,7.3599,8.1765,8.9949,0.0,9.9649,10.1055,0.0,10.2789,10.4068,10.4154,10.5497,10.6523,10.6263,10.6668,10.6589,10.5104,10.4794,10.4432,10.3537,10.253,10.0853,9.8705,9.5511,9.2378,8.9494,8.6422,8.3863,8.211,8.1493,8.0154,7.8014,7.736,7.6256,7.431,7.3207,7.1438,6.9226,6.7186,6.4872,6.1699,5.8169,5.5318,5.3384,5.2654,5.1205,4.9205,4.811,4.6281,4.383,4.2504,4.0018,3.7046,3.6027,3.4304,3.2625,3.2625,3.2148,3.1752,0.0,0.0,0.0,0.0,0.0,0.0,0.0,0.0,0.0,0.0,0.0,0.0,0.0,0.0,0.0,4.3591,4.3605,4.354,4.3461,4.3277,4.3614,4.4752,4.4699,4.501,4.5722,0.0,0.0,0.0,0.0,0.0,0.0,5.8105,5.8794,0.0,0.0,0.0,0.0,0.0,0.0,5.916,5.947,5.9762,0.0,0.0,0.0,0.0,0.0,0.0,0.0,5.8804,5.891,5.8789,5.8607,0.0,0.0,0.0,6.3274,6.559,7.4447,8.359,9.1621,9.6281,9.8778,10.0438,10.146,10.2888,10.4338,10.4965,10.6038,10.6688,10.6461,10.7199,10.7312,10.5136,10.5018,10.4336,10.2702,10.2112,10.0445,9.6053,9.4146,9.1435,8.732,8.4807,8.2779,8.1442,8.0492,7.918,7.7262,7.6631,7.5357,7.3423,7.2555,7.0778,6.813,6.6281,6.3515,6.0079,5.7236,5.5318,5.4111,5.2915,5.096,4.8695,4.7911,4.5955,4.3452,4.1861,3.9408,3.6708,3.5368,3.4062,3.2766,3.2261,3.2025,3.1865,0.0,0.0,0.0,0.0,0.0,0.0,0.0,0.0,0.0,0.0,0.0,0.0,0.0,0.0,0.0,0.0,4.4928,4.4912,4.4561,4.3812,4.3689,4.4266,4.4147,4.4228,4.4482,0.0,0.0,0.0,0.0,0.0,6.0794,6.1282,6.2718,0.0,6.1587,0.0,0.0,0.0,0.0,0.0,0.0,0.0,0.0,0.0,0.0,0.0,0.0,0.0,0.0,0.0,6.022,5.9663,5.9541,5.9756,0.0,0.0,0.0,6.5773,7.443,8.2497,8.9409,9.2827,9.5383,9.7618,9.9965,10.1838,10.3497,10.5371,10.628,10.6635,10.6247,10.7382,10.7498,10.5584,10.5146,10.4209,10.2066,10.1601,9.9587,9.449,9.2794,9.0296,8.5698,8.3443,8.1777,8.0568,7.957,7.8308,7.6631,7.5996,7.4692,7.2555,7.1461,6.9649,6.696,6.4435,6.1699,5.8444,5.6519,5.5283,5.4336,5.2638,5.065,4.8048,4.7468,4.5734,4.301,4.125,3.888,3.6509,3.5272,3.4095,3.3092,3.2571,3.2239,3.1982,0.0,0.0,0.0,0.0,0.0,0.0,0.0,0.0,0.0,0.0,0.0,0.0,0.0,0.0,4.711,4.7188,4.6493,4.5632,4.4681,4.4541,4.4458,4.4333,4.4304,0.0,4.5301,4.6215,0.0,0.0,0.0,0.0,6.1011,6.3062,6.668,7.1258,6.5788,6.3418,6.3437,0.0,0.0,0.0,0.0,0.0,0.0,0.0,0.0,0.0,0.0,0.0,0.0,0.0,0.0,0.0,6.0388,6.0469,6.0872,0.0,0.0,0.0,7.2306,7.7353,8.2604,8.6164,8.9015,9.2327,9.7022,9.9105,10.101,10.4936,10.6162,10.6216,10.5852,10.6561,10.7077,10.6104,10.4983,10.3585,10.2366,10.0859,9.8448,9.5079,9.209,8.9156,8.5828,8.2865,8.0568,7.9419,7.8956,7.7891,7.6232,7.4883,7.3809,7.2555,6.9671,6.7658,6.6281,6.2165,5.9136,5.7015,5.5799,5.4111,5.2411,5.1662,5.0,4.7727,4.7376,4.5519,4.2285,4.1221,3.9264,3.7037,3.5805,3.4759,3.4107,3.3583,3.2423,3.1571,0.0,0.0,0.0,0.0,0.0,0.0,0.0,0.0,0.0,0.0,0.0,0.0,0.0,4.739,4.7352,4.7416,4.7591,4.7483,4.7015,4.7379,4.7335,4.6688,4.6589,4.6445,4.6314,4.713,0.0,0.0,0.0,5.8099,6.2466,6.4709,6.7814,7.1369,6.7067,6.5896,6.707,6.4794,0.0,0.0,0.0,0.0,0.0,0.0,0.0,0.0,0.0,0.0,0.0,0.0,0.0,0.0,0.0,0.0,6.1943,6.2713,6.5784,6.9332,7.1572,7.5239,7.9308,8.2781,8.6053,8.9135,9.1758,9.4684,9.7481,9.9645,10.0853,10.1942,10.3243,10.4979,10.5832,10.4436,10.3291,10.226,10.0751,9.8559,9.5942,9.3067,8.9833,8.6865,8.4019,8.1341,7.957,7.8748,7.7915,7.6841,7.5546,7.4361,7.3052,7.1438,6.9341,6.6621,6.3284,6.1018,5.8899,5.6997,5.5782,5.4336,5.2654,5.1678,5.0,4.7727,4.71,4.5205,4.2312,4.145,3.973,3.7073,3.5828,3.509,3.4421,3.3152,3.2769,3.2191,0.0,0.0,0.0,0.0,0.0,0.0,0.0,0.0,0.0,0.0,0.0,0.0,0.0,0.0,4.8249,4.8249,4.8726,4.8919,4.8805,4.9183,4.9096,4.8477,4.8114,4.7815,4.7641,4.8203,0.0,0.0,0.0,0.0,0.0,0.0,6.73,7.0657,6.7724,0.0,0.0,0.0,0.0,6.633,0.0,0.0,6.6567,0.0,0.0,0.0,0.0,0.0,0.0,0.0,0.0,0.0,0.0,0.0,0.0,0.0,0.0,0.0,6.9392,0.0,0.0,7.845,8.1254,8.4041,8.7482,9.0317,9.299,9.5996,9.7687,9.9245,10.134,10.3376,10.4529,10.3632,10.2719,10.1471,9.9837,9.7656,9.514,9.1987,8.8761,8.5649,8.2801,8.0366,7.8723,7.8124,7.7076,7.5923,7.4645,7.3224,7.1479,6.8763,6.7303,6.4626,6.0998,6.006,5.8444,5.6537,5.5559,5.4336,5.2654,5.1678,5.0016,4.7972,4.7327,4.5234,4.2463,4.1456,3.9776,3.7866,3.6336,3.5701,3.5081,3.3787,3.312,3.2728,0.0,0.0,0.0,0.0,0.0,0.0,0.0,0.0,0.0,0.0,0.0,0.0,0.0,0.0,0.0,5.0031,4.9986,4.9967,4.9843,4.9792,4.9671,4.9439,4.869,4.8615,4.9402,4.9402,0.0,0.0,0.0,0.0,0.0,0.0,6.5448,0.0,6.8033,6.8517,7.0556,0.0,6.9425,6.8385,0.0,6.7153,6.7038,0.0,0.0,0.0,7.4729,7.4158,0.0,0.0,0.0,0.0,0.0,0.0,0.0,0.0,0.0,0.0,0.0,0.0,0.0,7.2812,7.4344,7.7067,8.4494,8.6008,8.7644,9.4355,9.716,9.8894,9.9985,10.1661,10.2992,10.375,10.3036,10.1793,9.9806,9.836,9.6022,9.1916,8.8884,8.5641,8.256,8.0065,7.8124,7.7076,7.6208,7.5331,7.3511,7.1751,6.89,6.4892,6.3575,6.1982,5.9806,5.9117,5.795,5.6039,5.5301,5.4077,5.2183,5.145,5.0261,4.8722,4.7568,4.5552,4.2764,4.1263,4.0186,3.9167,3.762,3.6616,3.6101,3.5327,3.4304,3.2998,0.0,0.0,0.0,0.0,0.0,0.0,0.0,0.0,0.0,0.0,0.0,0.0,0.0,0.0,0.0,5.3391,5.3967,5.395,5.3155,5.3616,5.3587,5.2781,5.2663,5.2432,5.2048,5.2086,5.2578,5.3524,0.0,0.0,0.0,0.0,0.0,0.0,6.931,7.029,7.097,6.9084,0.0,0.0,6.9788,7.0193,0.0,0.0,0.0,0.0,0.0,7.9391,0.0,0.0,7.5583,6.9817,0.0,0.0,0.0,0.0,0.0,0.0,6.4991,0.0,0.0,0.0,0.0,0.0,7.713,8.1454,8.5594,8.9113,9.2616,9.5837,9.859,9.9726,10.0502,10.1711,10.119,10.0018,9.8536,9.605,9.3689,9.2348,8.7853,8.4327,8.3189,7.9907,7.7682,7.6866,7.5659,7.429,7.3061,6.9658,6.6685,6.4359,6.2982,6.1383,5.9408,5.8514,5.7456,5.6039,5.4819,5.3627,5.2183,5.145,5.0261,4.8722,4.7058,4.5523,4.4037,4.1991,4.0365,3.9167,3.762,3.6616,3.6101,3.5327,3.4563,3.3506,0.0,0.0,0.0,0.0,0.0,0.0,0.0,0.0,0.0,0.0,0.0,0.0,0.0,0.0,0.0,0.0,5.5643,5.5739,5.5491,5.5908,5.5876,5.5282,5.498,5.4603,5.4146,5.4183,5.4528,5.521,0.0,0.0,0.0,6.3184,0.0,0.0,0.0,0.0,0.0,0.0,0.0,0.0,7.1404,0.0,0.0,7.547,7.6854,0.0,0.0,0.0,8.0535,8.3238,7.9339,0.0,0.0,0.0,0.0,0.0,0.0,0.0,0.0,0.0,0.0,0.0,0.0,0.0,7.3976,7.805,8.2141,8.5244,8.8912,9.2644,9.6369,9.7295,9.7929,9.9266,9.8913,9.8185,9.7641,9.5438,9.3306,9.1689,8.8418,8.5277,8.2481,8.0217,7.8233,7.6419,7.4644,7.2874,7.0726,6.7429,6.5186,6.3763,6.1981,6.0399,5.9238,5.7967,5.6997,5.6039,5.5077,5.3559,5.1952,5.1466,5.0508,4.8732,4.6879,4.5656,4.5015,4.235,4.0442,3.9435,3.8522,3.7458,3.637,3.5968,3.5158,3.4283,0.0,0.0,0.0,0.0,0.0,0.0,0.0,0.0,0.0,0.0,0.0,0.0,0.0,0.0,0.0,0.0,5.6526,5.6688,5.7331,5.7336,0.0,5.73,5.6551,5.6063,5.6023,5.5988,5.6292,5.6855,5.846,5.9855,6.1126,6.2778,6.4586,6.6459,0.0,0.0,0.0,0.0,0.0,7.2333,7.3012,7.4046,0.0,0.0,7.8079,0.0,8.3585,8.4159,8.3524,8.5496,8.1558,0.0,0.0,0.0,0.0,0.0,6.5987,0.0,0.0,0.0,0.0,0.0,6.9423,0.0,7.323,7.5564,7.8147,8.2218,8.5663,8.9174,9.2973,9.4011,9.457,9.568,9.5552,9.5827,9.6747,9.5656,9.371,9.0452,8.9538,8.6841,8.1455,8.0623,7.9018,7.5238,7.3438,7.0986,6.7769,6.5542,6.372,6.3038,6.0531,5.915,5.8872,5.7602,5.6411,5.5986,5.5231,5.3613,5.1622,5.1556,5.0636,4.9126,4.6795,4.5728,4.5438,4.2561,4.0963,4.0213,3.9697,3.8619,3.713,3.66,3.5766,3.4822,0.0,0.0,0.0,0.0,0.0,0.0,0.0,0.0,0.0,0.0,0.0,0.0,0.0,0.0,0.0,0.0,0.0,6.0527,0.0,0.0,0.0,5.9702,5.9552,5.9215,5.8577,5.854,5.8502,5.8536,5.9976,6.1352,6.2788,6.5017,6.6051,6.6135,0.0,0.0,0.0,0.0,0.0,7.5728,7.6333,0.0,8.3494,8.4171,8.5351,8.6984,9.0241,9.0963,9.023,0.0,8.5368,8.0907,0.0,0.0,0.0,0.0,0.0,0.0,0.0,0.0,0.0,0.0,0.0,0.0,7.0886,7.406,7.7145,7.9023,8.251,8.5527,8.5944,8.6947,8.7367,8.623,8.7923,9.0431,9.4043,9.3788,9.2258,9.0106,8.8229,8.5736,8.1576,7.9475,7.7019,7.403,7.1511,6.8976,6.643,6.4241,6.2262,6.0596,5.9009,5.7929,5.7526,5.6095,5.5259,5.5561,5.3596,5.2351,5.1606,5.0828,4.9799,4.8569,4.6705,4.5611,4.5161,4.2982,4.1191,4.0175,3.9497,3.8449,3.713,3.6416,3.5642,3.4822,0.0,0.0,0.0,0.0,0.0,0.0,0.0,0.0,0.0,0.0,0.0,0.0,0.0,0.0,0.0,0.0,0.0,0.0,0.0,0.0,0.0,0.0,6.1052,6.0864,6.0567,6.0452,6.0521,6.0852,6.1911,6.2917,6.3859,6.6183,6.7063,6.6719,6.8247,0.0,0.0,0.0,7.3395,7.7303,7.8727,0.0,8.6037,8.801,8.9094,8.9801,9.3413,9.5025,9.4794,9.057,8.8034,0.0,0.0,7.4133,7.1985,0.0,6.7834,6.6964,0.0,0.0,0.0,6.6701,0.0,0.0,0.0,7.1921,7.4564,7.6066,7.8353,8.046,8.1673,8.1784,8.1729,8.1909,8.3984,8.6031,8.7598,8.965,9.0801,8.9905,8.8484,8.6332,8.319,8.0596,7.6855,7.1843,6.9494,6.74,6.5217,6.3418,6.1581,6.0032,5.8687,5.7512,5.6595,5.5375,5.4757,5.4733,5.2846,5.1827,5.1061,5.0164,4.919,4.7698,4.6012,4.4928,4.4367,4.2572,4.1382,4.0529,4.0034,3.9023,3.7632,3.6755,3.5698,3.4789,0.0,0.0,0.0,0.0,0.0,0.0,0.0,0.0,0.0,0.0,0.0,0.0,0.0,0.0,0.0,0.0,0.0,0.0,0.0,0.0,0.0,0.0,6.251,6.2398,6.2705,6.2098,6.2164,6.2902,6.3587,6.4253,6.493,6.7016,6.7817,6.7615,6.9209,0.0,0.0,0.0,0.0,7.8484,0.0,8.4003,8.6346,8.9733,9.1062,9.1609,9.5794,9.781,9.7498,9.218,8.9821,8.7813,8.026,7.6952,0.0,0.0,0.0,0.0,0.0,0.0,0.0,0.0,0.0,6.8008,0.0,0.0,0.0,7.3009,7.3496,7.4431,7.6637,7.6071,7.575,7.6964,7.9139,8.0395,7.9412,8.3184,8.6506,8.7523,8.7162,8.548,8.2469,7.9642,7.546,6.9192,6.7252,6.554,6.3691,6.2316,6.0879,5.9364,5.8345,5.7189,5.6025,5.5177,5.4475,5.4075,5.2574,5.1458,5.0785,4.9994,4.8616,4.7196,4.5608,4.455,4.3608,4.2203,4.1274,4.0826,4.0531,3.956,3.8168,3.6859,3.5754,3.4519,4.9242,4.98,0.0,0.0,0.0,0.0,0.0,0.0,0.0,0.0,0.0,0.0,0.0,0.0,0.0,0.0,0.0,0.0,6.9228,0.0,0.0,0.0,0.0,6.5067,6.6036,6.3729,6.2891,6.3668,6.4123,6.5115,6.6629,6.7907,6.8438,6.8377,7.0568,0.0,0.0,0.0,7.9179,0.0,8.6297,8.7799,0.0,8.9583,9.2293,9.5159,9.9499,9.985,9.7779,0.0,9.0932,8.7604,0.0,7.9384,7.6381,7.4596,0.0,0.0,0.0,0.0,0.0,0.0,6.9076,0.0,6.9254,0.0,6.8727,6.8975,0.0,6.7036,6.6121,0.0,0.0,6.5077,6.8091,7.0587,7.0599,7.2253,7.5171,7.9655,8.0304,7.8677,7.4448,7.0762,6.7814,6.6128,6.5197,6.3499,6.0905,6.0875,5.977,5.6911,5.6759,5.6286,5.5603,5.4495,5.4,5.4139,5.2159,5.1207,5.1241,4.9765,4.8628,4.7889,4.6312,4.5033,4.3622,4.2695,4.1759,4.0787,4.0096,3.9223,3.79,3.6639,3.535,3.4002,0.0,0.0,0.0,0.0,0.0,0.0,0.0,0.0,0.0,0.0,0.0,0.0,0.0,0.0,0.0,0.0,0.0,7.3879,0.0,0.0,0.0,0.0,0.0,0.0,0.0,6.4613,6.4592,6.5766,6.5901,6.6482,6.7524,6.8879,6.9592,6.985,7.1696,0.0,7.5778,0.0,8.1515,0.0,0.0,0.0,0.0,9.3026,9.631,9.9498,10.21,10.129,9.8727,9.7324,9.4213,0.0,0.0,0.0,0.0,7.6644,0.0,0.0,0.0,0.0,0.0,0.0,0.0,0.0,6.7895,6.7087,6.6576,6.6598,0.0,0.0,0.0,0.0,0.0,0.0,6.5171,6.7106,6.6773,6.8094,7.0459,7.425,7.4389,7.2467,6.8316,6.6142,6.4129,6.1908,6.1356,6.0955,6.0657,6.1243,6.1057,5.9992,5.9101,5.7776,5.5966,5.4387,5.3539,5.2789,5.1471,5.0755,5.0688,4.9601,4.8361,4.6943,4.5877,4.4528,4.2826,4.2224,4.1602,4.1025,4.0039,3.9048,3.79,3.6078,3.4541,3.3226,0.0,0.0,0.0,0.0,0.0,0.0,0.0,0.0,0.0,0.0,0.0,0.0,7.4807,7.5313,0.0,0.0,0.0,7.8873,0.0,0.0,7.2472,0.0,0.0,0.0,0.0,0.0,6.5654,6.7195,6.7037,6.7442,6.8231,6.9449,7.0339,7.1198,0.0,7.5327,7.8311,0.0,0.0,8.6773,8.9657,9.1924,9.3933,9.6738,9.9769,10.2562,10.3893,10.2483,9.992,9.8972,9.659,9.3415,9.1107,8.72,8.3024,0.0,0.0,0.0,7.125,7.1401,7.1484,6.9066,6.9084,6.9237,6.7401,6.6577,6.6055,6.5404,6.4384,0.0,0.0,0.0,0.0,0.0,0.0,6.3561,6.3533,6.3708,6.5056,6.8771,6.7608,6.5543,6.2593,6.1955,6.0435,5.7875,5.7935,5.8437,5.9115,6.0594,6.1665,6.1635,6.0696,5.9168,5.6572,5.5247,5.3698,5.21,5.1387,5.0938,5.0472,4.9787,4.8377,4.6691,4.5978,4.4323,4.2374,4.1892,4.1304,4.0827,3.9833,3.8696,3.7864,3.601,3.4228,3.2447,5.4944,5.4011,0.0,0.0,0.0,0.0,0.0,0.0,0.0,0.0,0.0,0.0,0.0,0.0,0.0,0.0,0.0,8.7113,8.4243,0.0,8.0693,0.0,0.0,0.0,0.0,0.0,0.0,6.7123,6.6837,6.7494,6.9078,6.9482,7.0456,7.2036,7.4087,7.5747,7.7308,8.3002,8.593,8.7358,9.3014,9.7001,9.9643,0.0,10.1188,10.3409,10.4701,10.3607,10.1149,9.799,9.68,9.603,9.2649,9.0357,8.8663,8.7765,8.4529,8.1035,8.0337,7.8083,7.573,7.4377,7.2219,7.0187,6.8938,6.8417,6.7645,6.544,6.3928,6.2433,6.0394,0.0,0.0,0.0,0.0,0.0,0.0,5.6949,5.6768,6.2024,5.9615,5.7425,5.7101,5.6352,5.5595,5.4298,5.605,5.6305,5.4508,5.8411,6.0001,5.8917,6.0138,5.9677,5.7268,5.6609,5.5019,5.2794,5.21,5.1851,5.1834,5.0438,4.9269,4.7873,4.6706,4.4787,4.2388,4.2374,4.1521,4.0357,3.9597,3.8696,3.7864,3.6326,3.4066,3.1918,0.0,0.0,0.0,0.0,0.0,0.0,0.0,6.7574,0.0,0.0,0.0,0.0,0.0,0.0,9.1392,0.0,0.0,9.2057,8.8641,8.6436,0.0,0.0,0.0,7.2778,0.0,0.0,0.0,0.0,6.7804,6.7994,6.899,6.9575,7.0843,7.2838,7.4542,7.7691,0.0,0.0,0.0,0.0,0.0,9.9669,10.0586,10.2384,10.3235,10.38,10.6043,10.459,10.1711,10.1567,9.9427,9.6695,9.6765,9.3726,8.9971,8.9205,8.6401,8.3106,8.1612,8.0398,7.9008,7.6416,7.4105,7.1751,6.9077,6.8402,6.7932,6.6706,6.6248,6.5467,6.3734,0.0,0.0,0.0,0.0,0.0,0.0,5.4709,5.2568,5.2941,5.2259,5.1462,5.0928,5.0816,5.0406,4.9775,5.0909,5.2975,5.5927,5.8055,6.0719,6.4296,6.3632,6.21,5.9711,5.8129,5.5929,5.2794,5.2823,5.2324,5.1188,5.0252,4.8805,4.7417,4.6216,4.4294,4.2388,4.2388,4.1535,4.0357,3.9597,3.8444,3.7316,3.5526,3.4055,3.2437,5.9893,0.0,0.0,0.0,0.0,0.0,0.0,0.0,0.0,0.0,8.3926,0.0,9.3927,0.0,9.5694,0.0,9.783,9.6236,9.2468,9.0954,0.0,8.5595,8.0745,0.0,0.0,0.0,0.0,0.0,0.0,6.9284,6.9668,7.0067,7.145,7.3676,7.5087,7.8379,8.3106,0.0,9.0573,0.0,0.0,10.2573,10.2228,10.4721,10.4579,10.3517,10.5755,10.5145,10.3245,10.3946,10.1944,9.9212,9.9774,9.7044,9.3449,9.2442,9.0221,8.7765,8.6122,8.4686,8.3114,8.0692,7.8235,7.5658,7.2552,7.1912,7.1455,6.9801,6.8882,6.7888,6.6634,0.0,0.0,0.0,0.0,0.0,0.0,5.2956,5.0407,4.8172,4.7954,4.7947,4.7342,4.7409,4.7269,4.6826,4.7921,5.0136,5.384,5.5723,5.8749,6.3209,6.2341,6.1285,5.9438,5.8041,5.5711,5.3008,5.327,5.2573,5.1636,5.0235,4.9041,4.7417,4.5978,4.4309,4.2374,4.2258,4.1385,3.9846,3.9725,3.8771,3.7328,3.5537,3.4011,3.2603,0.0,0.0,0.0,0.0,6.3418,0.0,0.0,0.0,8.0125,0.0,9.0125,9.6099,9.9702,10.0703,10.1427,10.2003,10.1683,0.0,9.6071,9.631,0.0,0.0,8.8822,8.6915,8.6915,0.0,0.0,0.0,0.0,7.1537,7.1458,7.1062,7.2206,7.4613,7.5828,0.0,8.0868,8.4859,8.9879,9.5922,10.3523,10.5387,10.3973,10.6138,10.4895,10.235,10.4121,10.5294,10.5854,10.4705,10.4018,10.3259,10.1534,10.0041,9.8824,9.7549,9.6046,9.4695,9.3576,9.0769,8.7909,8.6983,8.4446,8.1447,7.9056,7.8431,7.7693,7.4551,7.18,6.9626,6.887,6.4641,0.0,0.0,0.0,0.0,0.0,5.1455,4.9987,4.7458,4.6768,4.6519,4.6388,4.6051,4.5813,4.5401,4.7145,4.8171,4.8543,5.1798,5.4588,5.6056,5.6925,5.7392,5.7123,5.6032,5.4931,5.3716,5.306,5.2812,5.2794,5.0972,4.9318,4.8109,4.6009,4.4099,4.2416,4.2008,4.0823,3.9386,3.9666,3.9185,3.7864,3.6326,3.4436,3.2407,6.2116,6.3061,6.3892,0.0,6.615,6.8631,0.0,0.0,0.0,0.0,9.5913,10.0907,10.4084,10.5487,10.6022,10.5285,10.5136,0.0,0.0,0.0,0.0,9.769,9.392,9.1675,9.1395,8.5618,0.0,8.1885,0.0,7.6032,7.6619,7.3861,7.3884,7.6254,7.7497,7.9648,8.2445,8.6397,9.1133,9.635,9.9937,10.0564,9.9724,10.1716,10.1857,10.136,10.4464,10.6098,10.6553,10.4809,10.3868,10.3102,10.2674,10.1073,9.9478,9.9014,9.8284,9.7236,9.6254,9.4336,9.2144,9.0154,8.7159,8.3982,8.1016,8.0434,7.9991,7.847,7.6489,7.4218,7.1692,6.8277,6.4801,0.0,0.0,0.0,0.0,5.0869,4.8635,4.7304,4.6394,4.575,4.5299,4.4976,4.4779,4.4869,4.4852,4.6108,4.9379,4.9825,5.2034,5.6279,5.6867,5.7159,5.7316,5.7029,5.6153,5.4369,5.4018,5.3519,5.2829,5.1005,4.9444,4.8269,4.6149,4.4394,4.2766,4.2311,4.0995,3.9386,3.9666,3.8424,3.6604,3.5495,3.3809,3.1655,6.4638,0.0,0.0,6.673,0.0,0.0,7.5129,0.0,0.0,9.2927,9.8907,0.0,10.5071,10.7621,10.8709,10.7437,10.7209,0.0,10.4088,0.0,0.0,10.1271,9.8945,9.7247,9.6208,9.1435,0.0,8.6829,0.0,7.893,7.8903,7.5395,7.4832,7.6874,7.8114,8.0045,8.2625,8.8171,9.2711,9.6447,9.9989,10.0964,0.0,10.1681,10.287,10.3939,10.475,10.5297,10.5727,10.5272,10.4286,10.3383,10.3232,10.2191,10.0917,10.0422,9.9685,9.8697,9.7789,9.6268,9.4602,9.3291,9.0871,8.8343,8.5782,8.4738,8.3977,8.265,8.0247,7.7874,7.5954,7.2243,6.7825,0.0,0.0,0.0,0.0,5.1118,4.9014,4.6998,4.7016,4.65,4.5048,4.4626,4.4408,4.437,4.4012,4.4753,4.7087,4.7284,4.9237,5.3257,5.3495,5.4183,5.5199,5.4778,5.3848,5.2794,5.2877,5.2623,5.1865,5.0417,4.9366,4.8377,4.5933,4.4195,4.306,4.2394,4.1038,3.9551,3.882,3.7501,3.5574,3.5316,3.3949,3.2035,0.0,0.0,0.0,0.0,0.0,0.0,0.0,8.3217,0.0,9.4763,0.0,10.4788,10.5231,10.8485,11.0195,10.8872,0.0,10.7626,10.5405,10.5723,10.531,10.3923,10.3617,10.2676,10.0782,9.7195,0.0,0.0,0.0,8.1322,8.0202,7.6464,7.5598,7.7203,7.8332,8.019,0.0,8.9815,9.4046,9.6399,10.1771,10.3694,10.3372,10.4033,10.5803,10.7554,10.5189,10.4529,10.4959,10.5868,10.5039,10.3828,10.3521,10.2934,10.2409,10.1622,10.0545,9.9485,9.8798,9.7338,9.6007,9.5905,9.4669,9.2999,9.1264,8.9808,8.8295,8.6743,8.3363,8.0649,8.0219,7.541,6.9847,6.4696,5.8866,5.4601,5.3564,5.2139,5.0257,4.7403,4.8366,0.0,4.609,4.5085,4.4408,4.4062,4.4058,4.3947,4.3735,4.4858,4.6643,4.9492,4.9123,5.0064,5.2457,5.1257,5.0663,5.0679,5.1043,5.1082,5.0704,4.9819,4.9079,4.7951,4.5607,4.4135,4.3396,4.2196,4.0839,3.9591,3.7792,3.6347,3.508,3.48,3.4002,3.2697,0.0,0.0,0.0,0.0,0.0,8.2581,8.7031,9.2881,9.8102,10.1783,10.618,10.9023,10.9268,11.1167,11.1906,11.073,11.0413,0.0,0.0,0.0,0.0,10.6609,10.6536,10.5509,10.3467,10.16,9.9375,0.0,0.0,8.5769,8.4337,7.8814,7.7211,7.904,7.9453,8.2285,8.6792,9.1204,9.4138,9.6303,10.1567,10.3659,10.3477,10.4962,10.5854,10.6448,10.6781,10.7272,10.7446,10.6042,10.5144,10.4419,10.4263,10.3452,10.2416,10.278,10.1681,10.0377,10.0206,9.9146,9.7672,9.6574,9.5561,9.4596,9.3162,9.143,9.0064,8.987,8.5726,8.1967,8.0646,7.4722,6.9077,6.6095,6.1438,5.7957,5.7825,5.3541,5.0947,5.2277,5.1058,5.009,4.9961,4.6515,4.4258,4.3949,4.3713,4.3739,4.4029,4.43,4.5737,4.8295,4.8284,4.9359,5.1877,5.1199,5.0993,5.1119,5.126,5.0942,5.0327,5.0202,4.9351,4.7951,4.6049,4.4427,4.3704,4.2031,4.0632,3.9118,3.7107,3.6112,3.5843,3.4035,3.2624,3.1963,0.0,0.0,0.0,0.0,0.0,0.0,0.0,9.9552,10.3916,10.4606,10.7211,10.9111,10.9193,11.1199,11.2183,11.1486,11.132,11.1214,11.1397,11.0538,10.9812,10.9071,10.8705,10.7451,10.5399,10.3977,10.1988,9.9535,9.3686,8.9276,8.6093,8.2673,8.0417,7.9318,8.091,8.4263,8.8947,9.1296,9.4773,9.8944,10.1749,10.3583,10.4689,10.5354,10.5994,10.6558,10.7047,10.7808,10.8514,10.7408,10.618,10.5091,10.5091,10.4177,10.3126,10.3092,10.2178,10.1094,10.0308,9.922,9.8001,9.6758,9.5655,9.4613,9.3499,9.222,9.0909,9.0477,8.7721,8.4471,8.1694,7.6182,7.1313,6.8542,6.3773,5.9692,5.7561,5.4527,5.2619,5.2709,5.2149,5.1269,5.0222,4.7422,4.5495,4.4992,4.4294,4.4018,4.4194,4.429,4.5448,4.7839,4.7733,4.8557,5.0828,5.0512,5.0413,5.0179,5.0936,5.0689,4.9879,4.9708,4.9122,4.8003,4.5581,4.4403,4.3748,4.1646,3.992,3.84,3.6885,3.5855,3.5327,3.3516,3.2334,3.1645,0.0,7.8142,0.0,0.0,8.7475,9.3704,9.8099,10.4328,10.8104,10.6697,10.7904,10.9005,10.9118,11.0969,11.2243,11.2169,11.1926,11.1999,11.2579,11.1756,11.119,11.0773,11.0225,10.882,10.647,10.5707,10.3795,0.0,9.6429,9.1723,8.69,8.5845,8.3844,8.1087,8.3768,8.7256,9.1031,9.255,9.647,10.1572,10.2528,10.4103,10.5959,10.5889,10.6523,10.7238,10.7216,10.8023,10.8954,10.8549,10.7443,10.6057,10.5796,10.4929,10.4119,10.3344,10.2597,10.1587,10.0397,9.9105,9.7809,9.6984,9.554,9.4221,9.3519,9.2528,9.1506,9.0574,8.8959,8.6558,8.2709,7.8673,7.4868,7.1783,6.6897,6.2294,5.9078,5.6762,5.5073,5.3725,5.3775,5.3084,5.041,4.8968,4.7454,4.6145,4.5068,4.4375,4.4078,4.4222,4.535,4.7579,4.7501,4.8121,4.9977,5.016,4.9737,4.9194,5.0449,5.0397,4.9162,4.9126,4.852,4.7614,4.5197,4.3957,4.3215,4.0937,3.9155,3.7876,3.6616,3.5585,3.48,3.3257,3.2293,3.1287,0.0,0.0,0.0,0.0,0.0,10.0737,10.0895,10.7241,11.1601,11.0522,11.113,11.1692,11.2088,11.2306,11.2584,11.2982,11.2651,11.2808,11.3387,11.2509,11.1504,11.0627,11.0894,10.9651,10.6155,10.7445,10.5523,10.034,9.7065,9.2721,8.7226,8.6501,8.657,8.743,8.985,9.2171,9.4444,9.7716,10.0273,10.2563,10.4505,10.5691,10.6407,10.7227,10.7617,10.781,10.8549,10.892,10.9023,10.8954,10.8368,10.7449,10.6476,10.5595,10.4853,10.4499,10.3166,10.1859,10.1689,9.9787,9.7587,9.752,9.5903,9.4301,9.3858,9.2894,9.1986,9.154,8.8939,8.6005,8.3376,8.1628,7.939,7.6138,7.1909,6.8601,6.7229,6.2292,5.8993,5.9245,5.8324,5.6284,5.2889,5.1963,5.0226,4.695,4.5323,4.4263,4.3614,4.4358,4.5697,4.7488,4.7418,4.8554,5.1007,5.0271,5.0072,5.0202,4.97,4.9346,4.8751,4.8506,4.7635,4.6789,4.5082,4.2697,4.0442,3.9678,3.8924,3.8132,3.6616,3.5585,3.48,3.2728,3.1417,3.029,0.0,0.0,0.0,0.0,0.0,10.2925,10.6543,11.0485,11.2961,11.3038,11.3112,11.3403,11.3866,11.3696,11.3631,11.3622,11.3397,11.3477,11.4305,11.3773,11.3222,11.2686,11.2146,11.1336,10.9704,10.8908,10.701,10.3983,10.1015,9.5858,8.8905,8.9162,8.9003,8.8787,9.1511,9.4048,9.6429,9.8451,10.0649,10.3093,10.4252,10.4906,10.5479,10.7074,10.7601,10.7498,10.8562,10.9023,10.9023,10.9023,10.8414,10.737,10.6453,10.5447,10.4417,10.3813,10.3049,10.2055,10.1453,10.0304,9.8818,9.726,9.6029,9.4847,9.4186,9.3045,9.2191,9.2171,8.9296,8.6246,8.4585,8.2481,8.0127,7.7092,7.3141,6.9678,6.7293,6.3109,6.0128,5.9627,5.8152,5.6118,5.3205,5.1417,4.9415,4.7095,4.5743,4.4926,4.4208,4.49,4.5587,4.6434,4.6387,4.7564,5.0072,4.9936,5.0205,5.0807,5.0862,5.0417,4.9513,4.8152,4.6505,4.4526,4.3929,4.2205,4.0187,3.9933,3.8899,3.7363,3.637,3.5327,3.4261,3.2717,3.096,2.9647,9.6614,9.705,9.8591,10.1518,10.3711,10.6565,11.0866,11.3,11.4197,11.4711,11.4739,11.4728,11.4825,11.4408,11.4212,11.4221,11.4154,11.4305,11.5112,11.4616,11.4225,11.4108,11.3019,11.2219,11.1805,10.9969,10.8292,10.6724,10.409,9.9232,9.2285,9.2612,9.2763,9.2917,9.5306,9.7667,9.9893,10.0326,10.1964,10.4326,10.4279,10.4724,10.5339,10.676,10.7323,10.7533,10.839,10.8724,10.8931,10.8931,10.8135,10.733,10.6944,10.574,10.4306,10.3702,10.2936,10.2074,10.1241,10.058,9.9452,9.7256,9.6114,9.5252,9.4246,9.3244,9.2393,9.1941,8.92,8.6574,8.5495,8.3194,8.0693,7.8382,7.4573,7.1015,6.847,6.4999,6.1927,5.9773,5.8429,5.6295,5.2714,5.0794,4.911,4.7144,4.6329,4.5587,4.4651,4.51,4.5691,4.6125,4.624,4.7838,5.0834,5.1164,5.1458,5.1853,5.1986,5.1543,5.0119,4.7893,4.5787,4.3971,4.2949,4.1445,4.0175,3.941,3.84,3.7107,3.6112,3.5058,3.3485,3.2468,3.1019,2.9522,10.4274,10.5588,10.6903,10.9418,11.1897,11.3406,11.3113,11.4495,11.5568,11.5809,11.5799,11.5503,11.4725,11.4188,11.4221,11.5031,11.4873,11.5112,11.5883,11.4794,11.4108,11.4108,11.2825,11.1696,11.09,11.0568,10.9376,10.7314,10.572,10.2425,9.768,9.6625,9.827,10.1967,10.2785,10.413,10.549,10.4862,10.5278,10.6688,10.558,10.5608,10.6267,10.6494,10.7025,10.7671,10.7927,10.815,10.8479,10.8479,10.7926,10.7567,10.783,10.6642,10.5156,10.4799,10.3356,10.1881,10.1881,10.0552,9.8881,9.7475,9.645,9.5445,9.3626,9.3426,9.297,9.0773,8.8559,8.6845,8.6062,8.399,8.2092,8.0993,7.7358,7.4178,7.2716,6.9281,6.5209,6.0478,5.9954,5.7679,5.1575,5.0986,4.9955,4.7393,4.7023,4.6301,4.4841,4.5251,4.6197,4.7601,4.8257,5.0376,5.404,5.4724,5.459,5.3255,5.2815,5.1726,4.9912,4.7387,4.6211,4.5961,4.1938,4.0187,3.9945,3.7876,3.7107,3.7095,3.5574,3.4283,3.2966,3.2198,3.1019,2.955,10.7316,10.8224,10.9248,11.1016,11.2511,11.3673,11.449,11.5493,11.6234,11.6087,11.6269,11.6356,11.5923,11.571,11.5568,11.5681,11.5754,11.5864,11.6483,11.5504,11.4777,11.4753,11.4105,11.3399,11.2602,11.1887,11.0983,10.9813,10.7248,10.3348,9.8585,9.87,9.9136,9.985,10.3137,10.4399,10.4048,10.4675,10.4877,10.4877,10.5046,10.5215,10.5339,10.6168,10.6906,10.7429,10.7768,10.815,10.8479,10.8479,10.7961,10.74,10.7601,10.6622,10.5341,10.3964,10.3225,10.2455,10.1554,10.0819,9.9947,9.7987,9.7092,9.6317,9.4966,9.4056,9.2962,9.1049,8.8959,8.7096,8.6184,8.4268,8.2541,8.1627,7.8264,7.5164,7.3619,6.9209,6.4657,6.0686,5.9722,5.8015,5.418,5.4079,5.3672,5.2541,5.0885,4.8539,4.5222,4.589,4.6985,4.8063,4.8535,5.0095,5.3043,5.4101,5.4168,5.3457,5.3115,5.1138,4.7819,4.6255,4.4975,4.3943,4.1739,4.0503,4.0175,3.8206,3.6966,3.6358,3.5339,3.4035,3.2198,3.2208,3.0336,2.8436,11.032,11.0931,11.1503,11.3001,11.4196,11.509,11.5441,11.6735,11.7349,11.6799,11.7243,11.7368,11.7223,11.7223,11.7022,11.647,11.6177,11.6231,11.6791,11.5832,11.5105,11.4884,11.4368,11.395,11.3957,11.2771,11.2302,11.241,10.9354,10.6227,10.2785,10.3235,10.3161,10.2674,10.5321,10.5924,10.5137,10.5404,10.5292,10.4906,10.532,10.5234,10.5259,10.5737,10.6215,10.6648,10.7036,10.738,10.768,10.7988,10.7698,10.7134,10.7134,10.6729,10.5853,10.4404,10.3363,10.2559,10.1417,10.0813,10.0006,9.7753,9.7185,9.6802,9.536,9.4112,9.2754,9.1114,8.936,8.7646,8.6484,8.4548,8.2887,8.199,7.8619,7.5569,7.4232,6.9455,6.4595,6.1219,5.9765,5.8055,5.5595,5.5649,5.5777,5.5245,5.3405,5.1267,4.9096,4.888,4.9596,5.1381,5.2019,5.3468,5.605,5.6599,5.6152,5.5,5.361,5.1061,4.7544,4.6255,4.5082,4.3872,4.1673,4.0224,3.9514,3.7684,3.6465,3.5574,3.4811,3.3257,3.1938,3.1688,3.0123,2.8274,11.3323,11.3558,11.401,11.5391,11.6761,11.7301,11.6217,11.8022,11.8995,11.781,11.8309,11.8732,11.8379,11.8416,11.8122,11.7425,11.6617,11.6414,11.6901,11.5846,11.5215,11.4994,11.397,11.4022,11.5016,11.337,11.3193,11.4631,11.1853,11.0216,10.9467,10.9231,10.9147,10.9091,10.8658,10.8146,10.7669,10.681,10.6345,10.6267,10.6004,10.5924,10.5808,10.5119,10.5161,10.5555,10.6029,10.6278,10.638,10.7094,10.71,10.6934,10.6934,10.6866,10.6596,10.5651,10.4001,10.2524,10.1572,10.0628,9.9273,9.7074,9.6963,9.689,9.4959,9.3654,9.2566,9.1271,8.9747,8.8191,8.7005,8.4963,8.3221,8.2219,7.8908,7.584,7.4439,6.9635,6.5368,6.2332,6.0512,5.8605,5.6437,5.6613,5.6796,5.6232,5.5099,5.4716,5.5722,5.3749,5.3818,5.6456,5.7263,5.8902,6.1666,6.0944,5.9363,5.7272,5.421,5.1341,4.8917,4.6864,4.5831,4.4814,4.1673,3.9489,3.853,3.6733,3.5585,3.5058,3.3527,3.2478,3.1938,3.1157,2.9853,2.8779,11.412,11.4683,11.5386,11.7147,11.7624,11.7896,11.8515,11.8366,11.8337,11.8456,11.8492,11.8509,11.8379,11.8416,11.8599,11.9003,11.8306,11.8007,11.8291,11.6953,11.5991,11.5456,11.5246,11.4739,11.3805,11.3644,11.3474,11.3013,11.1853,11.142,11.1331,11.0689,10.9696,10.8622,10.9151,10.8246,10.6739,10.7083,10.6723,10.6004,10.5889,10.5657,10.5119,10.5035,10.5006,10.5239,10.5286,10.5868,10.6278,10.6482,10.6526,10.6527,10.6527,10.622,10.5948,10.5073,10.4434,10.3658,10.1593,10.0852,10.0136,9.785,9.6466,9.5387,9.4339,9.3558,9.2807,9.1712,9.0161,8.8685,8.7343,8.6074,8.4499,8.2183,7.9439,7.6593,7.3862,6.8941,6.5075,6.3707,6.2689,6.1717,6.0531,6.1346,6.1835,6.1604,5.9668,5.8808,5.9858,6.0045,5.9611,5.8452,5.8639,5.9198,6.0502,6.0551,5.8941,5.5621,5.3801,5.1084,4.7708,4.5651,4.4292,4.3151,4.0591,3.8998,3.8023,3.5838,3.516,3.4833,3.2998,3.2208,3.1938,3.1157,2.9601,2.803,11.5545,11.6359,11.7314,11.8581,11.8891,11.8997,11.9202,11.9191,11.9229,11.9154,11.9722,12.0104,12.0104,12.0398,12.0802,12.1279,11.9517,11.852,11.8776,11.7682,11.6828,11.626,11.6121,11.5982,11.5801,11.5665,11.5169,11.4631,11.3981,11.3517,11.3092,11.2519,11.1444,10.9996,10.9919,10.9227,10.7925,10.753,10.6878,10.6343,10.5645,10.5237,10.4917,10.5143,10.5057,10.4544,10.4978,10.5551,10.6147,10.5716,10.6123,10.6828,10.6355,10.5978,10.5739,10.5027,10.4554,10.371,10.1668,10.0651,9.9831,9.7525,9.5691,9.4339,9.3712,9.3207,9.2636,9.1658,9.0537,8.9269,8.7926,8.611,8.4302,8.2152,7.879,7.583,7.3501,6.8871,6.5417,6.4827,6.3759,6.2889,6.2561,6.3721,6.4154,6.3461,6.2515,6.2201,6.3246,6.3317,6.2539,6.0771,6.1264,6.1683,6.2175,6.1486,5.8808,5.4694,5.4175,5.1288,4.6753,4.5161,4.3508,4.1826,3.9679,3.8314,3.7441,3.5639,3.469,3.4035,3.2478,3.1698,3.1437,3.0655,2.961,2.8328,11.7005,11.8226,11.9318,11.9895,12.0281,12.0221,11.9284,12.0073,12.0471,11.9884,12.1095,12.2086,12.2086,12.2784,12.3298,12.3298,12.0691,11.9216,11.9359,11.8521,11.7675,11.7238,11.6781,11.7217,11.8445,11.7688,11.7147,11.7147,11.6285,11.5531,11.4631,11.4161,11.3253,11.197,11.0893,11.0159,10.9751,10.7893,10.7147,10.6821,10.5466,10.4797,10.4866,10.5298,10.4758,10.3974,10.4802,10.5428,10.5744,10.4909,10.5747,10.696,10.5974,10.5701,10.5561,10.5248,10.4392,10.3304,10.1865,10.0569,9.9096,9.6763,9.5084,9.3867,9.3361,9.2789,9.2084,9.1299,9.0579,8.9487,8.8054,8.5642,8.3462,8.1824,7.7639,7.434,7.3154,6.8922,6.5844,6.5753,6.4618,6.3709,6.3624,6.4947,6.5447,6.4107,6.4483,6.5118,6.5964,6.5066,6.4058,6.2865,6.3963,6.4231,6.3966,6.2149,5.8952,5.416,5.4351,5.1676,4.6131,4.5075,4.3358,4.1128,3.8882,3.7453,3.6546,3.5238,3.4035,3.2998,3.1948,3.1427,3.0896,3.0123,2.9339,2.8608,11.7283,11.8797,11.997,12.0993,12.0913,12.077,12.1107,12.0574,12.0351,12.0581,12.1499,12.2086,12.2086,12.2784,12.3298,12.3298,12.282,12.2441,12.1949,12.049,11.9421,11.8515,11.7794,11.7435,11.7364,11.7292,11.7038,11.6375,11.5847,11.5594,11.5566,11.4214,11.3234,11.2552,11.1589,11.0768,10.9751,10.8488,10.7519,10.6503,10.5109,10.428,10.4208,10.4929,10.426,10.3244,10.4315,10.4211,10.3663,10.4136,10.447,10.4754,10.5221,10.5107,10.4823,10.4394,10.3862,10.3309,10.2442,10.0733,9.865,9.6581,9.5493,9.4548,9.3747,9.251,9.1299,9.0774,8.9703,8.8419,8.6742,8.5105,8.3208,8.1087,7.6177,7.2693,7.3075,6.8398,6.5592,6.673,6.6746,6.6393,6.5469,6.6383,6.6984,6.657,6.7187,6.7351,6.7093,6.6637,6.5572,6.3725,6.4167,6.3468,6.1561,6.0536,5.8077,5.3734,5.376,5.0918,4.5473,4.4352,4.2586,4.0331,3.8671,3.7138,3.6044,3.4013,3.3247,3.2728,3.0906,3.0384,3.0896,3.0123,2.9087,2.8056,11.8208,12.0202,12.1742,12.1914,12.2185,12.227,12.1698,12.1254,12.1154,12.1462,12.1866,12.238,12.3298,12.3701,12.4105,12.4582,12.4582,12.442,12.3772,12.1876,12.0585,12.0355,11.9166,11.8443,11.8222,11.7578,11.7181,11.7203,11.6492,11.609,11.5807,11.483,11.3819,11.2611,11.1954,11.1155,11.0147,10.8567,10.7443,10.6735,10.4919,10.4105,10.4119,10.4556,10.4373,10.3915,10.3966,10.446,10.4943,10.39,10.4488,10.5563,10.4846,10.4725,10.4454,10.3881,10.3196,10.2543,10.1955,10.03,9.8451,9.718,9.5485,9.3872,9.3769,9.1566,8.954,8.9569,8.8509,8.7082,8.5705,8.4475,8.2947,8.0797,7.6655,7.3429,7.2568,6.9326,6.7333,6.8037,6.8465,6.848,6.7906,6.8734,6.9056,6.8143,6.8528,6.8616,6.7554,6.6576,6.5734,6.4594,6.3538,6.2221,6.0476,5.9553,5.7173,5.2771,5.2399,4.9444,4.4137,4.3386,4.1817,3.9853,3.7842,3.6523,3.609,3.4283,3.2987,3.2468,3.1437,3.0655,3.0394,3.0142,2.961,2.8861,11.9012,12.1259,12.2918,12.2273,12.299,12.3194,12.2013,12.2117,12.238,12.238,12.249,12.3077,12.4399,12.4693,12.4986,12.5573,12.5647,12.5491,12.5158,12.3262,12.2003,12.1766,12.0426,11.9586,11.9397,11.8258,11.7573,11.7816,11.6881,11.6263,11.5691,11.4952,11.394,11.2494,11.1963,11.1303,11.0433,10.8851,10.7758,10.6943,10.5067,10.4167,10.3837,10.4339,10.4452,10.4358,10.4048,10.4873,10.6089,10.4192,10.4932,10.6324,10.5042,10.4703,10.4735,10.3867,10.282,10.1757,10.1213,10.0074,9.8684,9.7499,9.5137,9.315,9.3072,9.0485,8.8037,8.8099,8.7355,8.6108,8.4747,8.3737,8.2583,8.1118,7.7346,7.4228,7.3017,7.0669,6.8997,6.9353,6.9729,6.9889,6.9984,7.0897,7.095,6.9239,6.9651,6.9432,6.7964,6.6426,6.5144,6.4594,6.27,6.114,6.0012,5.8742,5.604,5.1964,5.1188,4.7974,4.3326,4.2413,4.0983,3.944,3.7245,3.6347,3.6101,3.4541,3.3247,3.1938,3.1698,3.0906,2.9591,2.9591,2.961,2.9386,11.9294,12.0874,12.2059,12.1716,12.2104,12.2469,12.2396,12.2831,12.3188,12.3188,12.3885,12.4399,12.4509,12.517,12.5573,12.5684,12.5519,12.547,12.5887,12.4838,12.3611,12.2452,12.0991,12.0185,12.0185,11.9133,11.8268,11.7476,11.6499,11.5762,11.5377,11.3657,11.26,11.2103,11.1043,11.0573,11.0538,10.9757,10.8327,10.6712,10.5858,10.4622,10.3244,10.383,10.394,10.385,10.4363,10.4707,10.4869,10.5021,10.5254,10.5358,10.5984,10.5885,10.5339,10.4321,10.2971,10.1502,10.0435,10.0506,9.9955,9.652,9.4654,9.3442,9.1279,8.9366,8.7869,8.6401,8.6488,8.6351,8.4207,8.2792,8.1871,8.2375,7.7491,7.3872,7.5042,7.1737,6.9732,7.0908,7.0675,7.0578,7.1006,7.2138,7.1828,6.9678,7.0954,7.068,6.7938,6.683,6.4746,6.2042,6.1341,6.0678,6.0012,5.7778,5.4926,5.1659,4.9909,4.699,4.3326,4.1924,4.0639,3.9162,3.7672,3.6616,3.6101,3.4541,3.3226,3.1938,3.1167,3.0123,2.8816,2.8816,2.8554,2.8047,11.9466,12.1281,12.2488,12.1661,12.3065,12.3951,12.2825,12.3169,12.3456,12.3456,12.2808,12.26,12.3591,12.3995,12.4399,12.4876,12.5226,12.5506,12.5997,12.5459,12.4518,12.2912,12.1427,12.0621,12.0626,11.8947,11.7896,11.7843,11.6944,11.6107,11.5141,11.4458,11.3256,11.1864,11.1463,11.068,10.9826,10.94,10.8092,10.6304,10.5415,10.4144,10.3049,10.2773,10.3048,10.3458,10.4166,10.4503,10.4741,10.5364,10.5669,10.5732,10.5601,10.556,10.5233,10.3112,10.2037,10.1251,9.9957,10.0113,10.0083,9.7495,9.5123,9.3179,9.254,8.8855,8.5499,8.4821,8.4226,8.3373,8.2186,8.2532,8.2971,8.2469,8.0505,7.8274,7.6574,7.4079,7.2373,7.2244,7.2257,7.2519,7.3193,7.3699,7.3203,7.1649,7.154,7.0518,6.8468,6.6186,6.442,6.2919,6.1602,6.0596,5.9736,5.6843,5.3795,5.0501,4.8338,4.5277,4.1069,4.0852,3.9869,3.8624,3.7138,3.6358,3.6101,3.4541,3.3247,3.1938,3.1688,3.0375,2.8807,2.8807,2.8283,2.7767,11.9624,12.1288,12.2435,12.1514,12.3176,12.4247,12.2805,12.3227,12.3648,12.3626,12.2697,12.238,12.3188,12.3812,12.4142,12.441,12.4841,12.5439,12.5818,12.557,12.4916,12.3663,12.1931,12.1094,12.1162,11.9153,11.8137,11.8224,11.7171,11.605,11.4515,11.4184,11.2946,11.1202,11.1081,11.0575,10.9906,11.0013,10.8907,10.7056,10.6409,10.5128,10.337,10.2344,10.2487,10.353,10.3934,10.4588,10.5443,10.5828,10.6181,10.6353,10.5701,10.546,10.4846,10.2081,10.1445,10.1351,9.9181,9.9508,9.9957,9.8031,9.5146,9.2835,9.2894,8.8815,8.4849,8.4167,8.3941,8.3553,8.1799,8.3145,8.4247,8.3439,8.2792,8.1363,7.8488,7.6752,7.5534,7.4784,7.4144,7.4032,7.4906,7.4544,7.3831,7.2682,7.1775,7.0373,6.791,6.565,6.3987,6.3355,6.1802,6.0453,5.9785,5.5941,5.2604,4.9527,4.687,4.3797,4.0083,3.9994,3.9339,3.7995,3.6954,3.6238,3.5912,3.4738,3.3394,3.213,3.1467,3.0123,2.8554,2.8554,2.803,2.7251,11.9911,12.0887,12.1404,12.1007,12.2048,12.2584,12.2183,12.2978,12.3515,12.3261,12.3995,12.4215,12.3408,12.4693,12.529,12.4182,12.4636,12.5126,12.557,12.528,12.5131,12.4796,12.2835,12.1817,12.1474,12.0142,11.8935,11.8224,11.6851,11.5291,11.3775,11.2644,11.1633,11.0538,11.0175,11.0155,11.0737,11.1912,11.1116,10.9122,10.9088,10.7294,10.4532,10.2584,10.2823,10.4102,10.4159,10.5297,10.6655,10.6428,10.6668,10.7135,10.6418,10.5573,10.4377,10.168,10.1542,10.1759,9.8347,9.889,9.9781,9.7631,9.4976,9.2659,9.1708,8.9425,8.6709,8.4521,8.6597,8.763,8.3968,8.4511,8.5697,8.5467,8.4118,8.257,8.0999,7.971,7.8941,7.8616,7.6035,7.4799,7.5829,7.4865,7.3723,7.1959,7.1913,7.0155,6.6378,6.5047,6.3987,6.27,6.1581,6.0453,5.9746,5.5016,5.1455,4.879,4.5627,4.2887,4.0344,3.9891,3.9023,3.7782,3.7292,3.6784,3.6123,3.4836,3.3731,3.2575,3.0558,2.9087,2.7776,2.7776,2.7251,2.6717,12.0021,12.0721,12.1181,12.0934,12.2104,12.3083,12.3243,12.3368,12.3832,12.4398,12.3614,12.3121,12.3334,12.3953,12.4227,12.4109,12.4428,12.4807,12.528,12.5131,12.4796,12.4455,12.3836,12.3103,12.1948,12.0808,11.9668,11.8684,11.7544,11.6298,11.5069,11.4456,11.3649,11.251,11.1057,11.1049,11.1912,11.1671,11.1238,11.066,10.9305,10.7441,10.5377,10.3733,10.2994,10.3161,10.4741,10.522,10.5458,10.655,10.6719,10.6071,10.4664,10.3919,10.3333,10.0966,10.0519,10.0744,9.9925,9.9459,9.9096,9.7528,9.5577,9.3625,9.2747,9.0076,8.7145,8.5394,8.5336,8.5029,8.3471,8.439,8.5196,8.5038,8.5016,8.4032,8.1655,8.0325,7.9099,7.7506,7.5911,7.5136,7.5379,7.4361,7.3388,7.2471,7.1375,6.9412,6.6904,6.5563,6.4346,6.27,6.1581,6.0052,5.8643,5.4658,5.1321,4.8697,4.5757,4.2636,3.961,4.006,3.9316,3.7552,3.7021,3.6205,3.5064,3.3994,3.2565,3.0759,3.0247,2.8825,2.6971,2.6971,2.647,2.5911,12.0314,12.1087,12.1602,12.1448,12.2621,12.3527,12.3478,12.3456,12.3566,12.4154,12.3551,12.3093,12.3236,12.3889,12.4234,12.3869,12.404,12.4265,12.4625,12.4402,12.4065,12.365,12.3857,12.3445,12.1948,12.1209,12.0278,11.9256,11.8429,11.7213,11.5787,11.5348,11.4308,11.2655,11.1245,11.1211,11.2176,11.2053,11.2163,11.23,11.0452,10.8587,10.6731,10.4567,10.332,10.3183,10.4946,10.5244,10.5026,10.6101,10.6031,10.4954,10.2984,10.3047,10.3151,10.0312,10.0392,10.1321,10.067,10.0037,9.9436,9.836,9.6032,9.4032,9.3859,9.1016,8.8146,8.66,8.6024,8.5472,8.3934,8.4934,8.5796,8.5358,8.5444,8.4975,8.2691,8.1177,7.9684,7.8025,7.6395,7.5214,7.488,7.386,7.2975,7.2035,7.0497,6.8765,6.669,6.5362,6.4035,6.246,6.0456,5.9101,5.8225,5.4213,5.0802,4.8348,4.5423,4.2399,3.9386,4.0327,3.9737,3.767,3.7037,3.6154,3.4982,3.3614,3.1895,3.0269,2.9713,2.8554,2.7242,2.7242,2.6717,2.6182,12.0934,12.1728,12.2338,12.216,12.3169,12.3801,12.3505,12.3408,12.3408,12.3518,12.3844,12.4027,12.3628,12.4466,12.4745,12.3809,12.39,12.3901,12.3569,12.3605,12.3267,12.2585,12.3337,12.3019,12.1743,12.1377,12.0706,11.9592,11.9181,11.8065,11.6411,11.5656,11.4217,11.2089,11.1223,11.1325,11.2118,11.277,11.3564,11.4234,11.2284,11.0341,10.8545,10.5628,10.4201,10.3843,10.4897,10.5227,10.5158,10.5378,10.5011,10.3993,10.188,10.2774,10.364,9.9814,10.0721,10.2712,10.0874,10.0658,10.0704,9.9486,9.6557,9.4067,9.5024,9.2358,8.9279,8.7691,8.807,8.788,8.4969,8.604,8.6869,8.5937,8.573,8.5128,8.3604,8.1844,8.0422,7.9263,7.715,7.5429,7.431,7.364,7.2542,7.0977,6.9888,6.8131,6.582,6.4925,6.3417,6.1381,5.8917,5.7569,5.7814,5.359,5.0318,4.8093,4.5655,4.2745,3.9789,4.0607,4.0047,3.7964,3.7164,3.6356,3.5154,3.3341,3.1828,3.0191,2.9225,2.8301,2.7548,2.7794,2.7242,2.6691,12.1742,12.2036,12.233,12.2894,12.3442,12.3832,12.424,12.4215,12.4399,12.5096,12.4914,12.4812,12.5133,12.4818,12.4547,12.4611,12.4191,12.3901,12.3569,12.338,12.2967,12.2585,12.2601,12.2162,12.1306,12.1183,12.0706,11.9592,11.8893,11.8334,11.8019,11.7362,11.6066,11.4376,11.2732,11.2617,11.3628,11.2743,11.3836,11.5655,11.3556,11.1641,11.0086,10.7979,10.6271,10.5332,10.5718,10.5952,10.5841,10.5527,10.4921,10.4336,10.2406,10.1958,10.1818,10.0895,10.0925,10.1271,10.1461,10.1029,10.0163,9.9115,9.6965,9.5348,9.517,9.3548,9.159,8.958,8.8738,8.7863,8.6242,8.604,8.5999,8.5891,8.5182,8.4195,8.2855,8.1235,7.9655,7.8009,7.6407,7.4874,7.4245,7.3003,7.1672,7.0347,6.998,6.7775,6.3342,6.4318,6.2334,5.7061,5.8288,5.7779,5.5031,5.284,5.1067,4.9557,4.7073,4.4628,4.2226,4.1907,4.0617,3.8493,3.7693,3.6165,3.3793,3.2263,3.0848,2.9053,2.8243,2.7337,2.6398,2.6937,2.6487,2.5755,12.1976,12.2674,12.3371,12.3812,12.4277,12.4742,12.4986,12.4923,12.5033,12.561,12.5141,12.5111,12.5519,12.4793,12.4407,12.4479,12.4156,12.3716,12.338,12.2967,12.2737,12.2387,12.2305,12.1948,12.1183,12.1183,12.0759,11.987,11.9291,11.8764,11.8215,11.7412,11.5837,11.3804,11.2272,11.2353,11.3255,11.2505,11.3452,11.5545,11.3863,11.2092,11.037,10.9102,10.7384,10.577,10.643,10.6441,10.6136,10.5722,10.5167,10.4477,10.2222,10.1958,10.2129,10.1271,10.0987,10.0925,10.1475,10.0883,9.9823,9.8759,9.7609,9.6296,9.4781,9.3337,9.1676,9.0114,8.8965,8.7809,8.6783,8.6682,8.6409,8.5915,8.5126,8.4295,8.2855,8.0683,7.8852,7.7703,7.5784,7.4253,7.3382,7.1619,7.0292,7.0003,6.9783,6.7878,6.4694,6.4414,6.2638,5.8367,5.7872,5.6817,5.4514,5.2744,5.1424,5.0589,4.7197,4.5093,4.4145,4.2665,4.1588,4.05,3.8401,3.6176,3.3908,3.2332,3.036,2.847,2.8163,2.7313,2.6597,2.7131,2.6472,2.5802,12.227,12.3481,12.4509,12.4693,12.528,12.5684,12.5684,12.5483,12.5446,12.572,12.528,12.5074,12.5316,12.4761,12.43,12.3974,12.3827,12.3529,12.3081,12.2737,12.2504,12.2186,12.2186,12.1948,12.1183,12.1183,12.0775,12.005,11.9862,11.9017,11.7857,11.7142,11.529,11.2583,11.1597,11.168,11.2709,11.2162,11.3001,11.4705,11.3804,11.2336,11.0337,10.9647,10.8021,10.6177,10.6809,10.6555,10.6067,10.5867,10.5402,10.4701,10.2485,10.2532,10.3042,10.1344,10.1171,10.114,10.1017,10.0258,9.9344,9.8509,9.7876,9.6944,9.442,9.2672,9.1257,9.0101,8.9024,8.8027,8.6835,8.7026,8.7066,8.5954,8.528,8.4225,8.2564,8.0069,7.8174,7.7414,7.5256,7.3516,7.2555,7.0359,6.9226,6.9583,6.9226,6.7871,6.5771,6.4441,6.267,6.0182,5.7669,5.5626,5.418,5.2485,5.1629,5.1027,4.7078,4.5531,4.6085,4.3216,4.2105,4.2609,3.9204,3.6657,3.4866,3.268,3.0713,2.8453,2.8374,2.7829,2.704,2.6973,2.6746,2.6249,12.3004,12.3885,12.4693,12.539,12.5573,12.5684,12.5684,12.572,12.572,12.5684,12.5547,12.5483,12.528,12.4761,12.43,12.3974,12.3827,12.3529,12.3081,12.2737,12.2504,12.2186,12.2186,12.1948,12.1183,12.1183,12.0685,11.9862,11.9436,11.8657,11.7529,11.7814,11.6406,11.3765,11.3044,11.3085,11.3758,11.25,11.3199,11.4973,11.3891,11.2823,11.1509,10.9739,10.8339,10.74,10.6544,10.5754,10.5338,10.5971,10.5487,10.4774,10.4305,10.3756,10.3109,10.2318,10.1464,10.0664,9.9733,9.9017,9.8329,9.7251,9.6821,9.5891,9.3715,9.3057,9.2383,9.0354,8.9404,8.8621,8.6996,8.6422,8.5979,8.5258,8.4277,8.3016,8.1472,7.9581,7.7847,7.6181,7.4016,7.2354,7.1968,7.0602,6.9517,6.8679,6.8339,6.6354,6.2287,6.3124,6.126,5.6022,5.7771,5.6529,5.1988,5.2411,5.1475,4.943,4.7923,4.7946,4.9304,4.4191,4.184,4.1802,3.8913,3.6511,3.4313,3.2741,3.1153,2.9629,2.8748,2.7637,2.6658,2.6086,2.6257,2.6566,12.3224,12.4289,12.528,12.5573,12.5684,12.5684,12.5684,12.5684,12.5684,12.5684,12.562,12.5345,12.528,12.4761,12.43,12.3974,12.3569,12.3267,12.3117,12.2585,12.2269,12.2186,12.2067,12.1707,12.1183,12.1059,12.0433,11.9436,11.9339,11.8524,11.7226,11.6852,11.5548,11.3017,11.2844,11.3051,11.352,11.2967,11.3455,11.4536,11.379,11.2541,11.0761,10.9949,10.8488,10.7175,10.6525,10.6057,10.5772,10.6161,10.5868,10.5115,10.4158,10.3438,10.2543,10.1739,10.0842,9.9766,9.9286,9.8688,9.7876,9.7063,9.6631,9.5664,9.3676,9.3052,9.2418,9.0345,8.9448,8.8433,8.7483,8.6501,8.5835,8.5238,8.3955,8.2445,8.0651,7.8934,7.6975,7.4223,7.2701,7.1583,7.0381,6.9427,6.847,6.7806,6.7551,6.6339,6.3636,6.3382,6.154,5.8303,5.831,5.6708,5.308,5.3393,5.2332,4.9713,4.8793,4.8852,4.9972,4.527,4.315,4.3375,3.9435,3.6511,3.4355,3.2631,3.1015,2.9447,2.8751,2.8165,2.7144,2.697,2.6789,2.6671]},{"header":{"parameterUnit":"m.s-1","parameterCategory":1,"la1":30.6,"la2":28.766,"lo1":-90.7593,"lo2":-88.6598,"dy":0.0162,"dx":0.0183,"nx":116,"ny":114,"refTime":"2023-11-14T06:00:00:Z","depth":0,"parameterNumber":3,"parameterNumberName":"V-component_of_WINDS"},"data":[0.0,0.0,0.0,0.0,0.0,0.0,0.0,0.0,0.0,0.0,0.0,0.0,0.0,0.0,0.0,0.0,0.0,0.0,0.0,0.0,0.0,0.0,0.0,0.0,0.0,0.0,0.0,0.0,0.0,0.0,0.0,0.0,0.0,0.0,0.0,0.0,0.0,0.0,0.0,0.0,0.0,0.0,0.0,0.0,0.0,0.0,0.0,0.0,0.0,0.0,0.0,0.0,0.0,0.0,0.0,0.0,0.0,0.0,0.0,0.0,0.0,0.0,0.0,0.0,0.0,0.0,0.0,0.0,0.0,0.0,0.0,0.0,0.0,0.0,0.0,0.0,0.0,0.0,0.0,0.0,0.0,0.0,0.0,0.0,0.0,0.0,0.0,0.0,0.0,0.0,0.0,0.0,0.0,0.0,0.0,0.0,0.0,0.0,0.0,0.0,0.0,0.0,0.0,0.0,0.0,0.0,0.0,0.0,0.0,0.0,0.0,0.0,0.0,0.0,0.0,0.0,0.0,0.0,0.0,0.0,0.0,0.0,0.0,0.0,0.0,0.0,0.0,0.0,0.0,0.0,0.0,0.0,0.0,0.0,0.0,0.0,0.0,0.0,0.0,0.0,0.0,0.0,0.0,0.0,0.0,0.0,0.0,0.0,0.0,0.0,0.0,0.0,0.0,0.0,0.0,0.0,0.0,0.0,0.0,0.0,0.0,0.0,0.0,0.0,0.0,0.0,0.0,0.0,0.0,0.0,0.0,0.0,0.0,0.0,0.0,0.0,0.0,0.0,0.0,0.0,0.0,0.0,0.0,0.0,0.0,0.0,0.0,0.0,0.0,0.0,0.0,0.0,0.0,0.0,0.0,0.0,0.0,0.0,0.0,0.0,0.0,0.0,0.0,0.0,0.0,0.0,0.0,0.0,0.0,0.0,0.0,0.0,0.0,0.0,0.0,0.0,0.0,0.0,0.0,0.0,0.0,0.0,0.0,0.0,0.0,0.0,0.0,0.0,0.0,0.0,0.0,0.0,0.0,0.0,0.0,0.0,0.0,0.0,0.0,0.0,0.0,0.0,0.0,0.0,0.0,0.0,0.0,0.0,0.0,0.0,0.0,0.0,0.0,0.0,0.0,0.0,0.0,0.0,0.0,0.0,0.0,0.0,0.0,0.0,0.0,0.0,0.0,0.0,0.0,0.0,0.0,0.0,0.0,0.0,0.0,0.0,0.0,0.0,0.0,0.0,0.0,0.0,0.0,0.0,0.0,0.0,0.0,0.0,0.0,0.0,0.0,0.0,0.0,0.0,0.0,0.0,0.0,0.0,0.0,0.0,0.0,0.0,0.0,0.0,0.0,0.0,0.0,0.0,0.0,0.0,0.0,0.0,0.0,0.0,0.0,0.0,0.0,0.0,0.0,0.0,0.0,0.0,0.0,0.0,0.0,0.0,0.0,0.0,0.0,0.0,0.0,0.0,0.0,0.0,0.0,0.0,0.0,0.0,0.0,0.0,0.0,0.0,0.0,0.0,0.0,0.0,0.0,0.0,0.0,0.0,0.0,0.0,0.0,0.0,0.0,0.0,0.0,0.0,0.0,0.0,0.0,0.0,0.0,0.0,0.0,0.0,0.0,0.0,0.0,0.0,0.0,0.0,0.0,0.0,0.0,0.0,0.0,0.0,0.0,0.0,0.0,0.0,0.0,0.0,0.0,0.0,0.0,0.0,0.0,0.0,0.0,0.0,0.0,0.0,0.0,0.0,0.0,0.0,0.0,0.0,0.0,0.0,0.0,0.0,0.0,0.0,0.0,0.0,0.0,0.0,0.0,0.0,0.0,0.0,0.0,0.0,0.0,0.0,0.0,0.0,0.0,0.0,0.0,0.0,0.0,0.0,0.0,0.0,0.0,0.0,0.0,0.0,0.0,0.0,0.0,0.0,0.0,0.0,0.0,0.0,0.0,0.0,0.0,0.0,0.0,0.0,0.0,0.0,0.0,0.0,0.0,0.0,0.0,0.0,0.0,0.0,0.0,0.0,0.0,0.0,0.0,0.0,0.0,0.0,0.0,0.0,0.0,0.0,0.0,0.0,0.0,0.0,0.0,0.0,0.0,0.0,0.0,0.0,0.0,0.0,0.0,0.0,0.0,0.0,0.0,0.0,0.0,0.0,0.0,0.0,0.0,0.0,0.0,0.0,0.0,0.0,0.0,0.0,0.0,0.0,0.0,0.0,0.0,0.0,0.0,0.0,0.0,0.0,0.0,0.0,0.0,0.0,0.0,0.0,0.0,0.0,0.0,0.0,0.0,0.0,0.0,0.0,0.0,0.0,0.0,0.0,0.0,0.0,0.0,0.0,0.0,0.0,0.0,0.0,0.0,0.0,0.0,0.0,0.0,0.0,0.0,0.0,0.0,0.0,0.0,0.0,0.0,0.0,0.0,0.0,0.0,0.0,0.0,0.0,0.0,0.0,0.0,0.0,0.0,0.0,0.0,0.0,0.0,0.0,0.0,0.0,0.0,0.0,0.0,0.0,0.0,0.0,0.0,0.0,0.0,0.0,0.0,0.0,0.0,0.0,0.0,0.0,0.0,0.0,0.0,0.0,0.0,0.0,0.0,0.0,0.0,0.0,0.0,0.0,0.0,0.0,0.0,0.0,0.0,0.0,0.0,0.0,0.0,0.0,0.0,0.0,0.0,0.0,0.0,0.0,0.0,0.0,0.0,0.0,0.0,0.0,0.0,0.0,0.0,0.0,0.0,0.0,0.0,0.0,0.0,0.0,0.0,0.0,0.0,0.0,0.0,0.0,0.0,0.0,0.0,0.0,0.0,0.0,0.0,0.0,0.0,0.0,0.0,0.0,0.0,0.0,0.0,0.0,0.0,0.0,0.0,0.0,0.0,0.0,0.0,0.0,0.0,0.0,0.0,0.0,0.0,0.0,0.0,0.0,0.0,0.0,0.0,0.0,0.0,0.0,0.0,0.0,0.0,0.0,0.0,0.0,0.0,0.0,0.0,0.0,0.0,0.0,0.0,0.0,0.0,0.0,0.0,0.0,0.0,0.0,0.0,0.0,0.0,0.0,0.0,0.0,0.0,0.0,0.0,0.0,0.0,0.0,0.0,0.0,0.0,0.0,0.0,0.0,0.0,0.0,0.0,0.0,0.0,0.0,0.0,0.0,0.0,0.0,0.0,0.0,0.0,0.0,0.0,0.0,0.0,0.0,0.0,0.0,0.0,0.0,0.0,0.0,0.0,0.0,0.0,0.0,0.0,0.0,0.0,0.0,0.0,0.0,0.0,0.0,0.0,0.0,0.0,0.0,0.0,0.0,0.0,0.0,0.0,0.0,0.0,0.0,0.0,0.0,0.0,0.0,0.0,0.0,0.0,0.0,0.0,0.0,0.0,0.0,0.0,0.0,0.0,0.0,0.0,0.0,0.0,0.0,0.0,0.0,0.0,0.0,0.0,0.0,0.0,0.0,0.0,0.0,0.0,0.0,0.0,0.0,0.0,0.0,0.0,0.0,0.0,0.0,0.0,0.0,0.0,0.0,0.0,0.0,0.0,0.0,0.0,0.0,0.0,0.0,0.0,0.0,0.0,0.0,0.0,0.0,0.0,0.0,0.0,0.0,0.0,0.0,0.0,0.0,0.0,0.0,0.0,0.0,0.0,0.0,0.0,0.0,0.0,0.0,0.0,0.0,0.0,0.0,0.0,0.0,0.0,0.0,0.0,0.0,0.0,0.0,0.0,0.0,0.0,0.0,0.0,0.0,0.0,0.0,0.0,0.0,0.0,0.0,0.0,0.0,0.0,0.0,0.0,0.0,0.0,0.0,0.0,0.0,0.0,0.0,0.0,0.0,0.0,0.0,0.0,0.0,0.0,0.0,0.0,0.0,0.0,0.0,0.0,0.0,0.0,0.0,0.0,0.0,0.0,0.0,0.0,0.0,0.0,0.0,0.0,0.0,0.0,0.0,0.0,0.0,0.0,0.0,0.0,0.0,0.0,0.0,0.0,0.0,0.0,0.0,0.0,0.0,0.0,0.0,0.0,0.0,0.0,0.0,0.0,0.0,0.0,0.0,0.0,0.0,0.0,0.0,0.0,0.0,0.0,0.0,0.0,0.0,0.0,0.0,0.0,0.0,0.0,0.0,0.0,0.0,0.0,0.0,0.0,0.0,0.0,0.0,0.0,0.0,0.0,0.0,0.0,0.0,0.0,0.0,0.0,0.0,0.0,0.0,0.0,0.0,0.0,0.0,0.0,0.0,0.0,0.0,0.0,0.0,0.0,0.0,0.0,0.0,0.0,0.0,0.0,0.0,0.0,0.0,0.0,0.0,0.0,0.0,0.0,0.0,0.0,0.0,0.0,0.0,0.0,0.0,0.0,0.0,0.0,0.0,0.0,0.0,0.0,0.0,0.0,0.0,0.0,0.0,0.0,0.0,0.0,0.0,0.0,0.0,0.0,0.0,0.0,0.0,0.0,0.0,0.0,0.0,0.0,0.0,0.0,0.0,0.0,0.0,0.0,0.0,0.0,0.0,0.0,0.0,0.0,0.0,0.0,0.0,0.0,0.0,0.0,0.0,0.0,0.0,0.0,0.0,0.0,0.0,0.0,0.0,0.0,0.0,0.0,0.0,0.0,0.0,0.0,0.0,0.0,0.0,0.0,0.0,0.0,0.0,0.0,0.0,0.0,0.0,0.0,0.0,0.0,0.0,0.0,0.0,0.0,0.0,0.0,0.0,0.0,0.0,0.0,0.0,0.0,0.0,0.0,0.0,0.0,0.0,0.0,0.0,0.0,0.0,0.0,0.0,0.0,0.0,0.0,0.0,0.0,0.0,0.0,0.0,0.0,0.0,0.0,0.0,0.0,0.0,0.0,0.0,0.0,0.0,0.0,0.0,0.0,0.0,0.0,0.0,0.0,0.0,0.0,0.0,0.0,0.0,0.0,0.0,0.0,0.0,0.0,0.0,0.0,0.0,0.0,0.0,0.0,0.0,0.0,0.0,0.0,0.0,0.0,0.0,0.0,0.0,0.0,0.0,0.0,0.0,0.0,0.0,0.0,0.0,0.0,0.0,0.0,0.0,0.0,0.0,0.0,0.0,0.0,0.0,0.0,0.0,0.0,0.0,0.0,0.0,0.0,0.0,0.0,0.0,0.0,0.0,0.0,0.0,0.0,0.0,0.0,0.0,0.0,0.0,0.0,0.0,0.0,0.0,0.0,0.0,0.0,0.0,0.0,0.0,0.0,0.0,0.0,0.0,0.0,0.0,0.0,0.0,0.0,0.0,0.0,0.0,0.0,0.0,0.0,0.0,0.0,0.0,0.0,0.0,0.0,0.0,0.0,0.0,0.0,0.0,0.0,0.0,0.0,0.0,0.0,0.0,0.0,0.0,0.0,0.0,0.0,0.0,0.0,0.0,0.0,0.0,0.0,0.0,0.0,0.0,0.0,0.0,0.0,0.0,0.0,0.0,0.0,0.0,0.0,0.0,0.0,0.0,0.0,0.0,0.0,0.0,0.0,0.0,0.0,0.0,0.0,0.0,0.0,0.0,0.0,0.0,0.0,0.0,0.0,0.0,0.0,0.0,0.0,0.0,0.0,0.0,0.0,0.0,0.0,0.0,0.0,0.0,0.0,0.0,0.0,0.0,0.0,0.0,0.0,0.0,0.0,0.0,0.0,0.0,0.0,0.0,0.0,0.0,0.0,0.0,0.0,0.0,0.0,0.0,0.0,0.0,0.0,0.0,0.0,0.0,0.0,0.0,0.0,0.0,0.0,0.0,0.0,0.0,0.0,0.0,0.0,0.0,0.0,0.0,0.0,0.0,0.0,0.0,0.0,0.0,0.0,0.0,0.0,0.0,0.0,0.0,0.0,0.0,0.0,0.0,0.0,0.0,0.0,0.0,0.0,0.0,0.0,0.0,0.0,0.0,0.0,0.0,0.0,0.0,0.0,0.0,0.0,0.0,0.0,0.0,0.0,0.0,0.0,0.0,0.0,0.0,0.0,0.0,0.0,0.0,0.0,0.0,0.0,0.0,0.0,0.0,0.0,0.0,0.0,0.0,0.0,0.0,0.0,0.0,0.0,0.0,0.0,0.0,0.0,0.0,4.4146,4.2286,0.0,0.0,0.0,0.0,0.0,0.0,0.0,0.0,0.0,0.0,0.0,0.0,0.0,0.0,0.0,0.0,0.0,0.0,0.0,0.0,0.0,0.0,0.0,0.0,0.0,0.0,0.0,0.0,0.0,0.0,0.0,0.0,0.0,0.0,0.0,0.0,0.0,1.8179,1.9608,2.1485,2.3734,2.3694,2.3271,2.2506,0.0,0.0,0.0,0.0,0.0,0.0,0.0,0.0,0.0,0.0,0.0,0.0,0.0,0.0,0.0,0.0,0.0,0.0,0.0,0.0,0.0,0.0,0.0,0.0,0.0,0.0,0.0,0.0,0.0,0.0,0.0,0.0,0.0,0.0,0.0,0.0,0.0,0.0,0.0,0.0,0.0,0.0,0.0,0.0,0.0,0.0,0.0,0.0,0.0,0.0,0.0,0.0,0.0,0.0,0.0,0.0,0.0,0.0,0.0,0.0,0.0,0.0,0.0,0.0,0.0,0.0,0.0,0.0,0.0,0.0,4.898,4.7105,0.0,0.0,0.0,0.0,0.0,0.0,0.0,0.0,0.0,0.0,0.0,0.0,0.0,0.0,0.0,0.0,0.0,0.0,0.0,0.0,0.0,0.0,0.0,1.3945,1.4331,1.4388,1.5161,1.5598,0.0,0.0,0.0,0.0,0.0,0.0,1.7451,1.8218,1.8539,1.8576,2.1326,2.4227,2.6973,2.7446,2.6661,2.4929,2.469,0.0,0.0,0.0,0.0,0.0,0.0,0.0,0.0,0.0,0.0,0.0,0.0,0.0,0.0,0.0,0.0,0.0,0.0,0.0,0.0,0.0,0.0,0.0,0.0,0.0,0.0,0.0,0.0,0.0,0.0,0.0,0.0,0.0,0.0,0.0,0.0,0.0,0.0,0.0,0.0,0.0,0.0,0.0,0.0,0.0,0.0,0.0,0.0,0.0,0.0,0.0,0.0,0.0,0.0,0.0,0.0,0.0,0.0,0.0,0.0,0.0,0.0,0.0,5.1706,5.2739,5.3787,5.4815,5.6638,5.874,5.4736,5.3434,5.3832,5.1957,0.0,0.0,0.0,0.0,0.0,0.0,0.0,0.0,0.0,0.0,0.0,0.0,0.0,0.0,0.0,0.0,0.0,0.0,0.0,0.0,0.0,1.4775,1.5159,1.5616,1.6268,1.6548,1.6271,0.0,0.0,0.0,0.0,0.0,1.8078,1.8682,1.9546,2.067,2.4845,2.7729,2.9238,2.9978,3.0299,3.0027,2.8591,2.7945,2.7994,0.0,0.0,0.0,0.0,0.0,0.0,0.0,0.0,0.0,0.0,0.0,0.0,0.0,0.0,0.0,0.0,0.0,0.0,0.0,0.0,0.0,0.0,0.0,0.0,0.0,0.0,0.0,0.0,0.0,0.0,0.0,0.0,0.0,0.0,0.0,0.0,0.0,0.0,0.0,0.0,0.0,3.8554,3.6956,0.0,0.0,0.0,0.0,0.0,0.0,0.0,0.0,0.0,0.0,0.0,0.0,0.0,4.9675,5.3884,5.533,5.6453,5.7591,5.9476,6.0869,6.1779,6.3154,6.4409,6.5409,6.5307,0.0,5.7938,5.7829,0.0,0.0,0.0,0.0,0.0,0.0,0.0,0.0,0.0,0.0,0.0,0.0,0.0,0.0,0.0,0.0,0.0,0.0,0.0,0.0,0.0,1.5616,1.6373,1.6791,1.8116,1.8548,1.7624,1.8097,0.0,0.0,0.0,1.8338,1.8994,2.0322,2.2571,2.5673,2.8052,3.0321,3.2307,3.2877,3.3472,3.3842,3.3138,3.1504,2.9212,2.9119,0.0,0.0,0.0,0.0,0.0,0.0,0.0,0.0,0.0,0.0,0.0,0.0,0.0,0.0,0.0,0.0,0.0,0.0,0.0,0.0,0.0,0.0,0.0,0.0,0.0,0.0,0.0,0.0,0.0,0.0,0.0,0.0,0.0,0.0,0.0,0.0,0.0,0.0,0.0,3.6758,3.8474,3.7738,3.8251,3.7863,0.0,0.0,0.0,0.0,0.0,0.0,0.0,0.0,0.0,5.1358,5.2461,5.4777,5.8374,5.9717,6.0737,6.1858,6.3349,6.4638,6.5565,6.6589,6.7734,6.8725,6.9062,6.8031,6.5865,6.3225,6.0589,5.8297,0.0,0.0,0.0,0.0,5.8311,5.9507,0.0,0.0,0.0,0.0,0.0,0.0,0.0,0.0,0.0,0.0,0.0,0.0,1.5259,1.6918,1.801,1.8369,2.0077,2.0471,1.904,1.9336,1.9299,1.8748,1.8878,1.9372,2.0197,2.2605,2.5801,2.9733,3.0903,3.2784,3.506,3.5602,3.6074,3.6812,3.6732,3.4681,3.1407,3.1207,3.058,2.9493,0.0,0.0,0.0,0.0,0.0,0.0,0.0,0.0,0.0,0.0,0.0,0.0,0.0,0.0,0.0,0.0,0.0,0.0,0.0,0.0,0.0,0.0,0.0,0.0,0.0,0.0,0.0,0.0,0.0,0.0,0.0,0.0,0.0,0.0,0.0,0.0,0.0,3.7791,3.9474,3.9968,4.0668,4.0425,0.0,0.0,0.0,0.0,0.0,0.0,4.8172,4.9648,5.2087,5.5708,5.7215,5.9473,6.2389,6.3268,6.4235,6.5499,6.6582,6.7662,6.8692,6.9662,7.0671,7.186,7.1991,7.2392,7.2776,6.8223,6.5375,6.3832,6.2634,6.163,6.1051,6.2277,6.3696,6.5338,0.0,0.0,0.0,0.0,0.0,0.0,0.0,0.0,0.0,0.0,0.0,1.5749,1.7237,1.874,2.0039,2.0984,2.1639,2.1432,2.0179,2.0527,2.0474,1.9812,2.0412,2.1053,2.1735,2.5422,2.8443,3.0859,3.3498,3.5435,3.6674,3.7539,3.8036,3.8456,3.8131,3.727,3.6133,3.4832,3.4101,3.3636,3.0478,0.0,0.0,0.0,0.0,0.0,0.0,0.0,0.0,0.0,0.0,0.0,0.0,0.0,0.0,0.0,0.0,0.0,0.0,0.0,0.0,0.0,0.0,0.0,0.0,0.0,0.0,0.0,0.0,0.0,0.0,0.0,0.0,0.0,0.0,0.0,0.0,0.0,0.0,4.5622,4.5059,0.0,0.0,0.0,0.0,4.7109,4.7964,5.0127,5.4535,5.5303,5.7339,6.099,6.181,6.3538,6.6426,6.6458,6.7389,6.9274,7.0352,7.1306,7.2152,7.3566,7.4786,7.5689,7.6163,7.6674,7.6811,7.332,7.0755,6.893,6.8546,6.758,6.6667,6.9288,7.1005,7.2333,0.0,0.0,0.0,0.0,0.0,0.0,0.0,0.0,1.2929,1.3396,1.4911,1.67,1.8427,2.0615,2.2681,2.4064,2.4818,2.4686,2.3427,2.2883,2.2088,2.0961,2.0492,2.1661,2.4536,2.8118,3.127,3.3805,3.557,3.6998,3.8288,3.8594,3.9014,3.9392,3.9597,3.9231,3.8629,3.6934,3.5711,3.4627,3.3077,3.1034,0.0,0.0,0.0,0.0,0.0,0.0,0.0,0.0,0.0,0.0,0.0,0.0,0.0,0.0,0.0,0.0,0.0,0.0,0.0,0.0,0.0,0.0,0.0,0.0,0.0,0.0,0.0,0.0,0.0,0.0,0.0,0.0,0.0,0.0,0.0,0.0,0.0,4.5298,4.6649,0.0,4.7052,4.7596,4.866,5.0342,5.2424,5.5192,5.8684,5.9787,6.1861,6.5075,6.6018,6.7216,6.8835,6.9532,7.0323,7.1201,7.2258,7.3365,7.4579,7.5655,7.7048,7.8278,7.8838,7.9531,8.0335,7.8982,7.6613,7.3817,7.4096,7.3849,7.362,7.5577,7.6883,7.7939,0.0,0.0,0.0,0.0,0.0,0.0,0.0,0.0,1.2893,1.3694,1.5705,1.7848,2.0149,2.2748,2.5041,2.6725,2.7199,2.6869,2.539,2.4223,2.3095,2.1778,2.1989,2.3998,2.7822,3.0825,3.3381,3.5798,3.7318,3.8512,3.9366,3.9536,3.9903,4.049,4.0695,4.0908,4.0622,3.9127,3.7704,3.6241,3.4899,3.3045,3.0893,0.0,0.0,0.0,0.0,0.0,0.0,0.0,0.0,0.0,0.0,0.0,0.0,0.0,0.0,0.0,0.0,0.0,0.0,0.0,0.0,0.0,0.0,0.0,0.0,0.0,0.0,0.0,0.0,0.0,0.0,0.0,0.0,0.0,0.0,4.3481,4.6668,4.6985,4.9276,5.0853,5.0694,5.1781,5.3202,5.4686,5.7191,5.9711,6.213,6.3875,6.586,6.8036,6.9125,7.0145,7.1063,7.192,7.2621,7.3369,7.4203,7.5245,7.6644,7.7705,7.8952,8.0421,8.1426,8.2379,8.3205,8.319,8.18,7.9585,7.8961,7.8808,7.9061,8.0426,8.1634,8.2806,0.0,0.0,0.0,0.0,0.0,0.0,1.1464,1.1944,1.2959,1.4838,1.6936,1.9541,2.2639,2.4905,2.7161,2.9061,2.8587,2.7507,2.5872,2.4652,2.3489,2.2605,2.518,2.8199,3.1508,3.3344,3.4962,3.6671,3.8608,3.9681,4.021,4.0702,4.1052,4.1557,4.1714,4.1973,4.2345,4.155,4.0299,3.8706,3.6107,3.5071,3.4636,0.0,0.0,0.0,0.0,0.0,0.0,0.0,0.0,0.0,0.0,0.0,0.0,0.0,0.0,0.0,0.0,0.0,0.0,0.0,0.0,0.0,0.0,0.0,0.0,0.0,0.0,0.0,0.0,0.0,0.0,0.0,0.0,0.0,4.3197,4.5967,4.8939,5.1454,5.3273,5.5086,5.7653,5.7309,5.7854,6.021,6.1999,6.3579,6.4966,6.7504,6.9411,7.0355,7.1459,7.2445,7.3328,7.3843,7.4559,7.5446,7.6498,7.7393,7.8306,7.9912,8.1039,8.2101,8.4029,8.492,8.5199,8.5786,8.6029,8.5911,8.3233,8.2479,8.3031,8.4125,8.5336,8.6882,0.0,0.0,0.0,0.0,0.0,0.0,1.2625,1.3167,1.4153,1.5701,1.8405,2.1438,2.4426,2.716,2.944,3.1087,3.0008,2.9102,2.8798,2.6631,2.5008,2.4421,2.706,2.9494,3.1628,3.473,3.7112,3.8535,3.9805,4.0455,4.0994,4.0437,4.0509,4.1034,4.1814,4.1892,4.136,4.1823,4.1399,4.0413,3.9314,3.7686,3.5759,0.0,0.0,0.0,0.0,0.0,0.0,0.0,0.0,0.0,0.0,0.0,0.0,0.0,0.0,0.0,0.0,0.0,0.0,0.0,0.0,0.0,0.0,0.0,0.0,0.0,0.0,0.0,0.0,0.0,0.0,0.0,4.3135,4.5837,4.6095,4.9111,5.208,5.4258,5.631,5.8119,5.9543,6.0616,6.128,6.2064,6.3946,6.5565,6.715,6.9371,7.1484,7.323,7.3976,7.4439,7.4545,7.5407,7.6073,7.6564,7.7878,7.9541,8.1227,8.2335,8.382,8.5367,8.6208,8.7165,8.8056,8.7854,8.8043,8.8128,8.6463,8.6322,8.7096,8.8312,8.979,9.1141,0.0,0.0,0.0,0.0,0.0,0.0,1.26,1.3212,1.4508,1.6602,1.9619,2.2782,2.6058,2.8719,3.0732,3.2062,3.0682,2.9771,2.9322,2.7466,2.6806,2.7804,2.9854,3.1874,3.382,3.6638,3.8636,3.9772,4.0692,4.1229,4.1413,4.1162,4.1476,4.2192,4.2924,4.3172,4.2911,4.3443,4.3112,4.2178,4.1776,4.0256,3.7867,3.607,3.4497,3.3191,3.1246,3.0603,3.0192,2.7903,0.0,0.0,0.0,0.0,0.0,0.0,0.0,0.0,0.0,0.0,0.0,0.0,0.0,0.0,0.0,0.0,0.0,0.0,0.0,0.0,0.0,0.0,0.0,0.0,4.6294,4.9325,5.0778,5.2628,5.4494,5.6425,5.8411,6.0278,6.1682,6.3203,6.4259,6.4843,6.696,6.8708,7.0059,7.1659,7.3311,7.5016,7.5309,7.5626,7.5735,7.6797,7.771,7.8112,7.9715,8.1107,8.2724,8.4013,8.5336,8.6927,8.8,8.8964,8.9962,8.9965,9.059,9.1136,0.0,0.0,0.0,0.0,9.2607,9.3728,0.0,0.0,0.0,0.0,0.0,0.0,1.2303,1.3041,1.464,1.7482,2.0485,2.3703,2.7357,2.9575,3.1291,3.2507,3.1102,2.9675,2.861,2.8128,2.9,3.1696,3.3129,3.4859,3.73,3.8796,4.0089,4.0798,4.1493,4.1851,4.1885,4.2342,4.2847,4.3992,4.4508,4.4976,4.5488,4.5626,4.5008,4.3808,4.3687,4.2486,4.0371,3.7578,3.6758,3.6658,3.3985,3.2899,3.26,3.0597,0.0,0.0,0.0,0.0,0.0,0.0,0.0,0.0,0.0,0.0,0.0,0.0,0.0,0.0,0.0,0.0,0.0,0.0,0.0,0.0,0.0,0.0,0.0,0.0,4.9427,5.3195,5.6078,5.6304,5.6662,5.8387,6.0016,6.1649,6.365,6.5288,6.6984,6.8466,7.0392,7.1954,7.3151,7.4093,0.0,0.0,0.0,7.6443,7.6986,7.8326,7.9438,7.9935,8.1497,8.2654,8.3743,8.5185,8.6486,8.7374,8.9201,9.0414,9.1171,9.1968,9.3281,9.4348,9.1994,9.0937,9.0959,9.349,9.4881,9.5827,0.0,0.0,0.0,0.0,0.0,0.0,1.4522,1.5279,1.666,1.8673,2.1577,2.4626,2.7382,2.968,3.1501,3.328,3.1086,2.9379,2.8726,3.0582,3.2083,3.2991,3.5092,3.7003,3.8864,4.0344,4.1508,4.2345,4.2604,4.2792,4.3049,4.2724,4.3005,4.383,4.4801,4.5106,4.498,4.5898,4.5357,4.4161,4.3906,4.2773,4.1406,4.042,3.9837,3.9179,3.7962,3.7169,3.6529,3.4284,3.3267,3.2533,3.0497,2.8763,0.0,0.0,0.0,0.0,0.0,0.0,0.0,0.0,0.0,0.0,0.0,0.0,0.0,0.0,0.0,0.0,0.0,0.0,0.0,4.8386,5.2559,5.6262,5.8656,5.9633,6.0135,6.0506,6.2325,6.4275,6.6339,6.811,6.9547,7.1146,7.2453,7.3638,7.4879,7.541,7.6374,7.7916,7.7574,7.764,7.853,7.9732,8.0828,8.1627,8.3162,0.0,8.6728,8.7373,8.8306,8.9687,9.0258,9.1178,9.2354,9.3149,9.5021,9.7104,9.582,9.5303,9.5498,9.7159,9.8386,9.9541,0.0,0.0,0.0,0.0,0.0,0.0,1.4574,1.5388,1.6703,1.8679,2.1002,2.345,2.6236,2.8027,2.9389,3.0496,2.9682,2.9177,2.9607,3.2056,3.3975,3.5332,3.7748,3.9489,4.0411,4.1883,4.284,4.3426,4.3426,4.3706,4.4073,4.3713,4.437,4.547,4.6038,4.6333,4.6457,4.6985,4.6581,4.5551,4.5083,4.4492,4.3574,4.2209,4.1465,4.1073,4.026,3.9719,3.9005,3.7203,3.6201,3.5632,3.4037,3.2284,3.0519,0.0,0.0,0.0,0.0,0.0,0.0,0.0,0.0,0.0,0.0,0.0,0.0,0.0,0.0,3.7637,4.0534,0.0,4.7713,5.1996,5.5258,5.8083,6.0332,6.1795,6.2472,6.2232,6.4035,6.6279,6.8278,7.0139,7.21,7.3996,7.4939,7.5805,7.7234,7.7332,7.7939,7.9325,7.8708,7.9034,8.0421,8.1356,8.2469,8.378,8.5222,8.6461,8.7905,8.8617,8.9672,9.0712,9.1548,9.2729,9.4062,9.5836,9.77,9.9172,9.9403,9.9166,9.8749,10.0117,10.1282,10.2468,0.0,0.0,0.0,0.0,0.0,0.0,0.0,1.5249,1.6522,1.8349,2.0147,2.218,2.4811,2.6064,2.6869,2.7101,2.8314,2.9567,3.0455,3.3126,3.5555,3.7681,4.0024,4.1336,4.1812,4.301,4.3769,4.4094,4.4094,4.4325,4.4806,4.4846,4.5805,4.7073,4.719,4.7685,4.809,4.8196,4.7709,4.6951,4.6445,4.6211,4.5703,4.3623,4.2845,4.2871,4.2023,4.1311,4.0641,3.9588,3.8743,3.8172,3.7393,3.5815,3.3689,3.1697,3.0137,0.0,0.0,0.0,0.0,0.0,0.0,0.0,0.0,3.4309,3.5583,3.6818,3.8828,4.1238,4.4632,4.7547,5.0818,5.5187,5.7592,5.9739,6.1878,6.3433,6.4405,6.4393,6.6256,6.8307,7.0097,7.2257,7.4592,7.6913,7.7457,7.8149,7.988,7.9394,7.9453,8.0549,7.9961,8.0627,8.2286,8.3286,8.4497,8.6134,8.7094,8.8222,8.9105,8.9925,9.0869,9.1741,9.318,9.4616,9.6101,9.8723,10.0106,10.0798,10.2344,10.2459,10.1964,10.286,10.3918,10.5183,0.0,0.0,0.0,0.0,0.0,0.0,0.0,0.0,1.7613,1.853,2.0671,2.2682,2.3954,2.5044,2.571,2.5613,2.9235,3.1321,3.0598,3.4054,3.6775,3.8479,4.0745,4.2167,4.2601,4.3854,4.4419,4.4471,4.4471,4.4642,4.4967,4.5287,4.5896,4.693,4.7572,4.7911,4.8025,4.8037,4.778,4.7443,4.6472,4.6481,4.668,4.5165,4.4718,4.4629,4.3789,4.2934,4.2058,4.1076,4.0114,3.9022,3.8632,3.7486,3.6189,3.4197,3.2881,3.1989,3.1203,3.1425,3.2357,3.3936,3.4023,3.4109,0.0,3.7944,4.0296,4.2028,4.4623,4.7331,4.9466,5.2458,5.523,5.6932,5.9937,6.2422,6.363,6.4635,6.6187,6.8446,6.9836,7.1237,7.3009,7.5068,7.7491,8.0286,7.998,8.0354,8.153,8.1155,8.1032,8.1546,8.1517,8.2213,8.3907,8.5122,8.6371,8.8001,8.9048,9.0416,9.1705,9.2022,9.257,9.3565,9.5044,9.6675,9.8537,9.9994,10.1139,10.2257,10.4163,10.5227,10.5582,10.5332,10.6453,10.8035,0.0,0.0,0.0,0.0,0.0,0.0,0.0,0.0,1.7342,1.8983,1.972,2.0712,2.2364,2.3168,2.3755,2.4284,2.77,3.0101,3.0493,3.4818,3.809,3.9623,4.1857,4.3419,4.382,4.4505,4.4864,4.4864,4.4864,4.5352,4.611,4.6176,4.6771,4.7662,4.7692,4.7977,4.8348,4.7988,4.8007,4.8156,4.7749,4.75,4.7404,4.6922,4.621,4.5125,4.3195,4.1829,0.0,4.0268,3.9343,3.852,3.8927,3.7787,3.6362,3.5303,3.4408,3.3739,3.4266,3.5203,3.6293,3.7169,3.8506,3.9722,4.1025,4.304,4.4925,4.6735,4.9076,5.1543,5.3031,5.5514,5.7998,5.9648,6.1338,6.3109,6.505,6.6473,6.7989,7.0155,7.2707,7.4763,7.5484,7.6825,7.8951,8.1707,8.1141,8.1204,8.2804,8.2297,8.2176,8.2827,8.2881,8.3746,8.5702,8.6394,8.7878,8.9769,9.0845,9.1957,9.3211,9.3789,9.4783,9.6103,9.6942,9.8313,9.9891,10.1093,10.231,10.3556,10.5647,10.7066,10.791,10.757,10.8687,11.0331,0.0,0.0,0.0,0.0,0.0,0.0,0.0,0.0,0.0,0.0,1.9076,1.9499,2.1174,2.1785,2.242,2.3231,2.5985,2.8459,3.0257,3.4981,3.8506,4.0324,4.2732,4.4214,4.4676,4.4967,4.5156,4.5258,4.5156,4.5507,4.6511,4.6711,4.7149,4.806,4.7649,4.7821,4.8399,4.7951,4.8182,4.8724,4.8691,4.8519,4.8197,4.7443,4.6126,4.4243,4.2631,4.0938,3.9625,3.8728,3.784,3.7184,3.7785,3.6897,3.5669,3.5504,3.5284,3.5428,3.646,3.7914,3.947,4.043,4.2363,4.4435,4.5657,4.7218,4.8993,5.0592,5.2518,5.4381,5.5846,5.7726,5.9783,6.1566,6.2675,6.4194,6.6569,6.8043,6.9539,7.1585,7.4195,7.625,7.7202,7.8408,8.0168,8.2812,8.2381,8.2495,8.4145,8.3941,8.4,8.4422,8.4665,8.5599,8.7301,8.806,8.9475,9.115,9.2214,9.3351,9.4319,9.5542,9.6676,9.7919,9.8692,9.9766,10.1215,10.2216,10.354,10.5244,10.7266,10.869,10.9947,11.0127,11.1046,11.2264,0.0,0.0,0.0,0.0,0.0,0.0,0.0,0.0,0.0,0.0,0.0,0.0,0.0,2.1706,2.2279,2.2905,2.4845,2.7347,3.0241,3.3856,3.7284,4.0276,4.2788,4.4334,4.5087,4.5104,4.5293,4.5652,4.5293,4.5306,4.5909,4.6511,4.6911,4.7509,4.7509,4.7671,4.7699,4.8066,4.8429,4.902,4.8592,4.8637,4.8762,4.5942,4.3665,4.1979,4.2275,4.1152,3.9028,3.6941,3.5698,3.5079,3.4673,3.4513,3.4532,3.4935,3.587,3.692,3.7859,3.922,4.1094,4.3647,4.5262,4.6695,4.8037,5.0045,5.2067,5.3364,5.4834,5.62,5.7566,5.901,6.0421,6.1548,6.3589,6.6037,6.8257,6.8986,7.0566,7.3712,7.3927,7.4896,7.8236,8.0047,8.1649,8.3284,8.4006,8.4756,8.6037,8.6529,8.6813,8.6813,8.7879,8.8459,8.8553,9.0115,9.1155,9.1813,9.3345,9.4683,9.5806,9.7308,9.8318,9.8921,9.9712,10.1129,10.288,10.3375,10.5154,10.7923,10.876,11.0249,11.2231,11.3241,11.3634,11.3787,0.0,0.0,0.0,0.0,0.0,0.0,0.0,0.0,0.0,0.0,0.0,0.0,0.0,0.0,0.0,0.0,2.4845,2.6882,2.9151,3.3151,3.6454,3.8595,4.144,4.3221,4.3957,4.4471,4.4779,4.4899,4.5053,4.5507,4.6511,4.6711,4.7111,4.8106,4.7708,4.7636,4.8102,4.8107,4.8489,4.887,4.8842,4.8675,4.8359,4.6083,4.388,4.1666,0.0,3.7105,3.4983,3.3853,3.3003,3.2721,3.3255,3.2582,3.2142,3.4464,3.6497,3.8601,4.1208,4.2983,4.4499,4.613,4.8313,5.0297,5.1719,5.3382,5.489,5.6304,5.6126,5.6244,5.741,5.8239,5.9421,6.154,6.4198,6.6804,6.9344,7.0977,7.2664,7.4176,7.5151,7.6329,7.7785,7.9021,8.0876,8.3391,8.4032,8.5019,8.646,8.6794,8.7105,8.7532,8.8169,8.8723,8.9166,9.0794,9.2209,9.3635,9.5761,9.7046,9.7655,9.8593,9.9251,9.9541,10.055,10.1636,10.288,10.4424,10.6337,10.8444,11.075,11.232,11.3545,11.5519,11.6198,11.6242,0.0,0.0,0.0,0.0,0.0,0.0,0.0,0.0,0.0,0.0,0.0,0.0,0.0,0.0,0.0,0.0,0.0,2.5973,2.8163,3.1595,3.439,3.6351,3.8735,4.0266,4.0794,4.1337,4.1645,4.1919,4.3088,4.4132,4.4849,4.593,4.6839,4.7442,4.7002,4.7147,4.7882,4.7545,4.7616,4.7552,4.7073,4.6296,4.5132,4.3197,4.1151,0.0,3.5821,3.3572,3.1637,3.1396,3.1313,3.1285,3.2349,3.2564,3.2863,3.4445,3.7166,4.0264,4.2997,4.5375,4.7248,4.8748,5.1081,5.3357,5.4238,5.5633,5.6863,5.7732,5.6988,5.629,5.6992,5.7482,5.8642,6.1096,6.407,6.7252,7.0329,7.2262,7.3721,7.4823,7.5966,7.6962,7.781,7.9101,8.0804,8.3084,8.4559,8.5966,8.7381,8.7954,8.8372,8.8799,8.9225,8.9754,8.9988,9.1624,9.3628,9.5628,9.7549,9.8868,9.9679,9.9983,10.0426,10.1118,10.192,10.3155,10.4388,10.5993,10.803,11.0256,11.2732,11.4244,11.5276,11.7353,11.8245,11.8402,0.0,0.0,0.0,0.0,0.0,0.0,0.0,0.0,0.0,0.0,0.0,0.0,0.0,0.0,0.0,0.0,0.0,0.0,2.7286,2.9283,3.1282,3.3301,3.4907,3.58,3.6147,3.6166,3.6534,3.7256,3.9559,4.0998,4.1444,4.4215,4.548,4.5498,4.5318,4.5907,4.6672,4.6115,4.5463,4.4856,4.3279,4.1482,3.9483,3.7783,3.5633,3.3482,3.2516,3.0853,2.9331,2.9984,3.0386,3.081,3.2066,3.4184,3.5916,3.5135,3.7895,4.1692,4.3683,4.6758,4.9776,5.1437,5.3731,5.5426,5.6014,5.7028,5.7939,5.7918,5.7113,5.6223,5.6202,5.676,5.7828,6.0563,6.3477,6.7021,7.1331,7.2476,7.3669,7.5795,7.6182,7.6789,7.8361,8.0116,8.152,8.2673,8.5237,8.7431,8.8539,8.9727,9.036,9.0601,9.1003,9.1137,9.1207,9.287,9.5055,9.7574,9.8505,9.987,10.1788,10.1569,10.1988,10.296,10.393,10.5132,10.6753,10.8108,11.0324,11.3041,11.467,11.5981,11.7309,11.8668,11.9668,12.0316,0.0,0.0,0.0,0.0,0.0,0.0,0.0,0.0,0.0,0.0,0.0,0.0,0.0,0.0,0.0,0.0,0.0,0.0,2.5793,2.7883,2.9764,3.134,3.3314,3.4569,3.5308,3.5805,3.6439,3.7216,3.7806,3.854,3.9424,4.0247,4.0507,4.0033,4.0603,4.0526,4.015,4.0269,4.0216,4.006,3.9357,3.9086,3.8919,3.6286,3.5005,3.4245,3.2137,3.1197,3.085,2.9814,3.0046,3.1065,3.3341,3.4648,3.5981,3.8513,4.1038,4.3953,4.762,5.0384,5.259,5.4228,5.5959,5.7283,5.7836,5.8187,5.8332,5.798,5.5592,5.3457,5.3485,5.3327,5.4324,5.7797,6.284,6.7668,7.1469,7.4451,7.6825,7.7693,0.0,7.8789,7.9771,8.1312,8.2725,8.3852,8.5862,8.7617,8.9196,8.994,9.0789,9.1643,9.1855,9.1987,9.2457,9.4914,9.6879,9.8186,9.9073,10.0214,10.1684,10.2189,10.2567,10.3154,10.4535,10.5817,10.6969,10.8895,11.1039,11.3472,11.5768,11.724,11.8404,12.0057,12.0935,12.1365,0.0,0.0,0.0,0.0,0.0,0.0,0.0,0.0,0.0,0.0,0.0,0.0,0.0,0.0,0.0,0.0,0.0,0.0,0.0,2.5956,2.7197,2.8214,2.9745,3.072,3.1226,3.1975,3.2618,3.3292,3.464,3.5545,3.6118,3.7312,3.7596,3.7165,3.7744,3.781,3.7696,3.7732,3.7395,0.0,0.0,3.5449,3.4563,3.3274,3.2536,3.2074,3.0824,3.0802,3.1539,3.1892,3.2767,3.3991,3.5449,3.7283,3.9533,4.2027,4.4281,4.685,5.0467,5.2747,5.4578,5.6128,5.7452,5.827,5.7318,5.7256,5.6883,5.502,5.2673,5.0791,5.0463,5.1167,5.3256,5.7759,6.318,6.8272,7.2942,7.5687,7.7838,7.8943,7.9641,8.0429,8.1277,8.3067,8.4442,8.5057,8.6668,8.8381,8.9805,9.0498,9.1003,9.1643,9.1855,9.27,9.3927,9.656,9.8183,9.9202,10.0299,10.1245,10.2428,10.3107,10.3703,10.4345,10.5681,10.704,10.8619,11.024,11.2362,11.4252,11.672,11.8056,11.8644,12.068,12.1833,12.2459,0.0,0.0,0.0,0.0,0.0,0.0,0.0,0.0,0.0,0.0,0.0,0.0,0.0,0.0,0.0,0.0,0.0,0.0,0.0,0.0,2.4808,2.5245,2.5878,2.6268,2.6279,2.7029,2.7751,2.8312,3.0868,3.2171,3.2105,3.4528,3.5272,3.4759,3.521,3.583,3.6324,3.5949,3.4784,3.3436,3.2895,3.1117,2.8937,0.0,2.957,2.9035,2.9312,3.0127,3.1463,3.4661,3.6627,3.797,3.8426,4.1194,4.4587,4.542,4.7462,5.0103,5.2736,5.4724,5.6234,5.7291,5.8356,5.8581,5.5807,5.5414,5.4354,5.0818,4.9359,4.8317,4.7559,4.9854,5.3454,5.8311,6.3314,6.8691,7.4728,7.6236,7.7628,8.0046,8.0853,8.1802,8.2669,8.4898,8.6184,8.6184,8.7954,8.9226,9.01,9.0871,9.119,9.143,9.2067,9.3329,9.5369,9.7562,9.9142,10.0085,10.1464,10.2516,10.3488,10.418,10.4965,10.6042,10.7045,10.8689,11.0841,11.2027,11.35,11.5332,11.7443,11.8454,11.8768,12.1042,12.2466,12.3481,0.0,0.0,0.0,0.0,0.0,0.0,0.0,0.0,0.0,0.0,0.0,0.0,0.0,0.0,0.0,0.0,0.0,0.0,0.0,0.0,0.0,2.5309,2.6068,2.6338,2.6396,2.6821,2.7279,2.7648,2.8101,2.8427,2.8641,2.9846,2.9731,2.8632,2.9615,2.9673,2.8962,2.8648,2.8241,2.7712,2.8102,2.8302,2.8239,2.8312,0.0,0.0,2.9225,2.9565,3.0705,3.4963,3.7073,3.888,4.3291,4.5121,4.6385,4.9014,5.1114,5.3252,5.5266,5.6964,5.823,5.9304,5.9055,5.7966,5.5807,5.4095,5.2125,4.8826,4.7547,4.6733,4.6132,4.8862,5.2396,5.579,6.1006,6.6765,7.2618,7.5379,7.8057,8.0878,8.2401,8.3137,8.3332,8.5443,8.6723,8.6723,8.8921,8.9885,8.9702,9.0658,9.143,9.1855,9.3329,9.4575,9.5369,9.7562,9.9142,10.0085,10.08,10.2304,10.4073,10.4175,10.5103,10.6974,10.8164,10.9431,11.0875,11.2838,11.4276,11.5544,11.768,11.8967,11.9996,12.2053,12.351,12.4289,0.0,0.0,0.0,0.0,0.0,0.0,0.0,0.0,0.0,0.0,0.0,0.0,0.0,0.0,0.0,0.0,0.0,0.0,0.0,0.0,0.0,2.3937,2.466,2.5179,2.5371,2.5976,2.6507,2.6943,0.0,2.6624,2.6423,2.6628,2.6332,2.5724,2.6324,2.6732,2.7031,2.6921,2.637,2.5628,2.6587,2.668,2.6499,2.7068,0.0,0.0,2.8426,2.9087,3.0585,3.3915,3.6404,3.893,4.3977,4.6802,4.8422,5.0432,5.2515,5.4635,5.6769,5.7821,5.8576,6.0088,5.9195,5.7168,5.3817,5.1454,4.8939,4.4693,4.3865,4.3834,4.3325,4.7399,5.1737,5.4208,5.9227,6.5219,7.1919,7.4088,7.6859,8.1782,8.2967,8.3636,8.4301,8.6102,8.7286,8.7286,8.8879,9.0013,8.9964,9.0844,9.143,9.2067,9.3329,9.4781,9.5805,9.796,9.9727,10.0854,10.1926,10.3091,10.4148,10.5255,10.6131,10.7187,10.8764,11.046,11.1958,11.3369,11.4657,11.6187,11.7638,11.88,11.9848,12.1972,12.3377,12.4384,0.0,0.0,0.0,0.0,0.0,0.0,0.0,0.0,0.0,0.0,0.0,0.0,0.0,0.0,0.0,0.0,0.0,0.0,0.0,0.0,0.0,0.0,0.0,0.0,2.4297,0.0,0.0,2.5884,2.5773,0.0,0.0,0.0,0.0,0.0,2.4343,2.5124,2.6454,2.6349,2.5666,0.0,0.0,2.5342,2.4545,0.0,0.0,0.0,0.0,2.8477,3.02,3.2394,3.5139,3.8298,4.2858,4.6541,4.9451,5.0916,5.2905,5.5179,5.7891,5.8399,5.8874,6.0178,5.8856,5.597,5.182,4.8871,4.577,4.1147,4.0965,4.1665,4.0943,4.609,5.1054,5.2917,5.7447,6.3276,7.123,7.2682,7.5499,8.2051,8.3233,8.3957,8.4875,8.6559,8.7476,8.7696,8.8625,8.9496,9.0145,9.0789,9.1404,9.2067,9.3329,9.4754,9.6386,9.8327,9.9997,10.1466,10.2967,10.3875,10.4065,10.5833,10.6969,10.733,10.9151,11.1069,11.3041,11.3752,11.5017,11.6746,11.7632,11.8625,11.977,12.181,12.3273,12.4505,0.0,0.0,0.0,0.0,0.0,0.0,0.0,0.0,0.0,0.0,0.0,0.0,0.0,1.7818,0.0,0.0,0.0,0.0,0.0,0.0,0.0,0.0,0.0,0.0,0.0,0.0,0.0,2.3693,2.4244,0.0,0.0,0.0,0.0,0.0,0.0,2.4463,2.4877,2.4562,0.0,0.0,0.0,0.0,0.0,0.0,0.0,0.0,0.0,2.7254,2.8883,3.1123,3.3819,3.6664,3.9888,4.3576,4.7113,5.0416,5.2837,5.514,5.8473,5.9511,5.9551,6.0414,5.7982,5.4744,5.0742,4.7399,4.3997,3.9983,4.0696,4.1772,4.0638,4.549,5.0119,5.1466,5.5174,6.0841,6.9068,7.1373,7.4733,8.1103,8.3124,8.4098,8.4324,8.5922,8.7281,8.7696,8.8381,8.8844,8.9496,9.0118,9.0977,9.2013,9.3746,9.5397,9.699,9.8524,9.9792,10.0783,10.2032,10.3134,10.3941,10.4658,10.6172,10.8047,10.8737,11.0481,11.3006,11.3994,11.5397,11.6944,11.804,11.9345,12.0772,12.2225,12.3799,12.5244,0.0,0.0,0.0,0.0,0.0,0.0,0.0,0.0,0.0,0.0,0.0,0.0,1.6999,1.7781,0.0,0.0,0.0,0.0,0.0,0.0,0.0,0.0,0.0,0.0,0.0,0.0,2.3127,2.2885,2.2659,0.0,0.0,0.0,0.0,0.0,0.0,2.1896,2.2877,2.2671,0.0,0.0,0.0,0.0,0.0,0.0,0.0,0.0,0.0,0.0,2.841,2.9415,3.1345,3.3808,3.5569,3.7874,4.1203,4.7916,5.1365,5.3703,5.7648,5.8724,5.9279,6.0341,5.774,5.4086,5.062,4.6675,4.2784,3.947,4.0146,4.1316,4.0573,4.5263,4.9033,4.8832,5.1806,5.6681,6.389,6.621,7.0352,7.8799,8.0971,8.2498,8.4501,8.5774,8.6616,8.7281,8.7527,8.7748,8.8355,8.9253,9.0334,9.1404,9.3093,9.4588,9.5794,9.7781,9.9398,10.0442,10.182,10.3118,10.4274,10.5187,10.6394,10.7672,10.929,11.1,11.2651,11.3875,11.5411,11.7024,11.7502,11.8695,12.0257,12.1604,12.3101,12.4579,0.0,0.0,0.0,0.0,0.0,0.0,0.0,0.0,1.406,1.5577,1.6289,1.6701,1.6967,1.734,1.7563,1.7613,0.0,0.0,0.0,0.0,0.0,0.0,0.0,0.0,0.0,0.0,2.2138,2.2183,2.1706,2.1177,0.0,0.0,1.9207,1.9299,0.0,0.0,0.0,0.0,0.0,0.0,0.0,0.0,0.0,0.0,0.0,0.0,0.0,0.0,0.0,0.0,0.0,3.1967,3.2537,3.3845,3.6627,4.4972,4.8955,5.1738,5.6076,5.7717,5.8286,5.9491,5.6809,5.3031,5.0074,4.587,4.2002,3.9453,4.0165,4.115,4.1317,4.4978,4.7686,4.7305,4.9868,5.4121,5.9861,6.2616,6.6871,7.4716,7.715,7.9395,8.2721,8.4825,8.6171,8.6444,8.6419,8.6838,8.7696,8.8444,8.964,9.1137,9.2821,9.4172,9.5147,9.712,9.8724,10.0124,10.1754,10.3037,10.4062,10.5461,10.6571,10.7236,10.9088,11.0664,11.2119,11.3545,11.5058,11.689,11.7397,11.8657,12.0214,12.1401,12.2757,12.4229,0.0,0.0,0.0,0.0,0.0,0.0,0.0,0.0,1.4248,1.5577,1.6116,1.6334,1.6343,1.6118,1.636,1.7224,0.0,0.0,0.0,0.0,0.0,0.0,0.0,0.0,0.0,0.0,0.0,0.0,0.0,2.1503,2.0997,2.0257,1.9543,1.8972,0.0,0.0,0.0,0.0,0.0,0.0,0.0,0.0,0.0,0.0,0.0,0.0,0.0,0.0,0.0,0.0,0.0,0.0,0.0,3.239,3.477,4.1848,4.5725,4.8807,5.4082,5.634,5.7443,5.7874,5.4798,5.0893,4.8613,4.4762,4.14,4.025,4.078,4.1862,4.3021,4.4549,4.6001,4.7211,5.0321,5.3996,5.8202,6.1692,6.4988,6.8792,7.1512,7.4427,7.7759,8.2839,8.5724,8.505,8.5724,8.6394,8.7722,8.7621,8.8822,9.0943,9.2816,9.4143,9.5092,9.6623,9.8021,9.9466,10.147,10.2702,10.3339,10.4856,10.6092,10.7137,10.7728,10.9198,11.1325,11.2706,11.4517,11.6482,11.812,11.9806,12.1394,12.2073,12.3137,12.4192,0.0,0.0,0.0,0.0,0.0,0.0,0.0,0.0,1.3952,1.5264,1.5299,1.5444,1.613,1.6176,1.608,1.5917,0.0,0.0,0.0,0.0,0.0,0.0,0.0,0.0,0.0,0.0,0.0,0.0,0.0,0.0,0.0,1.8394,1.8222,1.8258,1.8781,1.9167,0.0,0.0,0.0,0.0,0.0,0.0,0.0,0.0,0.0,0.0,0.0,0.0,0.0,0.0,0.0,0.0,0.0,0.0,0.0,3.7259,4.1105,4.4588,4.8682,5.0433,5.1231,5.1711,4.9901,4.7383,4.5211,4.2601,4.0191,3.9429,4.0368,4.186,4.2956,4.469,4.657,4.899,5.0781,5.3056,5.6724,6.0629,6.4381,6.807,7.4502,7.9053,8.0645,8.3659,8.53,8.5075,8.6074,8.6772,8.7748,8.8418,8.9644,9.0943,9.1994,9.3101,9.444,9.5587,9.6731,9.8059,9.9578,10.1086,10.2841,10.3847,10.531,10.6946,10.7945,10.9419,11.1196,11.2093,11.3668,11.5776,11.686,11.8278,12.0047,12.1213,12.2474,12.3757,0.0,0.0,0.0,0.0,0.0,0.0,0.0,0.0,1.3248,1.4764,1.4427,1.4475,1.5722,1.5589,1.5385,1.5267,0.0,0.0,0.0,0.0,0.0,0.0,0.0,0.0,0.0,0.0,0.0,0.0,0.0,0.0,0.0,0.0,0.0,1.811,1.8398,1.8671,0.0,0.0,0.0,0.0,0.0,0.0,1.9747,0.0,0.0,0.0,0.0,0.0,0.0,0.0,0.0,0.0,0.0,0.0,0.0,0.0,3.6942,4.0066,4.4626,4.669,4.7664,4.7957,4.622,4.4211,4.2843,4.0654,3.9049,3.964,4.0801,4.233,4.4035,4.545,4.7094,4.9016,5.08,5.2927,5.528,5.9063,6.3193,6.7415,7.4076,7.8881,8.0818,8.279,8.4343,8.5193,8.5821,8.655,8.7722,8.861,8.9621,9.0689,9.1748,9.2551,9.3477,9.4796,9.583,9.6713,9.8205,9.9976,10.205,10.2917,10.4402,10.6409,10.7575,10.8788,0.0,11.1548,11.3288,11.506,11.6709,11.8075,11.9376,12.0849,12.2245,12.3253,0.0,0.0,0.0,0.0,0.0,0.0,0.0,0.0,0.0,0.0,0.0,1.3529,1.4953,1.4548,1.4453,0.0,0.0,0.0,0.0,0.0,0.0,0.0,0.0,0.0,0.0,0.0,0.0,0.0,1.8523,1.8442,1.8474,0.0,0.0,0.0,0.0,0.0,0.0,0.0,0.0,0.0,0.0,0.0,0.0,0.0,0.0,0.0,0.0,0.0,0.0,0.0,0.0,0.0,0.0,0.0,0.0,0.0,0.0,0.0,0.0,4.4431,4.557,4.5511,4.347,4.1124,4.0881,3.8898,0.0,4.0579,4.1756,4.3064,4.564,4.6691,4.7466,4.7982,5.0752,5.3256,5.3924,5.7468,6.1928,6.7121,7.1425,7.5333,7.8816,8.1081,8.3287,8.5696,8.5253,8.5848,8.7553,8.8273,8.8909,8.9993,9.1703,9.2504,9.2315,9.4117,9.5282,9.5456,9.732,9.9229,10.1317,10.205,10.3568,10.571,10.6516,10.737,10.8592,11.1344,11.3056,11.4056,11.7407,11.8791,11.9289,12.1235,12.2188,12.2847,0.0,0.0,0.0,0.0,0.0,0.0,0.0,0.0,0.0,0.0,0.0,1.3461,1.4227,1.442,0.0,0.0,0.0,0.0,0.0,0.0,0.0,0.0,0.0,0.0,0.0,0.0,0.0,1.6936,1.7086,1.7326,1.7498,1.8498,0.0,0.0,0.0,0.0,0.0,0.0,0.0,0.0,0.0,0.0,0.0,0.0,0.0,0.0,2.3071,2.4335,0.0,0.0,0.0,0.0,0.0,0.0,0.0,0.0,3.32,3.4687,3.6096,0.0,3.8078,3.8097,3.7689,3.7328,0.0,3.674,3.7089,3.9685,4.0829,4.2084,4.4709,4.5057,4.5848,4.8704,5.0676,5.2365,5.4229,6.0216,0.0,7.1284,7.5759,7.8676,7.9594,8.209,8.4137,8.572,8.5712,8.635,8.7553,8.8273,8.8909,8.9993,9.127,9.2406,9.3454,9.3221,9.3983,9.5316,9.7393,9.8786,9.9674,10.21,10.4021,10.5239,10.6269,10.7498,10.9024,11.0662,11.2087,11.3294,11.5902,11.7376,11.8345,12.0567,12.1839,12.2511,0.0,0.0,0.0,0.0,0.0,0.0,0.0,0.0,0.0,0.0,0.0,0.0,0.0,0.0,0.0,0.0,0.0,0.0,0.0,0.0,0.0,0.0,0.0,0.0,0.0,0.0,0.0,0.0,0.0,1.7695,0.0,0.0,0.0,0.0,0.0,0.0,0.0,0.0,0.0,0.0,1.8436,0.0,0.0,0.0,0.0,0.0,2.3119,2.4269,0.0,2.5931,2.7108,2.8587,0.0,0.0,0.0,0.0,3.2166,3.3151,3.2991,3.4029,3.5139,3.5124,3.514,3.5137,3.5137,3.5273,3.6182,3.8626,4.0241,4.1793,4.4264,4.4974,4.5919,4.8345,4.9892,5.2397,5.6602,6.1973,6.7113,7.1297,7.5201,7.8262,7.9552,8.1176,8.3142,8.604,8.563,8.5999,8.7169,8.8143,8.8777,8.9817,9.0744,9.1833,9.3024,9.3154,9.3631,9.4423,9.6983,9.882,9.9925,10.203,10.3934,10.5603,10.614,10.7213,10.874,11.0261,11.1729,11.2988,11.5481,11.6874,11.7937,12.0044,12.1187,12.1883,0.0,0.0,0.0,0.0,0.0,0.0,0.0,0.0,0.0,0.0,0.0,0.0,0.0,0.0,0.0,0.0,0.0,0.0,0.0,0.0,0.0,0.0,0.0,0.0,0.0,0.0,0.0,0.0,0.0,0.0,0.0,0.0,0.0,0.0,0.0,0.0,0.0,0.0,0.0,0.0,1.8016,0.0,0.0,0.0,0.0,0.0,0.0,0.0,0.0,2.6093,2.7054,2.8184,2.8676,0.0,0.0,0.0,0.0,0.0,3.1672,3.3124,3.472,3.4464,3.4264,3.4199,3.4336,3.4687,3.5599,3.8051,3.9902,4.1877,4.3894,4.5191,4.6407,4.7706,4.9919,5.3932,6.0653,6.4101,6.7278,7.0762,7.3971,7.6884,7.9599,8.0265,8.2152,8.6261,8.568,8.5524,8.6735,8.8073,8.896,8.9557,9.0989,9.2076,9.2694,9.377,9.4186,9.4192,9.7137,9.9406,10.1025,10.2241,10.3889,10.5904,10.5956,10.6681,10.8004,10.9768,11.1503,11.3226,11.5441,11.6983,11.81,12.0071,12.0976,12.1698,0.0,0.0,0.0,0.0,0.0,0.0,0.0,0.0,0.0,0.0,0.0,0.0,0.0,0.0,0.0,0.0,0.0,0.0,0.0,0.0,0.0,0.0,0.0,0.0,0.0,0.0,0.0,0.0,0.0,0.0,1.9413,2.0841,2.0831,0.0,0.0,0.0,0.0,0.0,0.0,0.0,1.875,0.0,0.0,0.0,0.0,0.0,0.0,0.0,0.0,2.6784,2.77,2.8612,2.9259,0.0,0.0,0.0,0.0,0.0,3.2227,3.3331,3.4107,3.3068,3.3743,3.4673,3.5143,3.5918,3.7035,3.8908,4.0111,4.1223,4.3299,4.3926,4.5028,4.7817,5.3223,5.9309,6.5705,0.0,7.1308,7.4946,7.7839,7.9624,8.0422,8.2249,8.4085,8.5868,8.5341,8.5574,8.6684,8.867,9.0086,9.0449,9.2676,9.4263,9.5197,9.5361,9.6069,9.6845,10.0011,10.1181,10.0783,10.3157,10.4551,10.5273,10.5536,10.6493,10.7844,10.951,11.1479,11.3721,11.5385,11.7405,11.9355,12.1305,12.2224,12.2673,0.0,0.0,0.0,0.0,0.0,0.0,0.0,0.0,0.0,0.0,0.0,0.0,0.0,0.0,0.0,0.0,0.0,0.0,0.0,0.0,0.0,0.0,0.0,0.0,0.0,0.0,0.0,0.0,0.0,2.0516,2.1075,2.1336,2.0873,1.9893,0.0,0.0,0.0,0.0,0.0,0.0,0.0,0.0,0.0,0.0,0.0,0.0,0.0,0.0,0.0,0.0,2.7633,2.8163,2.898,0.0,0.0,0.0,0.0,0.0,3.1228,3.2134,3.3011,3.3114,3.4101,3.518,3.5444,3.6143,3.7105,3.8517,3.923,4.0623,4.3118,4.44,4.6997,5.2164,5.6295,6.0826,6.5713,6.8517,7.1303,7.4289,7.6987,7.8976,8.0022,8.1645,8.3334,8.4884,8.51,8.5365,8.6005,8.7486,8.8991,9.0687,9.2292,9.4397,9.6573,9.7442,9.7814,9.7728,10.0884,10.2298,10.2184,10.4436,10.5641,10.5801,10.6168,10.6945,10.7914,10.9238,11.137,11.3976,11.5313,11.734,11.9714,12.1803,12.3797,12.5608,0.0,0.0,0.0,0.0,0.0,0.0,0.0,0.0,0.0,0.0,0.0,0.0,0.0,0.0,0.0,0.0,0.0,0.0,0.0,0.0,0.0,0.0,0.0,0.0,0.0,0.0,1.764,1.9074,2.0598,2.1979,2.2951,2.1933,2.0873,0.0,0.0,0.0,0.0,0.0,0.0,0.0,0.0,0.0,0.0,0.0,0.0,0.0,0.0,0.0,0.0,0.0,0.0,0.0,0.0,0.0,0.0,2.9067,2.9562,3.0259,3.0552,3.1414,3.2596,3.3853,3.4892,3.5698,3.6142,3.6952,3.7885,3.885,3.9674,4.0867,4.3249,4.6122,0.0,5.5786,5.9317,6.2454,6.6083,6.8964,7.1316,7.3696,7.6319,7.8501,7.9764,8.1107,8.249,8.3754,8.4503,8.5316,8.5644,8.7008,8.9013,9.1345,9.2855,9.4986,9.7658,9.9155,9.9482,9.8779,10.1654,10.3369,10.3636,10.5428,10.6264,10.6468,10.6739,10.7308,10.8228,10.9503,11.1808,11.4459,11.5752,11.8083,12.1031,12.3013,12.5513,12.787,0.0,0.0,0.0,0.0,0.0,0.0,0.0,0.0,0.0,0.0,0.0,0.0,0.0,0.0,0.0,0.0,0.0,0.0,0.0,0.0,0.0,0.0,0.0,0.0,0.0,1.7148,1.8184,1.9817,2.1482,2.2871,2.4022,2.2497,2.1104,1.9907,0.0,0.0,0.0,0.0,0.0,0.0,1.8213,0.0,0.0,0.0,0.0,0.0,0.0,0.0,0.0,0.0,0.0,0.0,0.0,0.0,2.9012,2.8993,2.9562,3.0442,3.1579,3.2735,3.3945,3.5174,3.5792,3.6578,3.8614,3.9644,4.0644,4.1894,4.25,4.2994,4.3557,4.8621,5.3562,5.6396,6.2187,6.7164,6.9855,7.2534,7.4774,7.63,7.822,7.9647,8.0236,8.1994,8.3002,8.2721,8.4171,8.5784,8.703,8.9486,9.188,9.3715,9.599,9.775,9.8786,9.9892,10.0804,10.1358,10.3458,10.45,10.4534,10.5756,10.6264,10.6468,10.6739,10.7416,10.8578,11.0664,11.2955,11.5408,11.772,12.1037,12.4626,12.6061,12.7401,12.8368,0.0,0.0,0.0,0.0,0.0,0.0,0.0,0.0,0.0,0.0,0.0,0.0,0.0,0.0,0.0,0.0,0.0,0.0,0.0,0.0,0.0,0.0,0.0,1.4576,1.6192,1.7355,1.885,2.0709,2.2952,2.4006,2.4082,2.2598,0.0,0.0,0.0,0.0,0.0,0.0,0.0,0.0,0.0,0.0,0.0,0.0,0.0,0.0,0.0,0.0,0.0,0.0,2.787,2.7773,2.9324,2.9745,2.9837,3.0332,3.0699,3.1121,3.1818,3.2881,3.4055,3.5009,3.6305,3.7892,4.0084,4.1762,4.3419,4.4989,4.5589,0.0,0.0,0.0,5.6801,6.0331,6.496,6.9055,7.156,7.3498,7.5344,7.723,7.8395,8.0065,8.2354,8.2587,8.3018,8.3955,8.5655,8.6621,8.6804,8.9404,9.1682,9.3921,9.4953,9.671,9.9118,9.9989,10.1268,10.2867,10.4007,10.4548,10.4606,10.5902,10.6355,10.6122,10.694,10.8272,11.0008,11.1607,11.3976,11.7111,12.0607,12.3489,12.6025,12.7302,12.8526,12.959,0.0,0.0,0.0,0.0,0.0,0.0,0.0,0.0,0.0,0.0,0.0,0.0,0.0,0.0,0.0,0.0,0.0,0.0,0.0,0.0,0.0,0.0,0.0,1.4484,1.6291,1.7869,1.9699,2.1686,2.413,2.4859,2.4082,0.0,0.0,0.0,0.0,0.0,0.0,0.0,0.0,0.0,0.0,1.9578,0.0,0.0,0.0,0.0,0.0,0.0,0.0,0.0,2.7888,2.7828,2.9568,3.0204,3.0351,3.1157,3.1358,3.1465,3.2107,3.2947,3.3933,3.4993,3.6905,3.9258,4.2254,4.3957,4.5745,4.8148,4.8721,4.9295,5.051,0.0,0.0,0.0,6.6272,6.9673,7.234,7.3953,7.5441,7.682,7.814,7.99,8.2201,8.2869,8.3495,8.4826,8.6908,8.803,8.817,9.0129,9.2176,9.4367,9.4994,9.6481,9.9194,10.0178,10.1696,10.3637,10.4438,10.4932,10.5137,10.6488,10.677,10.6433,10.7518,10.884,11.0362,11.2385,11.5554,11.9407,12.2807,12.5089,12.6628,12.8096,12.9284,13.0227,0.0,0.0,0.0,0.0,0.0,0.0,0.0,0.0,0.0,0.0,0.0,0.0,0.0,0.0,0.0,0.0,0.0,0.0,0.0,0.0,0.0,0.0,0.0,1.4654,1.6888,1.8665,2.0681,2.2722,2.4569,2.5069,2.4082,2.2151,0.0,0.0,0.0,0.0,0.0,0.0,0.0,0.0,0.0,2.0096,2.1294,0.0,0.0,0.0,0.0,0.0,0.0,0.0,2.7783,2.8058,2.969,3.0222,3.0387,3.1194,3.1465,3.154,3.2467,3.299,3.3675,3.5244,3.7611,4.0686,4.5306,4.642,4.7441,5.1328,5.1777,5.1541,5.1705,5.4376,0.0,6.2548,6.6168,6.9336,7.246,7.4392,7.54,7.54,7.7446,7.8934,7.9067,8.2078,8.4425,8.5053,8.7745,9.0042,9.1832,9.2364,9.3649,9.5789,9.674,9.7867,9.9194,10.0492,10.2151,10.4007,10.4865,10.5646,10.6346,10.7691,10.7965,10.7434,10.8442,10.8946,10.9303,11.3281,11.7677,12.2148,12.4183,12.5613,12.6703,12.87,12.9634,12.9809,0.0,0.0,0.0,0.0,0.0,0.0,0.0,0.0,0.0,0.0,0.0,0.0,0.0,0.0,0.0,0.0,0.0,0.0,0.0,0.0,0.0,0.0,0.0,0.0,0.0,0.0,2.1371,2.3348,2.4375,2.4149,0.0,0.0,0.0,1.978,0.0,0.0,0.0,0.0,0.0,0.0,0.0,2.0226,2.1579,0.0,0.0,0.0,0.0,0.0,0.0,0.0,0.0,0.0,3.0442,3.1231,3.1689,3.279,3.3239,3.3605,3.3842,3.523,3.6874,3.7915,3.9887,4.2837,4.8215,4.9297,5.0306,5.4595,5.6142,5.6862,5.6717,5.9653,0.0,6.4874,6.8127,7.1199,7.3327,7.433,7.513,7.6065,7.7065,7.8639,8.0587,8.3301,8.5411,8.6692,8.9913,9.2162,9.2459,9.3876,9.5255,9.6627,9.7319,9.8357,9.9641,10.0927,10.2569,10.4438,10.5461,10.6292,10.7022,10.812,10.8567,10.8768,10.9659,11.0978,11.2578,11.6365,11.886,12.0628,12.2092,12.4319,12.6552,12.6808,12.8261,12.9999,0.0,0.0,0.0,0.0,0.0,0.0,0.0,0.0,0.0,0.0,0.0,0.0,0.0,0.0,0.0,0.0,0.0,0.0,0.0,0.0,0.0,0.0,0.0,0.0,0.0,1.9135,2.0858,0.0,0.0,0.0,0.0,0.0,0.0,2.034,0.0,1.9374,0.0,0.0,0.0,1.9617,1.9835,2.0759,2.2004,0.0,0.0,0.0,0.0,0.0,0.0,0.0,0.0,0.0,3.0683,3.187,3.2955,3.4183,3.4664,3.5047,3.523,3.6612,3.839,3.9685,4.1677,4.4812,4.9991,0.0,0.0,0.0,5.8814,5.978,6.034,6.2466,6.4767,6.7536,6.9671,7.1697,7.3763,7.5562,7.6514,7.6792,7.8799,8.0635,8.2303,8.4998,8.7594,8.9486,9.2275,9.3843,9.4268,9.5198,9.6189,9.7045,9.762,9.8519,10.0178,10.1358,10.2867,10.4932,10.6016,10.7128,10.8173,10.8851,10.9468,10.9622,11.066,11.2578,11.5361,11.7255,11.899,12.0368,12.1068,12.3227,12.5683,12.5678,12.7584,12.9894,0.0,0.0,0.0,0.0,0.0,0.0,0.0,0.0,0.0,0.0,0.0,0.0,0.0,0.0,0.0,0.0,0.0,0.0,0.0,0.0,0.0,0.0,0.0,0.0,0.0,0.0,0.0,0.0,0.0,0.0,0.0,0.0,2.041,2.118,0.0,2.0643,0.0,2.0547,2.0452,2.0763,2.0886,2.1432,2.2423,2.3227,0.0,0.0,0.0,0.0,0.0,0.0,0.0,0.0,3.0302,3.2156,3.3982,3.5174,3.5558,3.5953,3.6633,3.771,3.9032,4.1247,4.3865,0.0,5.1465,5.5996,5.9266,5.9041,0.0,6.148,6.3093,6.3397,6.5229,6.976,7.0559,7.1426,7.4357,7.7095,7.8354,7.7368,8.1268,8.3915,8.3946,8.7096,9.038,9.2746,9.4089,9.5236,9.6386,9.6414,9.6686,9.7424,9.7765,9.8712,10.0524,10.1663,10.3311,10.5148,10.6256,10.7762,10.949,10.9861,11.0133,11.0478,11.1231,11.3668,11.7281,11.6722,11.8125,12.0468,12.0516,12.1978,12.4287,12.4891,12.7107,12.9619,0.0,0.0,0.0,0.0,0.0,0.0,0.0,0.0,0.0,0.0,0.0,0.0,0.0,0.0,0.0,0.0,0.0,0.0,0.0,0.0,0.0,0.0,0.0,0.0,0.0,0.0,0.0,0.0,0.0,0.0,0.0,0.0,0.0,2.1194,0.0,2.0917,2.0807,2.067,2.064,2.0844,2.1265,2.2242,2.3338,2.32,2.3982,0.0,0.0,0.0,0.0,0.0,0.0,0.0,2.9511,3.1371,3.3092,3.4262,3.5394,3.6308,3.7422,3.9266,4.1647,4.4758,5.0034,5.4703,5.5572,5.8387,6.0805,6.0618,6.2493,6.4557,6.5826,6.749,6.9272,7.0674,7.2202,7.3381,7.4584,7.6039,7.6964,7.6676,8.0367,8.2885,8.2772,8.8137,9.1636,9.1547,9.4175,9.5964,9.6563,9.6212,9.6615,9.8039,9.8372,9.9065,10.0524,10.2,10.3604,10.5148,10.6562,10.8091,10.949,11.0278,11.1502,11.2913,11.3016,11.3704,11.4801,11.5467,11.6267,11.7099,11.6594,11.9627,12.4061,12.2967,12.5703,12.9492,0.0,0.0,0.0,0.0,0.0,0.0,0.0,0.0,0.0,0.0,0.0,0.0,0.0,0.0,0.0,0.0,0.0,0.0,0.0,0.0,0.0,0.0,0.0,0.0,0.0,0.0,0.0,0.0,0.0,0.0,0.0,0.0,0.0,2.1222,0.0,2.1617,2.1852,2.1575,2.1544,2.1633,2.189,2.2564,2.358,2.3521,2.4068,2.5003,2.5391,0.0,0.0,0.0,0.0,0.0,0.0,0.0,3.3237,3.4175,3.5139,3.6402,3.8603,4.0713,4.3615,4.8443,0.0,5.7107,5.6658,5.9099,6.1508,6.1925,6.361,6.5633,6.6765,6.8065,6.9543,7.1352,7.2327,7.3489,7.5335,7.7142,7.833,7.9189,8.3012,8.5863,8.6722,9.0372,9.2952,9.3498,9.4519,9.5525,9.658,9.6436,9.7092,9.8291,9.8769,9.9514,10.1146,10.2537,10.4151,10.5706,10.7168,10.8479,10.9983,11.091,11.2063,11.3377,11.3052,11.3885,11.5166,11.5123,11.551,11.5984,11.5446,11.8354,12.2891,12.2061,12.5211,12.9386,0.0,0.0,0.0,0.0,0.0,0.0,0.0,0.0,0.0,0.0,0.0,0.0,0.0,0.0,0.0,0.0,0.0,0.0,0.0,0.0,0.0,0.0,0.0,0.0,0.0,0.0,1.5823,0.0,0.0,0.0,0.0,0.0,0.0,2.139,0.0,2.2342,2.2936,2.2427,2.2454,2.2677,2.2601,2.3047,2.3908,2.4283,0.0,2.4468,2.5718,2.5789,2.5473,2.662,0.0,0.0,0.0,0.0,3.3206,3.4,3.4848,3.6219,3.9483,4.2307,4.5743,5.162,5.5281,0.0,5.7305,5.9454,6.1687,6.283,6.4388,6.5735,6.689,6.7834,6.9205,7.1604,7.2401,7.3493,7.6195,7.8235,8.0271,8.1876,8.602,8.9421,9.0896,9.2506,9.3938,9.5724,9.4931,9.496,9.6577,9.6748,9.7322,9.8613,9.9065,10.0115,10.1848,10.3311,10.4865,10.6426,10.7664,10.9046,11.0553,11.1528,11.2359,11.3164,11.2657,11.3812,11.5968,11.4612,11.4737,11.5613,11.5037,11.7718,12.1759,12.1759,12.5027,12.8867,0.0,0.0,0.0,0.0,0.0,0.0,0.0,0.0,0.0,0.0,0.0,0.0,0.0,0.0,0.0,0.0,0.0,0.0,1.172,0.0,0.0,1.3842,1.3987,1.453,0.0,0.0,0.0,0.0,0.0,0.0,0.0,0.0,0.0,0.0,0.0,0.0,2.2694,2.2538,2.2766,2.3035,2.3665,2.4297,2.4985,0.0,0.0,0.0,0.0,2.6071,2.6032,2.6563,2.7123,0.0,0.0,0.0,3.1951,3.2735,3.3928,3.5668,3.8722,4.4164,5.0116,0.0,5.6379,5.8638,0.0,6.0548,6.1914,6.3514,6.5283,6.6886,6.7371,6.9271,7.0885,7.1899,7.3377,7.4835,7.6265,7.7613,7.915,8.0645,8.4874,8.8047,8.9105,9.2676,9.4789,9.4456,9.4577,9.5102,9.5911,9.6389,9.7165,9.8613,9.9386,10.0616,10.2151,10.3458,10.4832,10.6866,10.8827,11.0348,11.1296,11.1643,11.2359,11.3164,11.2657,11.3125,11.4181,11.293,11.3006,11.4015,11.3399,11.6744,12.1759,12.1759,12.4308,12.7351,0.0,0.0,0.0,0.0,0.0,0.0,0.0,0.0,0.0,0.0,0.0,0.0,0.0,0.0,0.0,1.1172,1.1582,1.1972,1.2257,1.2614,1.3126,1.3682,1.3986,1.4299,1.4636,0.0,0.0,0.0,0.0,0.0,0.0,2.0576,2.1545,0.0,0.0,0.0,0.0,0.0,0.0,2.3752,2.4027,2.4449,0.0,0.0,0.0,0.0,0.0,0.0,0.0,2.6954,2.747,2.7727,2.8111,0.0,0.0,0.0,3.2414,3.4144,3.9376,4.5386,5.1048,5.392,5.6171,5.7988,5.8874,6.0303,6.1767,6.3382,6.5299,6.699,6.7497,6.8953,7.0357,7.1921,7.3193,7.4766,7.6343,7.7648,7.9541,8.313,8.5516,8.8297,9.1615,9.3366,9.4391,9.4518,9.4662,9.5204,9.6267,9.677,9.7765,9.9226,9.9863,10.1082,10.2933,10.404,10.5706,10.783,10.9366,11.0348,11.0945,11.1564,11.247,11.3341,11.219,11.233,11.3196,11.1961,11.2061,11.2975,11.3033,11.5919,12.0184,12.0401,12.2726,12.547,0.0,0.0,0.0,0.0,0.0,0.0,0.0,0.0,0.0,0.0,0.0,0.0,0.0,0.0,0.0,0.0,1.1619,1.2139,1.2673,1.2874,1.3149,1.3534,1.3919,1.4051,1.4025,0.0,0.0,0.0,0.0,0.0,2.0933,2.1551,2.2983,0.0,2.3333,0.0,0.0,0.0,0.0,0.0,0.0,0.0,0.0,0.0,0.0,0.0,0.0,0.0,0.0,0.0,2.8081,2.798,2.824,2.9145,0.0,0.0,0.0,3.3875,3.9575,4.5025,4.956,5.2252,5.424,5.6076,5.7715,5.939,6.1269,6.3313,6.5128,6.6633,6.7687,6.874,7.0144,7.1889,7.3282,7.4675,7.6216,7.7609,7.9927,8.3965,8.5778,8.8348,9.2708,9.349,9.4073,9.4751,9.4828,9.5418,9.677,9.727,9.8225,9.9863,10.0648,10.1816,10.3604,10.5148,10.6866,10.8769,10.9738,11.0278,11.0791,11.1608,11.2439,11.3193,11.1827,11.1788,11.278,11.1813,11.2122,11.3203,11.3595,11.6032,11.9324,11.9468,12.1377,12.3665,0.0,0.0,0.0,0.0,0.0,0.0,0.0,0.0,0.0,0.0,0.0,0.0,0.0,0.0,1.2074,1.1765,1.1808,1.2014,1.2391,1.2457,1.2748,1.3448,1.3545,0.0,1.4283,1.424,0.0,0.0,0.0,0.0,2.0414,2.2022,2.4434,2.7353,2.5254,2.4344,2.451,0.0,0.0,0.0,0.0,0.0,0.0,0.0,0.0,0.0,0.0,0.0,0.0,0.0,0.0,0.0,2.8642,2.982,3.0849,0.0,0.0,0.0,3.8244,4.1563,4.5318,4.7761,5.0106,5.2502,5.6015,5.7796,5.9797,6.3052,6.4421,6.605,6.8087,6.9864,7.1209,7.2583,7.4195,7.5605,7.5747,7.7742,7.9722,8.0847,8.4755,8.7613,8.8878,9.2435,9.4751,9.4648,9.4934,9.5759,9.7135,9.8031,9.8842,9.9863,10.1848,10.3196,10.404,10.6596,10.835,10.9525,11.0105,11.0945,11.1758,11.2063,11.2302,11.2438,11.1611,11.196,11.3096,11.249,11.3229,11.4839,11.5311,11.7343,11.9932,12.0079,12.1005,12.2077,0.0,0.0,0.0,0.0,0.0,0.0,0.0,0.0,0.0,0.0,0.0,0.0,0.0,1.1925,1.1916,1.1822,1.2086,1.2501,1.3038,1.3474,1.3909,1.4163,1.4355,1.4422,1.4049,1.4185,0.0,0.0,0.0,1.9018,2.1356,2.2756,2.4515,2.6507,2.5409,2.5625,2.6589,2.6179,0.0,0.0,0.0,0.0,0.0,0.0,0.0,0.0,0.0,0.0,0.0,0.0,0.0,0.0,0.0,0.0,3.0715,3.1097,3.3338,3.6092,3.7457,4.0216,4.3285,4.5886,4.8439,5.0687,5.271,5.5218,5.7707,5.9873,6.1199,6.3084,6.6727,6.85,7.0048,7.2113,7.3677,7.4638,7.5234,7.8398,8.1581,8.3798,8.6751,8.9559,9.2498,9.3986,9.4828,9.5106,9.5789,9.6603,9.757,9.779,9.8723,10.0616,10.1364,10.3079,10.5844,10.7301,10.8479,10.949,11.0071,11.0791,11.1643,11.2099,11.2302,11.2438,11.2321,11.2592,11.3169,11.3113,11.377,11.4951,11.5386,11.6592,11.8093,11.8537,11.917,12.0137,0.0,0.0,0.0,0.0,0.0,0.0,0.0,0.0,0.0,0.0,0.0,0.0,0.0,0.0,1.203,1.203,1.2375,1.2879,1.3306,1.3987,1.4426,1.459,1.471,1.4619,1.4112,1.4278,0.0,0.0,0.0,0.0,0.0,0.0,2.4329,2.6067,2.5658,0.0,0.0,0.0,0.0,2.7985,0.0,0.0,2.9117,0.0,0.0,0.0,0.0,0.0,0.0,0.0,0.0,0.0,0.0,0.0,0.0,0.0,0.0,0.0,3.6316,0.0,0.0,4.3709,4.5737,4.7791,5.0508,5.2936,5.5323,5.768,5.9863,6.2316,6.5497,6.7454,6.9186,7.1558,7.2931,7.4062,7.4892,7.8027,8.1257,8.429,8.6845,8.9862,9.359,9.4513,9.5076,9.5619,9.6466,9.7178,9.7721,9.8059,9.9291,10.1945,10.2168,10.3928,10.7267,10.7796,10.8769,10.9773,11.0227,11.0791,11.1643,11.2099,11.2337,11.2334,11.2861,11.338,11.3571,11.3901,11.4705,11.5679,11.6127,11.6774,11.7491,11.7829,11.8424,11.902,0.0,0.0,0.0,0.0,0.0,0.0,0.0,0.0,0.0,0.0,0.0,0.0,0.0,0.0,0.0,1.2474,1.2811,1.3039,1.3355,1.3692,1.4126,1.4645,1.4423,1.44,1.4633,1.4633,0.0,0.0,0.0,0.0,0.0,0.0,2.3821,0.0,2.5945,2.6645,2.7971,0.0,2.9291,2.9735,0.0,2.9723,3.0551,0.0,0.0,0.0,3.5046,3.4975,0.0,0.0,0.0,0.0,0.0,0.0,0.0,0.0,0.0,0.0,0.0,0.0,0.0,4.0985,4.1848,4.3381,4.9275,5.1169,5.2922,5.6694,6.0418,6.3306,6.4931,6.6652,6.8817,7.0973,7.2482,7.3618,7.4868,7.6503,7.8803,8.2039,8.5088,8.8298,9.1291,9.3744,9.5619,9.6466,9.7104,9.7292,9.7552,9.8757,10.0719,10.3347,10.4254,10.5752,10.7892,10.8316,10.8989,10.9983,11.0313,11.0874,11.1908,11.2247,11.2228,11.2053,11.3438,11.4178,11.4376,11.4926,11.5886,11.7058,11.7524,11.7922,11.8081,11.8315,11.8656,11.8985,0.0,0.0,0.0,0.0,0.0,0.0,0.0,0.0,0.0,0.0,0.0,0.0,0.0,0.0,0.0,1.3684,1.3957,1.433,1.4866,1.5248,1.5492,1.6011,1.5725,1.5407,1.5047,1.5058,1.5325,1.5982,0.0,0.0,0.0,0.0,0.0,0.0,2.6432,2.7688,2.9035,2.8792,0.0,0.0,3.0526,3.1252,0.0,0.0,0.0,0.0,0.0,3.66,0.0,0.0,3.6254,3.462,0.0,0.0,0.0,0.0,0.0,0.0,3.4193,0.0,0.0,0.0,0.0,0.0,4.4531,4.7741,5.1176,5.4341,5.7592,6.1055,6.4638,6.6321,6.8109,7.0559,7.1845,7.3336,7.4929,7.778,8.0728,8.2786,8.671,9.0035,9.1986,9.439,9.5929,9.6634,9.6839,9.7255,9.784,9.9482,10.075,10.1512,10.3791,10.5785,10.7175,10.8332,10.9206,10.9983,11.0553,11.118,11.1908,11.2247,11.2228,11.2053,11.3608,11.4105,11.3976,11.5369,11.6403,11.7058,11.7524,11.7922,11.8081,11.8315,11.8581,11.8803,0.0,0.0,0.0,0.0,0.0,0.0,0.0,0.0,0.0,0.0,0.0,0.0,0.0,0.0,0.0,0.0,1.465,1.5196,1.565,1.5899,1.6154,1.6375,1.6155,1.5915,1.5526,1.5537,1.5893,1.6616,0.0,0.0,0.0,2.191,0.0,0.0,0.0,0.0,0.0,0.0,0.0,0.0,3.1605,0.0,0.0,3.3997,3.4822,0.0,0.0,0.0,3.8845,3.9258,3.8268,0.0,0.0,0.0,0.0,0.0,0.0,0.0,0.0,0.0,0.0,0.0,0.0,0.0,4.2495,4.5746,4.9112,5.1982,5.5559,5.9305,6.3182,6.5318,6.7305,6.983,7.1535,7.3318,7.5262,7.7976,8.0753,8.3284,8.6133,8.9082,9.2412,9.3922,9.5328,9.6937,9.7279,9.759,9.8245,9.9499,10.0378,10.1058,10.3665,10.5676,10.6867,10.8449,10.949,10.9983,11.0468,11.1039,11.1412,11.1637,11.1474,11.141,11.3175,11.3716,11.3551,11.5571,11.6624,11.701,11.7684,11.7904,11.8039,11.8571,11.8691,11.8581,0.0,0.0,0.0,0.0,0.0,0.0,0.0,0.0,0.0,0.0,0.0,0.0,0.0,0.0,0.0,0.0,1.5278,1.5721,1.6034,1.6305,0.0,1.6431,1.6349,1.6208,1.6064,1.6187,1.6541,1.7382,1.8012,1.9304,2.1047,2.1769,2.2871,2.4354,0.0,0.0,0.0,0.0,0.0,3.2016,3.2507,3.3161,0.0,0.0,3.5995,0.0,3.8977,4.0142,4.0738,4.1238,3.9779,0.0,0.0,0.0,0.0,0.0,3.4901,0.0,0.0,0.0,0.0,0.0,3.8482,0.0,4.2067,4.4733,4.7188,4.9891,5.4049,5.791,6.0666,6.3411,6.5912,6.7933,7.0705,7.3199,7.5587,7.746,7.9683,8.3247,8.4229,8.6841,9.2069,9.2747,9.4169,9.761,9.7899,9.8153,9.8605,9.9024,10.0021,10.1373,10.3795,10.5619,10.6757,10.8333,10.9529,10.9879,11.0173,11.0535,11.0704,11.0562,11.0471,11.0339,11.2279,11.3181,11.3172,11.5368,11.6484,11.6786,11.7787,11.798,11.7761,11.8786,11.8836,11.8505,0.0,0.0,0.0,0.0,0.0,0.0,0.0,0.0,0.0,0.0,0.0,0.0,0.0,0.0,0.0,0.0,0.0,1.6643,0.0,0.0,0.0,1.7543,1.7499,1.726,1.6797,1.7063,1.7468,1.7896,1.9054,2.0379,2.162,2.2705,2.3877,2.5221,0.0,0.0,0.0,0.0,0.0,3.3124,3.3786,0.0,3.7392,3.8359,3.9347,4.0561,4.208,4.3387,4.4008,0.0,4.2563,4.1002,0.0,0.0,0.0,0.0,0.0,0.0,0.0,0.0,0.0,0.0,0.0,0.0,4.0105,4.2974,4.6125,4.8901,5.2312,5.5277,5.7698,6.0317,6.2031,6.2076,6.6556,7.1611,7.5477,7.697,7.8796,8.1132,8.2998,8.5736,9.06,9.1829,9.3848,9.7355,9.7529,9.8052,9.9419,9.9873,10.0614,10.1853,10.377,10.5047,10.5401,10.7185,10.8452,10.9044,10.9283,10.9756,11.0668,11.0254,10.9908,10.9731,11.2063,11.2892,11.2483,11.4962,11.632,11.6675,11.7195,11.7461,11.7761,11.8189,11.8424,11.8505,0.0,0.0,0.0,0.0,0.0,0.0,0.0,0.0,0.0,0.0,0.0,0.0,0.0,0.0,0.0,0.0,0.0,0.0,0.0,0.0,0.0,0.0,1.794,1.7884,1.7367,1.7763,1.8215,1.8604,1.9669,2.0747,2.1989,2.3274,2.4409,2.5444,2.6369,0.0,0.0,0.0,3.1533,3.3813,3.4846,0.0,3.8306,4.0109,4.0838,4.1637,4.4056,4.5579,4.6234,4.491,4.4132,0.0,0.0,3.8797,3.8679,0.0,3.6831,3.6548,0.0,0.0,0.0,3.6216,0.0,0.0,0.0,4.1523,4.4581,4.7071,4.9676,5.2251,5.5089,5.7,5.8566,5.9784,6.4443,6.9047,7.1889,7.5894,7.8932,8.0596,8.2153,8.4468,8.8048,8.9905,9.2819,9.7091,9.7877,9.8527,9.9472,10.0028,10.0986,10.1914,10.3728,10.483,10.5328,10.6943,10.805,10.8587,10.8954,10.9269,10.95,10.9441,10.9197,10.9048,11.1082,11.1903,11.1917,11.3864,11.5257,11.6056,11.7095,11.7477,11.7561,11.837,11.8611,11.8393,0.0,0.0,0.0,0.0,0.0,0.0,0.0,0.0,0.0,0.0,0.0,0.0,0.0,0.0,0.0,0.0,0.0,0.0,0.0,0.0,0.0,0.0,1.8516,1.8483,1.8129,1.8394,1.8857,1.9381,2.0201,2.1187,2.2357,2.3732,2.4851,2.5617,2.6914,0.0,0.0,0.0,0.0,3.433,0.0,3.7401,3.8669,4.1131,4.198,4.2475,4.5691,4.7178,4.7553,4.5708,4.5273,4.4743,4.0895,4.0487,0.0,0.0,0.0,0.0,0.0,0.0,0.0,0.0,0.0,3.7892,0.0,0.0,0.0,4.4959,4.7048,4.9265,5.1936,5.3513,5.5036,5.721,6.1831,6.5394,6.634,7.263,7.7891,8.02,8.128,8.3271,8.6525,8.8451,9.154,9.6557,9.7396,9.8087,9.9019,10.0212,10.132,10.2305,10.3652,10.4784,10.5367,10.6562,10.7492,10.7868,10.8391,10.8493,10.8292,10.8445,10.8556,10.8542,11.0107,11.0961,11.1418,11.2876,11.4175,11.5289,11.6883,11.738,11.747,11.8706,11.8798,11.8431,1.013,1.0132,0.0,0.0,0.0,0.0,0.0,0.0,0.0,0.0,0.0,0.0,0.0,0.0,0.0,0.0,0.0,0.0,2.1,0.0,0.0,0.0,0.0,2.0048,1.9404,1.9484,1.9679,2.0074,2.1455,2.2421,2.2942,2.4716,2.5758,2.6248,2.762,0.0,0.0,0.0,3.3406,0.0,3.7523,3.8862,0.0,4.2012,4.3775,4.5389,4.8261,4.87,4.769,0.0,4.5585,4.4636,0.0,4.1988,4.1472,4.0502,0.0,0.0,0.0,0.0,0.0,0.0,3.7897,0.0,3.9182,0.0,4.1704,4.331,0.0,4.6939,4.782,0.0,0.0,5.0388,5.5881,6.0021,5.8977,6.5057,7.196,7.8277,7.9954,8.2908,8.8723,8.9359,9.1228,9.5324,9.3545,9.4141,9.8421,10.0318,10.1978,10.3734,10.3995,10.4208,10.4574,10.5244,10.5981,10.683,10.6942,10.7358,10.8034,10.7948,10.7951,10.8195,10.9771,11.0765,11.1455,11.2691,11.3957,11.5179,11.5628,11.638,11.7516,11.7997,11.839,11.858,0.0,0.0,0.0,0.0,0.0,0.0,0.0,0.0,0.0,0.0,0.0,0.0,0.0,0.0,0.0,0.0,0.0,2.1534,0.0,0.0,0.0,0.0,0.0,0.0,0.0,2.0063,2.0521,2.121,2.205,2.2891,2.3581,2.49,2.6019,2.6988,2.8061,0.0,3.1002,0.0,3.4601,0.0,0.0,0.0,0.0,4.3132,4.5423,4.7725,4.9522,4.9402,4.8152,4.7731,4.6973,0.0,0.0,0.0,0.0,4.1398,0.0,0.0,0.0,0.0,0.0,0.0,0.0,0.0,3.9199,4.0111,4.14,4.3043,0.0,0.0,0.0,0.0,0.0,0.0,5.4202,5.7061,5.703,6.1852,6.7449,7.2966,7.5041,7.8394,8.4363,8.504,8.6666,9.0499,9.1393,9.2971,9.5673,9.8487,10.0619,10.1847,10.2367,10.3166,10.4158,10.5035,10.5645,10.6459,10.6711,10.7011,10.7474,10.7593,10.7985,10.8609,10.9403,11.0211,11.0842,11.1449,11.2766,11.4264,11.4655,11.5862,11.7516,11.8006,11.8506,11.88,0.0,0.0,0.0,0.0,0.0,0.0,0.0,0.0,0.0,0.0,0.0,0.0,2.1274,2.1063,0.0,0.0,0.0,2.3926,0.0,0.0,2.2677,0.0,0.0,0.0,0.0,0.0,2.1174,2.1995,2.2593,2.3222,2.4162,2.5277,2.6474,2.7509,0.0,3.0243,3.2238,0.0,0.0,3.7505,3.9684,4.1409,4.256,4.4597,4.6788,4.9194,5.0392,4.9984,4.8734,4.8539,4.7895,4.7341,4.5673,4.4911,4.4377,0.0,0.0,0.0,3.9698,3.9987,4.0238,3.8481,3.8689,3.9372,3.9504,4.0202,4.1276,4.3085,4.4664,0.0,0.0,0.0,0.0,0.0,0.0,5.5252,5.4986,5.8891,6.3652,6.8174,7.187,7.5732,8.0477,8.0378,8.1673,8.5401,8.8365,9.0416,9.1465,9.6036,9.8685,9.9118,10.0518,10.1967,10.3653,10.4453,10.5389,10.6232,10.6535,10.6794,10.7015,10.7379,10.8021,10.8676,10.8979,10.9704,11.0388,11.0572,11.196,11.3713,11.4065,11.5651,11.7404,11.7782,11.8393,11.9015,1.1679,1.0989,0.0,0.0,0.0,0.0,0.0,0.0,0.0,0.0,0.0,0.0,0.0,0.0,0.0,0.0,0.0,2.6633,2.7169,0.0,2.5442,0.0,0.0,0.0,0.0,0.0,0.0,2.2459,2.3177,2.3901,2.4462,2.5978,2.7046,2.7833,2.9558,3.1182,3.2815,3.4593,3.6696,3.8894,4.0685,4.2682,4.4625,0.0,4.8264,4.9324,5.0784,5.0532,4.9334,4.8323,4.7999,4.7879,4.6953,4.6288,4.5909,4.5688,4.4709,4.3542,4.2941,4.2838,4.2411,4.1228,4.0445,3.9912,4.0203,4.0704,4.1453,4.3314,4.518,4.6834,4.8255,0.0,0.0,0.0,0.0,0.0,0.0,5.5236,6.0347,6.5646,7.1999,7.6901,7.9318,7.7208,7.7226,8.1263,8.3098,8.4666,8.5974,9.3025,9.696,9.6617,9.8618,10.0808,10.3314,10.3721,10.4573,10.5889,10.6232,10.631,10.6275,10.6945,10.7488,10.816,10.8711,10.9474,11.0425,11.0388,11.1796,11.3964,11.4188,11.5651,11.7404,11.699,11.783,11.9118,0.0,0.0,0.0,0.0,0.0,0.0,0.0,1.6379,0.0,0.0,0.0,0.0,0.0,0.0,2.6638,0.0,0.0,2.8364,2.8801,2.7876,0.0,0.0,0.0,2.3647,0.0,0.0,0.0,0.0,2.3844,2.4245,2.494,2.584,2.7017,2.8142,2.9363,3.1587,0.0,0.0,0.0,0.0,0.0,4.4375,4.5575,4.7743,4.8689,4.8955,5.1149,5.1012,4.9608,4.9812,4.9032,4.821,4.7982,4.6986,4.5842,4.5452,4.45,4.3724,4.3623,4.3652,4.3345,4.2141,4.1714,4.1426,4.0893,4.1712,4.3278,4.5632,4.7912,4.9557,4.9571,0.0,0.0,0.0,0.0,0.0,0.0,5.4948,5.8898,6.2814,6.6888,7.0186,7.2062,7.1903,7.2999,7.5919,7.8769,8.1574,8.4496,8.9825,9.3498,9.4875,9.7055,9.938,10.1877,10.2743,10.4089,10.5889,10.6529,10.6688,10.6718,10.7765,10.8343,10.8403,10.8878,10.9632,11.0425,11.0425,11.1833,11.3964,11.4188,11.5735,11.7457,11.7113,11.7793,11.8978,1.3004,0.0,0.0,0.0,0.0,0.0,0.0,0.0,0.0,0.0,2.2292,0.0,2.7155,0.0,2.8346,0.0,3.0846,3.0574,3.0045,2.9772,0.0,2.7811,2.6431,0.0,0.0,0.0,0.0,0.0,0.0,2.5046,2.5702,2.6197,2.707,2.8466,2.9578,3.1866,3.4849,0.0,3.9148,0.0,0.0,4.6206,4.6588,4.8554,4.9044,4.8822,5.1295,5.1567,5.0915,5.126,5.055,4.9465,4.9474,4.8384,4.7102,4.7101,4.6467,4.5688,4.5792,4.5742,4.5362,4.4498,4.4489,4.4344,4.3379,4.4284,4.5962,4.7749,4.9133,5.0235,5.067,0.0,0.0,0.0,0.0,0.0,0.0,5.5078,5.7731,6.056,6.3349,6.5691,6.7612,6.866,7.0079,7.2106,7.595,7.9078,8.0958,8.6216,8.9607,9.0693,9.3741,9.6662,9.9906,10.1039,10.3142,10.5738,10.6262,10.6608,10.6458,10.773,10.8236,10.8403,10.8979,10.9668,11.0388,11.0809,11.218,11.4102,11.4557,11.5873,11.7494,11.715,11.7643,11.8568,0.0,0.0,0.0,0.0,1.3335,0.0,0.0,0.0,1.9977,0.0,2.436,2.6651,2.9533,3.0548,3.1252,3.2161,3.3284,0.0,3.1215,3.1991,0.0,0.0,2.9504,2.9292,2.9292,0.0,0.0,0.0,0.0,2.6391,2.6717,2.7101,2.7717,2.8641,3.0252,0.0,3.4326,3.602,3.908,4.2707,4.6091,4.7473,4.7657,4.9211,4.9472,4.9093,5.1347,5.2498,5.2777,5.3062,5.2429,5.1765,5.1455,5.0425,4.9541,5.0241,4.9999,4.9295,4.9494,4.9028,4.8479,4.8216,4.8265,4.8215,4.7267,4.8298,4.9258,4.9578,4.9116,4.9435,5.1662,5.0503,0.0,0.0,0.0,0.0,0.0,5.5421,5.6749,5.9131,6.1503,6.3735,6.5943,6.7318,6.8564,6.9911,7.4361,7.6716,7.5832,8.2095,8.5274,8.4691,8.8926,9.3199,9.7462,9.9037,10.1699,10.5424,10.5843,10.5924,10.5889,10.6864,10.7595,10.8055,10.9051,10.9837,11.0498,11.1614,11.2926,11.4385,11.5198,11.6269,11.7404,11.699,11.7193,11.7852,1.4341,1.4414,1.4457,0.0,1.5272,1.616,0.0,0.0,0.0,0.0,2.6149,2.8459,3.0831,3.1999,3.2921,3.3955,3.4161,0.0,0.0,0.0,0.0,3.3399,3.211,3.179,3.2589,3.0529,0.0,3.0616,0.0,2.7861,2.8077,2.7983,2.8361,2.9271,3.0918,3.2788,3.5208,3.6896,3.9626,4.2898,4.5019,4.6095,4.6237,4.7972,4.8857,4.9437,5.1799,5.2899,5.3125,5.3115,5.2638,5.225,5.2315,5.1499,5.0414,5.0722,5.0348,5.008,5.0107,4.9896,4.977,5.0231,4.9815,4.9222,4.9162,4.929,5.0227,5.2432,5.2569,5.221,5.1849,5.1217,4.9723,0.0,0.0,0.0,0.0,5.5271,5.7196,5.9204,6.0462,6.1828,6.3507,6.4833,6.6388,6.8112,7.0403,7.3076,7.6037,7.9736,8.2869,8.5433,8.7988,9.1919,9.7303,9.7789,10.0269,10.5001,10.6016,10.6181,10.5959,10.8146,10.9126,10.9053,11.0729,11.1275,11.1409,11.2418,11.3403,11.4385,11.5198,11.6523,11.7885,11.7938,11.7904,11.8137,1.522,0.0,0.0,1.5713,0.0,0.0,1.821,0.0,0.0,2.4466,2.7197,0.0,3.1623,3.2903,3.4276,3.5168,3.5612,0.0,3.5333,0.0,0.0,3.5118,3.4553,3.4437,3.5017,3.3054,0.0,3.2896,0.0,2.8923,2.9109,2.8565,2.8725,2.9509,3.1164,3.2951,3.5285,3.8109,4.0794,4.3446,4.5568,4.6813,0.0,4.8772,5.0173,5.1539,5.2799,5.3362,5.3291,5.3928,5.3711,5.3246,5.3453,5.2914,5.1976,5.1998,5.1892,5.1927,5.1722,5.1998,5.2439,5.2782,5.2995,5.282,5.2825,5.295,5.3499,5.4964,5.4895,5.4275,5.3679,5.2487,5.0647,0.0,0.0,0.0,0.0,5.5785,5.7898,5.8297,6.0178,6.1707,6.2003,6.403,6.5837,6.7036,6.9085,7.162,7.4629,7.754,8.0742,8.4407,8.7295,9.0623,9.4651,9.5841,9.8152,10.1417,10.3221,10.4402,10.5172,10.8119,10.9589,10.9944,11.1579,11.2195,11.2175,11.3388,11.4301,11.4865,11.6021,11.7152,11.82,11.8277,11.8393,11.852,0.0,0.0,0.0,0.0,0.0,0.0,0.0,2.1135,0.0,2.5613,0.0,3.0791,3.2172,3.3945,3.5274,3.6428,0.0,3.7059,3.6551,3.7179,3.7292,3.6292,3.6693,3.7118,3.718,3.5616,0.0,0.0,0.0,3.0001,2.9986,2.9161,2.9019,2.9635,3.1251,3.3011,0.0,3.9519,4.2118,4.3931,4.6648,4.8353,4.9583,5.046,5.2176,5.3918,5.4176,5.3836,5.3768,5.4818,5.4972,5.4338,5.4754,5.4443,5.3595,5.3749,5.4025,5.4016,5.3643,5.4512,5.543,5.5371,5.6322,5.727,5.7028,5.7214,5.7614,5.7414,5.6494,5.5688,5.617,5.4038,5.1921,5.1003,5.0947,5.1588,5.333,5.6651,5.8584,5.8019,6.0805,0.0,6.1721,6.409,6.5837,6.6256,6.8825,7.1018,7.2429,7.5399,7.8791,8.2368,8.6384,8.9397,9.1318,9.3915,9.5786,9.6837,9.964,10.1897,10.3958,10.745,10.959,11.094,11.2177,11.2764,11.305,11.4378,11.5326,11.5802,11.7181,11.7965,11.8429,11.843,11.858,11.8907,0.0,0.0,0.0,0.0,0.0,2.0781,2.2305,2.4021,2.5828,2.8227,3.0196,3.2036,3.419,3.5051,3.5821,3.6781,3.748,0.0,0.0,0.0,0.0,3.933,3.9303,3.9711,4.0236,3.9,3.8146,0.0,0.0,3.2495,3.1532,3.0451,2.9832,2.9749,3.1498,3.3873,3.7065,3.9657,4.1913,4.4142,4.7092,4.8613,4.9634,5.1761,5.2777,5.3073,5.4408,5.5249,5.5933,5.6087,5.5612,5.5229,5.5438,5.4717,5.4169,5.4649,5.4635,5.45,5.4407,5.4958,5.5824,5.632,5.7419,5.8253,5.8781,5.881,5.9048,6.0049,5.8369,5.6598,5.7259,5.4788,5.3005,5.4002,5.3407,5.452,5.8843,5.8174,5.8608,6.2301,6.3052,6.3824,6.5111,6.4317,6.4095,6.5157,6.6674,6.8657,7.115,7.3365,7.6876,8.1989,8.448,8.7687,9.1693,9.3323,9.4902,9.6649,9.9528,10.1618,10.3186,10.7659,11.0196,11.094,11.3262,11.4244,11.3853,11.5479,11.6351,11.691,11.7687,11.8118,11.8159,11.8693,11.8643,11.8256,0.0,0.0,0.0,0.0,0.0,0.0,0.0,2.6908,2.8574,2.901,3.0995,3.2839,3.3905,3.5595,3.6992,3.7844,3.833,3.911,3.9996,3.996,4.024,4.078,4.0643,4.0978,4.1518,4.0434,3.9405,3.8707,3.5963,3.3601,3.2189,3.1735,3.1071,3.0447,3.2484,3.5119,3.7985,3.9934,4.2692,4.5876,4.7717,4.9684,5.1343,5.2815,5.3716,5.4587,5.5429,5.6421,5.7092,5.651,5.616,5.5878,5.5878,5.5684,5.5412,5.5393,5.5767,5.6037,5.5601,5.6422,5.7439,5.7851,5.8618,5.9408,6.043,6.0462,6.0744,6.1315,6.0571,5.9698,5.9082,5.6887,5.4968,5.4765,5.4708,5.5179,5.6565,5.8218,6.0,6.1987,6.3827,6.5034,6.5156,6.4381,6.4374,6.5771,6.629,6.7781,7.0726,7.2274,7.5638,8.1215,8.394,8.7151,9.076,9.3031,9.4813,9.6393,9.9431,10.2224,10.4573,10.8447,11.0982,11.2405,11.4251,11.4923,11.4714,11.5992,11.6763,11.7312,11.7879,11.8197,11.8315,11.884,11.8601,11.8099,0.0,2.0938,0.0,0.0,2.3234,2.4889,2.6745,2.9424,3.0998,3.0092,3.1963,3.3586,3.3882,3.6056,3.7556,3.8623,3.9086,3.9936,4.0976,4.0952,4.102,4.1692,4.1486,4.1772,4.2208,4.1373,4.0364,0.0,3.6774,3.4751,3.2707,3.2953,3.2605,3.2146,3.4271,3.6366,3.8875,4.0964,4.3964,4.7634,4.8629,5.0494,5.2829,5.3663,5.4569,5.5825,5.6708,5.7437,5.7932,5.711,5.6528,5.6391,5.6549,5.6676,5.6532,5.6403,5.687,5.7475,5.6802,5.7796,5.9061,5.9141,5.999,6.0896,6.1899,6.2118,6.2304,6.2833,6.3162,6.2888,6.1202,5.9554,5.7969,5.6589,5.6884,5.7082,5.6063,5.9815,6.2523,6.2351,6.5525,6.6736,6.4813,6.4983,6.5615,6.6209,6.6192,6.7361,7.0199,7.1812,7.5104,8.0371,8.3532,8.6813,9.0161,9.2866,9.5037,9.6549,9.9548,10.276,10.6032,10.9055,11.1587,11.3546,11.4739,11.5262,11.5584,11.641,11.7021,11.7442,11.7922,11.8237,11.843,11.8913,11.845,11.779,0.0,0.0,0.0,0.0,0.0,2.7464,2.8931,3.0751,3.2265,3.2476,3.3446,3.4681,3.6149,3.649,3.7397,3.8903,3.9615,4.0225,4.1269,4.1507,4.1967,4.2189,4.3124,4.3193,4.2889,4.3138,4.2367,4.0285,3.848,3.629,3.4359,3.3856,3.4319,3.5324,3.653,3.8179,4.0332,4.2996,4.5697,4.8098,4.9567,5.0979,5.2186,5.4047,5.4833,5.5228,5.711,5.7914,5.7969,5.7932,5.762,5.7433,5.7511,5.7333,5.7227,5.7627,5.7776,5.7629,5.7533,5.8486,5.9801,5.9761,6.1097,6.2416,6.301,6.3249,6.3813,6.5597,6.6112,6.54,6.3114,6.2636,6.2586,6.2208,6.1961,6.2861,6.6066,6.593,6.6096,6.7854,7.0127,7.0129,6.6491,6.7415,6.7261,6.4919,6.5638,6.6874,6.846,7.1682,7.5306,7.9425,8.2545,8.6258,9.0615,9.3072,9.5171,9.6953,10.0229,10.2879,10.5146,10.8947,11.1543,11.2958,11.4448,11.5734,11.6624,11.6886,11.7181,11.7359,11.7922,11.8237,11.843,11.902,11.8281,11.7123,0.0,0.0,0.0,0.0,0.0,2.8786,3.1054,3.2465,3.346,3.4021,3.4852,3.5756,3.6997,3.7767,3.8573,3.9679,4.0435,4.1022,4.1603,4.2255,4.2614,4.3256,4.3893,4.4137,4.4323,4.4002,4.2963,4.1485,3.9536,3.7277,3.4573,3.4449,3.5284,3.655,3.8139,4.0164,4.243,4.4608,4.6934,4.8897,5.0005,5.1166,5.2303,5.4263,5.5121,5.5662,5.742,5.7969,5.7969,5.7969,5.7949,5.7994,5.7799,5.785,5.8178,5.8138,5.8302,5.8625,5.8574,5.9379,6.026,6.0775,6.1768,6.3076,6.4129,6.4548,6.5154,6.6659,6.668,6.6179,6.5198,6.4152,6.3167,6.2707,6.2745,6.3014,6.358,6.5637,6.7072,6.71,6.9303,6.961,6.6589,6.6108,6.5575,6.4524,6.4725,6.5674,6.7751,7.0141,7.331,7.7279,8.0344,8.4932,9.1268,9.3916,9.7479,10.1903,10.3707,10.5701,10.8021,11.0085,11.2273,11.4498,11.5189,11.5956,11.6712,11.68,11.7107,11.7606,11.8039,11.8315,11.8506,11.8982,11.8644,11.7811,2.7704,2.76,2.8038,2.959,2.9739,3.0557,3.3103,3.374,3.4641,3.5893,3.6452,3.7001,3.7586,3.8836,3.9885,4.0448,4.0986,4.1603,4.1897,4.2568,4.3276,4.3802,4.4235,4.4771,4.5172,4.471,4.3753,4.2309,4.1002,3.8839,3.612,3.6248,3.7244,3.8725,4.07,4.272,4.4737,4.6517,4.8361,4.9761,5.0579,5.136,5.2233,5.4104,5.4979,5.568,5.7329,5.8114,5.8225,5.8225,5.8713,5.8883,5.8368,5.8613,5.9014,5.8971,5.9131,5.9528,5.9636,6.0137,6.0944,6.1661,6.2716,6.3946,6.5077,6.5898,6.682,6.8033,6.7523,6.7033,6.7399,6.5585,6.3899,6.3473,6.4256,6.4505,6.3293,6.7015,6.9079,6.697,6.9325,6.9518,6.5681,6.5306,6.4876,6.4003,6.4355,6.5408,6.746,6.978,7.2415,7.5639,7.8893,8.37,9.0308,9.3743,9.8325,10.4001,10.5417,10.7457,10.9977,11.1475,11.3326,11.5298,11.5641,11.623,11.6675,11.6936,11.7312,11.7687,11.8118,11.8354,11.8728,11.9091,11.8871,11.8406,2.99,3.0277,3.0654,3.1375,3.2086,3.3055,3.4312,3.5005,3.6161,3.8468,3.8746,3.8647,3.8386,3.9597,4.0448,4.0735,4.1527,4.1897,4.2178,4.3206,4.3802,4.3802,4.4727,4.5128,4.4806,4.5516,4.5026,4.3358,4.2714,4.1382,3.9465,3.9777,4.0705,4.2497,4.4959,4.6362,4.7243,4.8898,5.0215,5.0888,5.121,5.1508,5.2117,5.3678,5.4532,5.5157,5.6783,5.8111,5.8899,5.8899,5.9825,6.0549,6.0079,5.9722,5.9495,6.0201,6.0276,6.0012,6.0012,6.1017,6.2088,6.2698,6.3839,6.4986,6.6169,6.7257,6.8481,6.9968,6.919,6.8463,6.9382,6.7409,6.5592,6.5587,6.7246,6.8569,6.8704,7.2057,7.3061,6.9266,7.1768,7.091,6.3689,6.5849,6.6293,6.2892,6.4721,6.6433,6.7427,7.1029,7.3573,7.4719,7.8364,8.261,8.7327,9.1983,9.6487,10.122,10.4217,10.7239,11.0157,11.3005,11.4377,11.4477,11.6011,11.6712,11.6837,11.7442,11.7687,11.765,11.82,11.8581,11.8873,11.9123,11.8871,11.852,3.0772,3.1288,3.2102,3.3148,3.3327,3.3942,3.555,3.6138,3.6648,3.7999,3.9185,3.9781,4.0199,4.0691,4.1209,4.1819,4.1845,4.2458,4.3262,4.376,4.4346,4.4625,4.5523,4.5816,4.5494,4.549,4.5122,4.4367,4.2788,4.1493,3.9831,4.0379,4.1571,4.3675,4.6189,4.7853,4.8795,5.0208,5.0869,5.0869,5.1235,5.1601,5.2233,5.3804,5.4765,5.5626,5.7,5.8111,5.8899,5.8899,5.9844,6.0764,6.0568,6.0631,6.0512,6.063,6.0501,6.0652,6.102,6.148,6.2151,6.3633,6.4569,6.558,6.7116,6.865,6.9735,6.9865,6.9502,6.9279,6.948,6.7935,6.6841,6.7587,6.8938,7.0091,7.0475,7.2613,7.3082,7.012,7.1808,7.1643,6.781,6.9531,7.0583,6.9724,6.9398,6.8681,6.7361,7.0664,7.3398,7.5444,7.9202,8.3373,8.7844,9.2306,9.6724,10.1069,10.4809,10.8428,11.1974,11.3769,11.491,11.5225,11.546,11.5983,11.6675,11.6718,11.724,11.8002,11.8352,11.8693,11.9123,11.9161,11.945,11.9595,3.1634,3.2333,3.3293,3.4548,3.4913,3.5461,3.6953,3.7648,3.8412,3.908,4.0084,4.1274,4.1799,4.1799,4.2015,4.2392,4.2285,4.2592,4.3666,4.3885,4.4473,4.5254,4.5918,4.6328,4.6621,4.6423,4.623,4.6275,4.446,4.2919,4.2051,4.2498,4.3789,4.5982,4.7997,4.9393,5.0148,5.1125,5.1354,5.1166,5.1653,5.2181,5.248,5.3876,5.4998,5.611,5.7212,5.8303,5.9382,5.9551,6.0314,6.1232,6.1232,6.131,6.1422,6.1192,6.119,6.1319,6.2149,6.2385,6.2794,6.4702,6.5552,6.653,6.8649,6.9958,7.0852,7.1186,7.0446,7.003,7.066,6.9078,6.8024,6.9103,7.0479,7.1712,7.2314,7.3511,7.3657,7.1362,7.2179,7.2013,6.958,7.1872,7.335,7.3312,7.3169,7.2541,7.1103,7.2809,7.5288,7.8369,8.2048,8.5567,8.8834,9.3272,9.7258,10.0772,10.5785,10.95,11.2006,11.3769,11.4448,11.429,11.5277,11.5997,11.6406,11.6847,11.7437,11.82,11.8468,11.8913,11.9193,11.9301,11.9705,12.0075,3.2495,3.3368,3.4042,3.5279,3.6535,3.7548,3.8604,3.9489,4.0393,4.143,4.1895,4.2337,4.3086,4.31,4.2993,4.2739,4.2445,4.2659,4.3707,4.4179,4.4515,4.5297,4.5758,4.6358,4.7641,4.7831,4.8048,4.8658,4.6904,4.5653,4.5623,4.6085,4.7176,4.8856,5.0092,5.1005,5.1644,5.1806,5.1868,5.2117,5.2563,5.2812,5.3043,5.414,5.5328,5.642,5.727,5.8608,6.0187,6.0591,6.1213,6.1738,6.1738,6.1699,6.1854,6.1923,6.1874,6.1908,6.3162,6.3492,6.4161,6.5786,6.6641,6.7843,7.0587,7.1216,7.1672,7.3252,7.203,7.1098,7.2361,7.0663,6.9214,7.0221,7.1675,7.3237,7.4439,7.5001,7.4538,7.2981,7.3082,7.2372,7.0006,7.3448,7.5371,7.4622,7.6187,7.7421,7.776,7.7479,7.9042,8.2917,8.6515,8.8991,9.0145,9.4748,9.8311,10.0714,10.6969,11.0102,11.0517,11.3139,11.3435,11.2328,11.5277,11.6332,11.5994,11.7395,11.8237,11.8354,11.8878,11.9128,11.9193,11.94,11.9733,11.9875,3.3533,3.4789,3.5828,3.5815,3.6523,3.7739,3.9367,4.018,4.0747,4.1947,4.2543,4.2841,4.3086,4.31,4.3167,4.3314,4.306,4.3535,4.5112,4.4894,4.5106,4.6354,4.6562,4.6357,4.6269,4.7073,4.7583,4.7971,4.6904,4.6722,4.7832,4.7842,4.8553,5.0076,5.0608,5.1341,5.1772,5.2228,5.2341,5.2563,5.2794,5.3256,5.414,5.4387,5.5539,5.6843,5.7166,5.8382,6.0129,6.0245,6.1193,6.2437,6.2437,6.2881,6.3033,6.2823,6.275,6.2901,6.3791,6.3941,6.441,6.6312,6.8175,6.9941,7.1413,7.2114,7.2508,7.2951,7.3011,7.2782,7.2321,7.1587,7.1217,7.1756,7.3754,7.5597,7.6486,7.6903,7.7211,7.7283,7.776,7.7937,7.7825,8.104,8.2432,8.0647,8.0637,8.1314,8.2387,8.3408,8.3959,8.3867,8.7759,9.0293,9.0977,9.5046,9.9565,10.4608,10.6739,10.8929,11.1044,11.2285,11.3164,11.3896,11.4626,11.5714,11.7024,11.7222,11.7753,11.8543,11.8985,11.9161,11.9193,11.94,11.9835,12.0213,3.4226,3.5852,3.6989,3.7388,3.8344,3.9527,4.0754,4.1623,4.2221,4.2781,4.328,4.3714,4.3714,4.3821,4.3968,4.4142,4.3501,4.3724,4.5594,4.5174,4.5432,4.6972,4.7211,4.7449,4.7375,4.791,4.859,4.8658,4.8089,4.8185,4.9174,4.9217,4.9909,5.1292,5.1548,5.2098,5.2639,5.2736,5.2997,5.3021,5.3539,5.391,5.4616,5.5026,5.586,5.7058,5.7891,5.9112,6.0361,6.1035,6.22,6.2927,6.2961,6.3364,6.3535,6.3732,6.3758,6.3865,6.477,6.5052,6.5452,6.7341,6.9524,7.1413,7.2233,7.2821,7.3357,7.3893,7.3972,7.3915,7.3453,7.3545,7.3606,7.397,7.6087,7.7842,7.882,7.8532,7.8656,7.9698,8.0156,8.0494,8.0798,8.3798,8.5136,8.3456,8.3338,8.4059,8.5472,8.755,8.8491,8.801,9.1689,9.4082,9.4833,9.7921,10.1859,10.6196,10.69,10.8746,11.1492,11.2483,11.3342,11.414,11.5235,11.6189,11.6966,11.7487,11.8055,11.8693,11.9128,11.9338,11.9407,11.961,11.9873,12.0303,3.4936,3.6428,3.7907,3.8667,4.0246,4.1395,4.1948,4.3111,4.3848,4.3634,4.4075,4.4436,4.4436,4.469,4.4877,4.4877,4.3928,4.3981,4.5818,4.5496,4.6057,4.7367,4.8074,4.8553,4.9364,4.9653,5.0028,5.0028,4.966,4.9636,5.014,5.0529,5.1314,5.251,5.2597,5.3135,5.3529,5.35,5.3422,5.355,5.4319,5.4845,5.4881,5.5988,5.6583,5.7042,5.8692,5.9649,6.0437,6.2105,6.2913,6.3319,6.3675,6.3826,6.4056,6.4496,6.4915,6.518,6.5837,6.625,6.6841,6.8702,7.068,7.2353,7.2941,7.3478,7.4236,7.5261,7.5334,7.5421,7.5538,7.6103,7.6479,7.6637,7.7979,7.9373,8.089,7.9988,7.9875,8.1562,8.1967,8.2281,8.2543,8.5024,8.6068,8.5073,8.5572,8.6415,8.7538,9.0382,9.2339,9.3202,9.6181,9.8436,9.9446,10.1417,10.3668,10.6294,10.7248,10.8952,11.1371,11.2981,11.3692,11.3771,11.6206,11.7003,11.6798,11.8015,11.8693,11.8985,11.9231,11.9369,11.9468,11.9705,11.99,12.0317,3.6698,3.7742,3.8691,3.844,3.9579,4.0996,4.1701,4.2402,4.2914,4.3888,4.4222,4.4436,4.4436,4.469,4.4877,4.4877,4.4703,4.5171,4.6812,4.6252,4.674,4.8788,4.8792,4.8944,4.9818,4.9788,5.0283,5.151,5.0673,5.0862,5.2362,5.1749,5.2202,5.3383,5.3225,5.3131,5.3529,5.3795,5.39,5.4266,5.5008,5.5739,5.6286,5.6676,5.7495,5.8115,5.8121,5.926,6.0758,6.1341,6.2462,6.388,6.4164,6.4725,6.5183,6.5868,6.6487,6.6769,6.6527,6.7626,6.9075,7.0492,7.1633,7.2877,7.3904,7.4579,7.5261,7.5832,7.7634,7.8917,7.8446,7.9362,8.0003,7.8992,7.854,7.8984,8.0803,8.1153,8.2092,8.5027,8.6203,8.7311,8.8881,8.9711,8.9703,8.8744,8.916,8.9378,8.9035,9.2139,9.4521,9.5823,9.7871,9.9625,10.0952,10.1752,10.3175,10.5459,10.724,10.8575,10.9783,11.2595,11.3901,11.389,11.5577,11.6898,11.7894,11.8618,11.8876,11.902,11.9505,11.9639,11.9468,11.9705,12.0001,12.0327,3.7271,3.8477,3.9556,3.9025,4.0586,4.1803,4.1904,4.2938,4.3797,4.4209,4.4356,4.4543,4.4877,4.5024,4.5171,4.5344,4.5344,4.5901,4.7512,4.6784,4.7196,4.8932,4.9665,5.0276,5.0792,5.0212,5.0345,5.157,5.0954,5.1383,5.2776,5.2937,5.3075,5.3713,5.4,5.4214,5.4318,5.4425,5.4745,5.5267,5.5786,5.623,5.6532,5.7362,5.7855,5.8195,5.8821,6.0006,6.1508,6.2121,6.3717,6.5324,6.5515,6.6076,6.6866,6.6819,6.7016,6.723,6.7483,6.8613,6.9901,7.093,7.2938,7.5004,7.5257,7.6833,7.8179,7.8205,7.9694,8.0851,7.9921,8.1221,8.2227,8.1505,8.1486,8.227,8.422,8.485,8.5796,8.7871,8.8824,8.965,9.0525,9.039,8.9996,8.9612,8.9712,9.0234,9.1712,9.3769,9.5643,9.759,9.9256,10.0547,10.1651,10.1607,10.3143,10.6424,10.7434,10.9126,11.1336,11.3765,11.4892,11.4927,11.6467,11.7624,11.8044,11.8581,11.8948,11.9091,11.9407,11.961,11.9677,11.9781,11.9873,12.0217,3.8096,3.94,4.0235,4.032,4.1749,4.272,4.231,4.3544,4.4543,4.4543,4.4583,4.4797,4.5277,4.5384,4.5491,4.5705,4.5732,4.6607,4.8044,4.7316,4.7751,4.9506,5.0499,5.1378,5.1915,5.0808,5.0818,5.1534,5.1429,5.1763,5.3029,5.3603,5.3738,5.3958,5.4608,5.4889,5.506,5.5164,5.5499,5.5968,5.675,5.6853,5.6967,5.7836,5.8197,5.8444,5.9468,6.0854,6.218,6.3225,6.4934,6.6762,6.6597,6.7347,6.8016,6.7775,6.7733,6.7992,6.8591,6.9424,7.0716,7.1817,7.4664,7.7129,7.7407,7.9353,8.1025,8.0728,8.1817,8.2791,8.1839,8.3372,8.4405,8.327,8.3672,8.4641,8.6251,8.688,8.7916,8.957,9.0464,9.108,9.1204,9.0744,9.0405,9.0643,9.0771,9.1723,9.3975,9.5307,9.7036,9.8993,10.0341,10.1253,10.1881,10.2258,10.4296,10.7732,10.8534,11.0334,11.2868,11.4965,11.5731,11.5358,11.7233,11.7965,11.8081,11.8506,11.8876,11.9193,11.9338,11.9505,11.9798,11.9798,11.9873,12.0089,3.9626,4.0444,4.084,4.1613,4.2641,4.3369,4.3343,4.4101,4.4837,4.4837,4.509,4.5277,4.5318,4.5558,4.5705,4.5745,4.6307,4.7223,4.8324,4.8547,4.9316,5.0409,5.167,5.2258,5.2258,5.242,5.2348,5.2304,5.2479,5.3061,5.3801,5.3604,5.4009,5.4676,5.5062,5.513,5.5112,5.6226,5.6692,5.674,5.8076,5.8292,5.8115,5.8744,5.9106,5.9656,6.0254,6.137,6.3012,6.4042,6.5451,6.712,6.7519,6.8108,6.8735,6.8721,6.9128,6.9761,6.9999,7.0375,7.1626,7.4733,7.6649,7.8061,8.0757,8.1889,8.2298,8.2711,8.4253,8.5228,8.4945,8.6864,8.7412,8.346,8.2737,8.3131,8.4077,8.4366,8.5729,8.9144,9.0868,9.1979,9.2537,9.2749,9.3186,9.3736,9.4587,9.5084,9.5245,9.6786,9.8753,10.0749,10.1086,10.1486,10.1881,10.4773,10.7219,10.8917,11.1444,11.2748,11.2868,11.5185,11.5562,11.4545,11.681,11.7922,11.8081,11.8506,11.88,11.9193,11.9438,11.9705,12.0027,12.0027,12.0089,12.0289,3.9973,4.058,4.1281,4.1891,4.2375,4.268,4.2592,4.3616,4.4325,4.4325,4.4395,4.4623,4.4984,4.5131,4.5277,4.5451,4.6198,4.7237,4.8366,4.9104,4.9993,5.1541,5.1543,5.2135,5.3391,5.2648,5.2799,5.3394,5.3294,5.3526,5.4304,5.4287,5.4628,5.5165,5.527,5.5787,5.6261,5.7254,5.7473,5.7419,5.9035,5.9222,5.8302,5.9336,5.9795,6.0335,6.0748,6.2482,6.45,6.5201,6.6995,6.8991,6.8906,6.9538,7.0314,7.0867,7.1116,7.1557,7.1958,7.174,7.205,7.4811,7.7373,7.9583,8.0444,8.3587,8.6248,8.6314,8.76,8.8628,8.8134,8.8505,8.8201,8.6525,8.4835,8.5048,8.8089,8.8676,8.9773,9.2468,9.3743,9.4083,9.3263,9.3908,9.4543,9.465,9.5368,9.6175,9.688,9.8124,9.9199,10.0204,10.1019,10.1853,10.2947,10.5239,10.731,10.9545,11.1836,11.2773,11.2836,11.5363,11.5789,11.4604,11.6898,11.8002,11.8081,11.8506,11.8876,11.9193,11.9301,11.9601,11.9989,11.9989,12.0113,12.0274,4.0607,4.1172,4.1561,4.2435,4.2413,4.2176,4.2885,4.3335,4.3786,4.4082,4.4355,4.4543,4.4837,4.5064,4.5184,4.5589,4.6676,4.7525,4.8612,4.9463,5.0469,5.2174,5.1756,5.2026,5.3628,5.305,5.3217,5.3878,5.4017,5.4115,5.4621,5.4769,5.5087,5.5443,5.5686,5.6341,5.7213,5.8187,5.8518,5.8733,5.9897,5.9782,5.9081,5.9685,6.0369,6.0984,6.1834,6.3778,6.5888,6.645,6.8298,7.0393,6.9962,7.0466,7.1723,7.3487,7.3367,7.2963,7.4399,7.3632,7.2956,7.4883,7.8085,8.07,8.0751,8.4652,8.8248,8.8306,8.8843,8.9209,8.966,8.9162,8.8391,8.7543,8.6486,8.6871,8.9893,9.0663,9.163,9.3597,9.49,9.5185,9.375,9.4984,9.5785,9.5582,9.6119,9.6861,9.7891,9.8718,9.9479,9.9929,10.0851,10.2119,10.3551,10.5765,10.7855,10.9945,11.2459,11.3356,11.319,11.5332,11.5888,11.5225,11.7203,11.8529,11.9322,11.9181,11.9402,11.991,11.9521,11.9705,12.0089,12.0089,12.0213,12.0432,4.2168,4.2216,4.2396,4.3744,4.292,4.2808,4.4169,4.4153,4.4043,4.4863,4.5131,4.5211,4.4917,4.5384,4.5912,4.643,4.722,4.8345,4.9463,5.0299,5.0874,5.1692,5.1824,5.2022,5.2819,5.3805,5.4202,5.3878,5.4799,5.4991,5.4268,5.4636,5.4749,5.5112,5.5835,5.6733,5.7646,5.9192,6.0018,6.0487,6.0468,6.0396,6.0351,6.0126,6.0567,6.1627,6.3205,6.516,6.6969,6.7476,6.9271,7.0911,7.0436,7.121,7.2746,7.6275,7.5481,7.3932,7.6837,7.5881,7.451,7.5594,7.8292,8.0903,8.2213,8.4861,8.7469,8.8292,8.6975,8.6491,8.8872,8.9057,8.7971,8.584,8.6727,8.7774,8.8009,8.8916,9.0015,9.1642,9.3895,9.4882,9.406,9.5823,9.695,9.7248,9.7185,9.7452,9.7947,9.8742,9.9479,10.0341,10.0986,10.2119,10.3483,10.6821,10.91,11.0232,11.3643,11.4705,11.3927,11.5037,11.5788,11.6281,11.7382,11.9383,12.195,12.0495,12.0606,12.1571,12.0321,12.0001,12.0312,12.0312,12.0432,12.0511,4.2207,4.2453,4.2912,4.3718,4.2641,4.2081,4.3643,4.399,4.3851,4.4357,4.5604,4.6033,4.489,4.6036,4.6756,4.6402,4.7764,4.9163,5.0299,5.0874,5.1692,5.2508,5.2565,5.2889,5.3976,5.442,5.4852,5.5028,5.5437,5.5783,5.5813,5.6444,5.6664,5.7018,5.7198,5.7809,5.9192,6.0633,6.1343,6.134,6.2473,6.2031,6.084,6.1408,6.158,6.1985,6.45,6.6389,6.7833,6.9525,7.0971,7.2561,7.3969,7.4811,7.5421,7.7474,7.748,7.6607,7.6329,7.5973,7.5354,7.5855,7.7743,7.9963,8.098,8.3998,8.7145,8.8428,8.8755,8.9211,9.0299,8.9709,8.8997,8.8445,8.7653,8.8165,9.0687,9.1191,9.2205,9.4863,9.6293,9.6603,9.5618,9.7348,9.8279,9.7938,9.8691,9.913,9.8723,9.9525,10.0037,10.0341,10.0986,10.1948,10.3125,10.6697,10.8817,10.9375,11.3254,11.4799,11.4225,11.6343,11.7503,11.8201,11.9228,12.0295,12.1283,12.0532,12.0481,12.1116,12.0198,12.0065,12.0415,12.0415,12.0646,12.0607,4.2901,4.3177,4.336,4.3904,4.2821,4.2232,4.4029,4.4325,4.4365,4.4576,4.5887,4.6329,4.5159,4.632,4.7068,4.693,4.8549,4.9891,5.0668,5.1211,5.2025,5.2805,5.3213,5.3675,5.4934,5.5238,5.5768,5.5927,5.6488,5.6852,5.71,5.7196,5.7616,5.8021,5.7602,5.8511,6.0274,6.1157,6.2173,6.2891,6.3769,6.3326,6.2243,6.283,6.3005,6.323,6.5577,6.7371,6.8858,7.056,7.1856,7.3489,7.6553,7.6599,7.6328,7.9079,7.8788,7.7396,7.6898,7.6761,7.6645,7.6503,7.8112,7.9604,7.9809,8.3036,8.6244,8.7741,8.8306,8.8896,9.0402,8.9894,8.9234,8.9167,8.8868,8.9155,9.1435,9.2158,9.3298,9.5498,9.6907,9.758,9.7146,9.8462,9.9071,9.8695,9.9751,10.0054,9.9339,10.017,10.0515,10.0444,10.1618,10.2367,10.2913,10.6398,10.8327,10.859,11.3136,11.4928,11.4385,11.7118,11.8762,11.9475,12.0204,12.1084,12.1997,12.1206,12.1145,12.14,12.0291,12.0089,12.0394,12.0394,12.0511,12.0589,4.3718,4.3705,4.3623,4.4463,4.3616,4.3233,4.4647,4.4917,4.4917,4.4957,4.5995,4.6063,4.4997,4.6227,4.7262,4.7526,4.9118,5.0374,5.1184,5.1199,5.2007,5.3301,5.3629,5.445,5.5481,5.6277,5.6607,5.7043,5.7807,5.8223,5.804,5.7979,5.7883,5.835,5.7899,5.8881,6.0875,6.1229,6.2626,6.463,6.4501,6.4349,6.3938,6.4097,6.4482,6.5204,6.6826,6.8335,6.9933,7.1078,7.2172,7.3835,7.7823,7.7095,7.5992,8.0828,7.9759,7.7048,7.8105,7.7938,7.7623,7.7727,7.889,7.9986,7.903,8.2071,8.5466,8.6929,8.6546,8.6738,8.9538,8.9487,8.9174,8.899,8.9946,9.0891,9.1238,9.2508,9.3747,9.4881,9.6557,9.7858,9.8613,9.9065,9.9389,9.9506,10.0275,10.0534,9.9917,10.0455,10.0998,10.1153,10.2563,10.3326,10.3234,10.632,10.7907,10.8019,11.3,11.5092,11.4742,11.7931,11.9689,12.0406,12.0615,12.1758,12.3614,12.2294,12.197,12.2225,12.0571,12.0189,12.0524,12.0388,12.0394,12.0397,4.401,4.4116,4.4222,4.473,4.4016,4.3851,4.4913,4.5211,4.5277,4.5531,4.6703,4.6976,4.5545,4.7289,4.8434,4.7834,4.9233,5.0374,5.1184,5.1738,5.2513,5.3301,5.3946,5.503,5.6244,5.6509,5.6607,5.7043,5.8309,5.8999,5.8842,5.9799,6.0099,5.954,5.9311,6.0195,6.1695,6.2173,6.3425,6.5768,6.5892,6.5762,6.5169,6.6169,6.6405,6.6139,6.8654,6.9796,7.0387,7.2526,7.3808,7.4766,7.7519,7.8235,7.8481,7.9539,7.9563,7.9122,7.856,7.8225,7.8256,7.8136,7.9932,8.1435,8.1642,8.3495,8.5409,8.6506,8.7203,8.7863,8.853,8.9487,9.0229,9.0116,9.0948,9.2286,9.4064,9.4695,9.5775,9.807,9.8682,9.9361,9.9881,10.002,10.0018,10.0001,10.0876,10.1433,10.1368,10.1446,10.222,10.3473,10.355,10.4237,10.5713,10.774,10.8893,10.9375,11.3644,11.626,11.761,12.0002,12.1393,12.2083,12.2332,12.3078,12.3952,12.2543,12.2584,12.3383,12.1126,12.0813,12.1581,12.1503,12.0722,11.9882,4.4396,4.465,4.4903,4.5064,4.4926,4.4787,4.5491,4.5777,4.5818,4.5718,4.71,4.74,4.6307,4.7904,4.9005,4.9034,4.9847,5.0929,5.1738,5.2513,5.3049,5.3852,5.4134,5.4934,5.6509,5.6509,5.6953,5.7818,5.8828,5.9537,5.9585,6.0471,6.0623,5.9875,6.0011,6.0686,6.2134,6.2684,6.4188,6.6039,6.707,6.6688,6.599,6.7844,6.8083,6.7708,6.9779,7.1458,7.2605,7.4027,7.5015,7.5907,7.8084,7.8235,7.8013,7.9122,7.9611,7.9563,7.8925,7.9174,7.9759,8.0331,8.1542,8.2609,8.2392,8.3673,8.5489,8.7022,8.7808,8.8579,8.9475,9.0549,9.1455,9.1331,9.2492,9.3619,9.4895,9.5729,9.6941,9.9009,9.9211,9.9437,10.0081,10.0871,10.1326,10.0908,10.1535,10.2068,10.204,10.2586,10.3224,10.4222,10.4944,10.5741,10.699,10.8743,11.0279,11.1652,11.465,11.6709,11.8072,12.0481,12.1642,12.1926,12.2726,12.3115,12.3313,12.2807,12.2907,12.3318,12.1986,12.1939,12.2497,12.238,12.1925,12.1389,4.4503,4.4943,4.5318,4.5384,4.5598,4.5745,4.5745,4.6293,4.628,4.5758,4.684,4.7386,4.6854,4.8204,4.9276,5.0089,5.0659,5.1483,5.2245,5.3049,5.3584,5.4401,5.4401,5.4934,5.6509,5.6509,5.7284,5.8877,5.9435,5.999,6.0375,6.0656,6.0657,6.0177,6.0277,6.127,6.2798,6.3136,6.4586,6.6559,6.7706,6.7498,6.6954,6.9182,6.9481,6.8952,7.0695,7.2891,7.4961,7.5514,7.6228,7.7122,7.8639,7.8321,7.7648,7.9536,7.9757,7.9732,7.9636,8.0465,8.1529,8.2293,8.3225,8.3533,8.2804,8.4177,8.6222,8.8156,8.8636,8.9187,9.1106,9.2108,9.2554,9.2578,9.3886,9.5199,9.582,9.67,9.7839,9.9532,9.9416,9.9351,9.9863,10.1422,10.2151,10.1719,10.2151,10.2542,10.2744,10.3629,10.43,10.4765,10.6213,10.7429,10.8078,11.0038,11.1992,11.3939,11.5795,11.7083,11.7747,12.0367,12.1422,12.1163,12.2472,12.2769,12.2599,12.3038,12.3182,12.3242,12.29,12.2984,12.324,12.2935,12.3184,12.3491,4.477,4.509,4.5384,4.5638,4.5705,4.5745,4.5745,4.5758,4.5758,4.5745,4.6006,4.6293,4.684,4.8204,4.9276,5.0089,5.0659,5.1483,5.2245,5.3049,5.3584,5.4401,5.4401,5.4934,5.6509,5.6509,5.7564,5.9435,6.0201,6.0785,6.1182,6.1985,6.2221,6.177,6.1378,6.2362,6.4361,6.3649,6.5026,6.7724,6.8095,6.8127,6.8333,6.9912,7.0356,7.008,7.1865,7.4049,7.6182,7.664,7.7701,7.8595,7.8957,7.9614,8.0196,7.994,8.0708,8.1516,8.1485,8.1987,8.2508,8.2694,8.3795,8.5211,8.5874,8.7158,8.8438,8.9569,9.0188,9.0576,9.1275,9.2676,9.383,9.4275,9.5258,9.6771,9.8834,9.8713,9.9193,10.1555,10.1408,10.0971,10.0431,10.13,10.1622,10.1343,10.2277,10.3158,10.3663,10.4025,10.5044,10.7047,10.6957,10.8016,11.023,11.1758,11.3609,11.5746,11.7138,11.793,11.8301,12.0595,12.1514,12.1403,12.2483,12.326,12.3728,12.3265,12.3796,12.4612,12.3294,12.3388,12.4083,12.2727,12.3529,12.4981,4.485,4.5237,4.5598,4.5705,4.5745,4.5745,4.5745,4.5745,4.5745,4.5745,4.6033,4.6553,4.684,4.8204,4.9276,5.0089,5.1184,5.2007,5.226,5.3301,5.4118,5.4401,5.4667,5.5465,5.6509,5.6773,5.809,6.0201,6.0479,6.1044,6.1676,6.2131,6.2086,6.2324,6.1908,6.2665,6.4227,6.4566,6.5833,6.7467,6.8035,6.8291,6.8876,7.0383,7.1128,7.1274,7.3899,7.565,7.6848,7.784,7.8696,7.957,7.9924,8.009,8.0476,8.0927,8.1297,8.1876,8.1845,8.2443,8.3225,8.3635,8.4371,8.5759,8.7354,8.8303,8.9247,9.074,9.1023,9.1575,9.2591,9.3987,9.4912,9.5501,9.6579,9.782,9.9153,9.968,10.0316,10.1692,10.1923,10.1758,10.1454,10.1967,10.2472,10.2444,10.3033,10.3632,10.4354,10.4965,10.6055,10.738,10.7954,10.8936,11.0662,11.1941,11.3518,11.571,11.7075,11.7939,11.8444,12.0278,12.1013,12.0808,12.2275,12.326,12.3879,12.394,12.4395,12.5056,12.4536,12.447,12.5017,12.4215,12.4694,12.5478]}]]